[[{"header":{"parameterUnit":"m.s-1","parameterCategory":1,"la1":30.6,"la2":28.766,"lo1":-90.7593,"lo2":-88.6598,"dy":0.0162,"dx":0.0183,"nx":116,"ny":114,"refTime":"2024-06-06T18:00:00:Z","depth":0,"parameterNumber":2,"parameterNumberName":"U-component_of_WINDS"},"data":[0.0,0.0,0.0,0.0,0.0,0.0,0.0,0.0,0.0,0.0,0.0,0.0,0.0,0.0,0.0,0.0,0.0,0.0,0.0,0.0,0.0,0.0,0.0,0.0,0.0,0.0,0.0,0.0,0.0,0.0,0.0,0.0,0.0,0.0,0.0,0.0,0.0,0.0,0.0,0.0,0.0,0.0,0.0,0.0,0.0,0.0,0.0,0.0,0.0,0.0,0.0,0.0,0.0,0.0,0.0,0.0,0.0,0.0,0.0,0.0,0.0,0.0,0.0,0.0,0.0,0.0,0.0,0.0,0.0,0.0,0.0,0.0,0.0,0.0,0.0,0.0,0.0,0.0,0.0,0.0,0.0,0.0,0.0,0.0,0.0,0.0,0.0,0.0,0.0,0.0,0.0,0.0,0.0,0.0,0.0,0.0,0.0,0.0,0.0,0.0,0.0,0.0,0.0,0.0,0.0,0.0,0.0,0.0,0.0,0.0,0.0,0.0,0.0,0.0,0.0,0.0,0.0,0.0,0.0,0.0,0.0,0.0,0.0,0.0,0.0,0.0,0.0,0.0,0.0,0.0,0.0,0.0,0.0,0.0,0.0,0.0,0.0,0.0,0.0,0.0,0.0,0.0,0.0,0.0,0.0,0.0,0.0,0.0,0.0,0.0,0.0,0.0,0.0,0.0,0.0,0.0,0.0,0.0,0.0,0.0,0.0,0.0,0.0,0.0,0.0,0.0,0.0,0.0,0.0,0.0,0.0,0.0,0.0,0.0,0.0,0.0,0.0,0.0,0.0,0.0,0.0,0.0,0.0,0.0,0.0,0.0,0.0,0.0,0.0,0.0,0.0,0.0,0.0,0.0,0.0,0.0,0.0,0.0,0.0,0.0,0.0,0.0,0.0,0.0,0.0,0.0,0.0,0.0,0.0,0.0,0.0,0.0,0.0,0.0,0.0,0.0,0.0,0.0,0.0,0.0,0.0,0.0,0.0,0.0,0.0,0.0,0.0,0.0,0.0,0.0,0.0,0.0,0.0,0.0,0.0,0.0,0.0,0.0,0.0,0.0,0.0,0.0,0.0,0.0,0.0,0.0,0.0,0.0,0.0,0.0,0.0,0.0,0.0,0.0,0.0,0.0,0.0,0.0,0.0,0.0,0.0,0.0,0.0,0.0,0.0,0.0,0.0,0.0,0.0,0.0,0.0,0.0,0.0,0.0,0.0,0.0,0.0,0.0,0.0,0.0,0.0,0.0,0.0,0.0,0.0,0.0,0.0,0.0,0.0,0.0,0.0,0.0,0.0,0.0,0.0,0.0,0.0,0.0,0.0,0.0,0.0,0.0,0.0,0.0,0.0,0.0,0.0,0.0,0.0,0.0,0.0,0.0,0.0,0.0,0.0,0.0,0.0,0.0,0.0,0.0,0.0,0.0,0.0,0.0,0.0,0.0,0.0,0.0,0.0,0.0,0.0,0.0,0.0,0.0,0.0,0.0,0.0,0.0,0.0,0.0,0.0,0.0,0.0,0.0,0.0,0.0,0.0,0.0,0.0,0.0,0.0,0.0,0.0,0.0,0.0,0.0,0.0,0.0,0.0,0.0,0.0,0.0,0.0,0.0,0.0,0.0,0.0,0.0,0.0,0.0,0.0,0.0,0.0,0.0,0.0,0.0,0.0,0.0,0.0,0.0,0.0,0.0,0.0,0.0,0.0,0.0,0.0,0.0,0.0,0.0,0.0,0.0,0.0,0.0,0.0,0.0,0.0,0.0,0.0,0.0,0.0,0.0,0.0,0.0,0.0,0.0,0.0,0.0,0.0,0.0,0.0,0.0,0.0,0.0,0.0,0.0,0.0,0.0,0.0,0.0,0.0,0.0,0.0,0.0,0.0,0.0,0.0,0.0,0.0,0.0,0.0,0.0,0.0,0.0,0.0,0.0,0.0,0.0,0.0,0.0,0.0,0.0,0.0,0.0,0.0,0.0,0.0,0.0,0.0,0.0,0.0,0.0,0.0,0.0,0.0,0.0,0.0,0.0,0.0,0.0,0.0,0.0,0.0,0.0,0.0,0.0,0.0,0.0,0.0,0.0,0.0,0.0,0.0,0.0,0.0,0.0,0.0,0.0,0.0,0.0,0.0,0.0,0.0,0.0,0.0,0.0,0.0,0.0,0.0,0.0,0.0,0.0,0.0,0.0,0.0,0.0,0.0,0.0,0.0,0.0,0.0,0.0,0.0,0.0,0.0,0.0,0.0,0.0,0.0,0.0,0.0,0.0,0.0,0.0,0.0,0.0,0.0,0.0,0.0,0.0,0.0,0.0,0.0,0.0,0.0,0.0,0.0,0.0,0.0,0.0,0.0,0.0,0.0,0.0,0.0,0.0,0.0,0.0,0.0,0.0,0.0,0.0,0.0,0.0,0.0,0.0,0.0,0.0,0.0,0.0,0.0,0.0,0.0,0.0,0.0,0.0,0.0,0.0,0.0,0.0,0.0,0.0,0.0,0.0,0.0,0.0,0.0,0.0,0.0,0.0,0.0,0.0,0.0,0.0,0.0,0.0,0.0,0.0,0.0,0.0,0.0,0.0,0.0,0.0,0.0,0.0,0.0,0.0,0.0,0.0,0.0,0.0,0.0,0.0,0.0,0.0,0.0,0.0,0.0,0.0,0.0,0.0,0.0,0.0,0.0,0.0,0.0,0.0,0.0,0.0,0.0,0.0,0.0,0.0,0.0,0.0,0.0,0.0,0.0,0.0,0.0,0.0,0.0,0.0,0.0,0.0,0.0,0.0,0.0,0.0,0.0,0.0,0.0,0.0,0.0,0.0,0.0,0.0,0.0,0.0,0.0,0.0,0.0,0.0,0.0,0.0,0.0,0.0,0.0,0.0,0.0,0.0,0.0,0.0,0.0,0.0,0.0,0.0,0.0,0.0,0.0,0.0,0.0,0.0,0.0,0.0,0.0,0.0,0.0,0.0,0.0,0.0,0.0,0.0,0.0,0.0,0.0,0.0,0.0,0.0,0.0,0.0,0.0,0.0,0.0,0.0,0.0,0.0,0.0,0.0,0.0,0.0,0.0,0.0,0.0,0.0,0.0,0.0,0.0,0.0,0.0,0.0,0.0,0.0,0.0,0.0,0.0,0.0,0.0,0.0,0.0,0.0,0.0,0.0,0.0,0.0,0.0,0.0,0.0,0.0,0.0,0.0,0.0,0.0,0.0,0.0,0.0,0.0,0.0,0.0,0.0,0.0,0.0,0.0,0.0,0.0,0.0,0.0,0.0,0.0,0.0,0.0,0.0,0.0,0.0,0.0,0.0,0.0,0.0,0.0,0.0,0.0,0.0,0.0,0.0,0.0,0.0,0.0,0.0,0.0,0.0,0.0,0.0,0.0,0.0,0.0,0.0,0.0,0.0,0.0,0.0,0.0,0.0,0.0,0.0,0.0,0.0,0.0,0.0,0.0,0.0,0.0,0.0,0.0,0.0,0.0,0.0,0.0,0.0,0.0,0.0,0.0,0.0,0.0,0.0,0.0,0.0,0.0,0.0,0.0,0.0,0.0,0.0,0.0,0.0,0.0,0.0,0.0,0.0,0.0,0.0,0.0,0.0,0.0,0.0,0.0,0.0,0.0,0.0,0.0,0.0,0.0,0.0,0.0,0.0,0.0,0.0,0.0,0.0,0.0,0.0,0.0,0.0,0.0,0.0,0.0,0.0,0.0,0.0,0.0,0.0,0.0,0.0,0.0,0.0,0.0,0.0,0.0,0.0,0.0,0.0,0.0,0.0,0.0,0.0,0.0,0.0,0.0,0.0,0.0,0.0,0.0,0.0,0.0,0.0,0.0,0.0,0.0,0.0,0.0,0.0,0.0,0.0,0.0,0.0,0.0,0.0,0.0,0.0,0.0,0.0,0.0,0.0,0.0,0.0,0.0,0.0,0.0,0.0,0.0,0.0,0.0,0.0,0.0,0.0,0.0,0.0,0.0,0.0,0.0,0.0,0.0,0.0,0.0,0.0,0.0,0.0,0.0,0.0,0.0,0.0,0.0,0.0,0.0,0.0,0.0,0.0,0.0,0.0,0.0,0.0,0.0,0.0,0.0,0.0,0.0,0.0,0.0,0.0,0.0,0.0,0.0,0.0,0.0,0.0,0.0,0.0,0.0,0.0,0.0,0.0,0.0,0.0,0.0,0.0,0.0,0.0,0.0,0.0,0.0,0.0,0.0,0.0,0.0,0.0,0.0,0.0,0.0,0.0,0.0,0.0,0.0,0.0,0.0,0.0,0.0,0.0,0.0,0.0,0.0,0.0,0.0,0.0,0.0,0.0,0.0,0.0,0.0,0.0,0.0,0.0,0.0,0.0,0.0,0.0,0.0,0.0,0.0,0.0,0.0,0.0,0.0,0.0,0.0,0.0,0.0,0.0,0.0,0.0,0.0,0.0,0.0,0.0,0.0,0.0,0.0,0.0,0.0,0.0,0.0,0.0,0.0,0.0,0.0,0.0,0.0,0.0,0.0,0.0,0.0,0.0,0.0,0.0,0.0,0.0,0.0,0.0,0.0,0.0,0.0,0.0,0.0,0.0,0.0,0.0,0.0,0.0,0.0,0.0,0.0,0.0,0.0,0.0,0.0,0.0,0.0,0.0,0.0,0.0,0.0,0.0,0.0,0.0,0.0,0.0,0.0,0.0,0.0,0.0,0.0,0.0,0.0,0.0,0.0,0.0,0.0,0.0,0.0,0.0,0.0,0.0,0.0,0.0,0.0,0.0,0.0,0.0,0.0,0.0,0.0,0.0,0.0,0.0,0.0,0.0,0.0,0.0,0.0,0.0,0.0,0.0,0.0,0.0,0.0,0.0,0.0,0.0,0.0,0.0,0.0,0.0,0.0,0.0,0.0,0.0,0.0,0.0,0.0,0.0,0.0,0.0,0.0,0.0,0.0,0.0,0.0,0.0,0.0,0.0,0.0,0.0,0.0,0.0,0.0,0.0,0.0,0.0,0.0,0.0,0.0,0.0,0.0,0.0,0.0,0.0,0.0,0.0,0.0,0.0,0.0,0.0,0.0,0.0,0.0,0.0,0.0,0.0,0.0,0.0,0.0,0.0,0.0,0.0,0.0,0.0,0.0,0.0,0.0,0.0,0.0,0.0,0.0,0.0,0.0,0.0,0.0,0.0,0.0,0.0,0.0,0.0,0.0,0.0,0.0,0.0,0.0,0.0,0.0,0.0,0.0,0.0,0.0,0.0,0.0,0.0,0.0,0.0,0.0,0.0,0.0,0.0,0.0,0.0,0.0,0.0,0.0,0.0,0.0,0.0,0.0,0.0,0.0,0.0,0.0,0.0,0.0,0.0,0.0,0.0,0.0,0.0,0.0,0.0,0.0,0.0,0.0,0.0,0.0,0.0,0.0,0.0,0.0,0.0,0.0,0.0,0.0,0.0,0.0,0.0,0.0,0.0,0.0,0.0,0.0,0.0,0.0,0.0,0.0,0.0,0.0,0.0,0.0,0.0,0.0,0.0,0.0,0.0,0.0,0.0,0.0,0.0,0.0,0.0,0.0,0.0,0.0,0.0,0.0,0.0,0.0,0.0,0.0,0.0,0.0,0.0,0.0,0.0,0.0,0.0,0.0,0.0,0.0,0.0,0.0,0.0,0.0,0.0,0.0,0.0,0.0,0.0,0.0,0.0,0.0,0.0,0.0,0.0,0.0,0.0,0.0,0.0,0.0,0.0,0.0,0.0,0.0,0.0,0.0,0.0,0.0,0.0,0.0,0.0,0.0,0.0,0.0,0.0,0.0,0.0,0.0,0.0,0.0,0.0,0.0,0.0,0.0,0.0,0.0,0.0,0.0,0.0,0.0,0.0,0.0,0.0,0.0,0.0,0.0,0.0,0.0,0.0,0.0,0.0,0.0,0.0,0.0,0.0,0.0,0.0,0.0,0.0,0.0,0.0,0.0,0.0,0.0,0.0,0.0,0.0,0.0,0.0,0.0,0.0,0.0,0.0,0.0,0.0,0.0,0.0,0.0,0.0,0.0,0.0,0.0,0.0,0.0,0.0,0.0,0.0,0.0,0.0,0.0,0.0,0.0,0.0,0.0,0.0,0.0,0.0,0.0,-2.4764,0.0,0.0,0.0,0.0,0.0,0.0,0.0,0.0,0.0,0.0,0.0,0.0,0.0,0.0,0.0,0.0,0.0,0.0,0.0,0.0,0.0,0.0,0.0,0.0,-1.4269,-1.4407,-1.5089,-1.4984,-1.4858,-1.4746,0.0,0.0,0.0,0.0,0.0,-1.2627,-1.1788,-1.1482,-1.1748,-1.1709,-1.1767,-1.1916,-1.1916,-1.1302,-1.0211,0.0,0.0,0.0,0.0,0.0,0.0,0.0,0.0,0.0,0.0,0.0,0.0,0.0,0.0,0.0,0.0,0.0,0.0,0.0,0.0,0.0,0.0,0.0,0.0,0.0,0.0,0.0,0.0,0.0,0.0,0.0,0.0,0.0,0.0,0.0,0.0,0.0,0.0,0.0,0.0,0.0,0.0,0.0,0.0,0.0,0.0,0.0,0.0,0.0,0.0,0.0,0.0,0.0,0.0,0.0,0.0,0.0,0.0,0.0,0.0,0.0,0.0,0.0,0.0,0.0,0.0,0.0,0.0,0.0,0.0,0.0,-2.6141,0.0,0.0,0.0,0.0,0.0,0.0,0.0,0.0,0.0,0.0,0.0,0.0,0.0,0.0,0.0,0.0,0.0,0.0,0.0,0.0,0.0,-1.2381,-1.4579,-1.4883,-1.5172,-1.5716,-1.5651,-1.5501,-1.533,-1.5144,0.0,0.0,0.0,-1.3838,-1.3444,-1.3064,-1.3009,-1.3297,-1.3592,-1.4068,-1.4687,-1.4745,-1.3907,-1.2395,-1.2165,0.0,0.0,0.0,0.0,0.0,0.0,0.0,0.0,0.0,0.0,0.0,0.0,0.0,0.0,0.0,0.0,0.0,0.0,0.0,0.0,0.0,0.0,0.0,0.0,0.0,0.0,0.0,0.0,0.0,0.0,0.0,0.0,0.0,0.0,0.0,0.0,0.0,0.0,0.0,0.0,0.0,0.0,0.0,0.0,0.0,0.0,0.0,0.0,0.0,0.0,0.0,0.0,0.0,0.0,0.0,0.0,0.0,0.0,0.0,0.0,0.0,0.0,0.0,-3.3612,-3.4205,-3.4205,-3.426,-3.4235,-3.4014,-3.1887,-3.0085,-2.8632,0.0,0.0,0.0,0.0,0.0,0.0,0.0,0.0,0.0,0.0,0.0,0.0,0.0,0.0,0.0,0.0,0.0,0.0,0.0,0.0,-1.3949,-1.5473,-1.6058,-1.6578,-1.7159,-1.7161,-1.7063,-1.6992,-1.6897,0.0,0.0,-1.5459,-1.4628,-1.3998,-1.3151,-1.291,-1.3297,-1.4768,-1.5869,-1.6644,-1.6862,-1.7047,-1.709,-1.4921,-1.3906,-1.376,0.0,0.0,0.0,0.0,0.0,0.0,0.0,0.0,0.0,0.0,0.0,0.0,0.0,0.0,0.0,0.0,0.0,0.0,0.0,0.0,0.0,0.0,0.0,0.0,0.0,0.0,0.0,0.0,0.0,0.0,0.0,0.0,0.0,0.0,0.0,0.0,0.0,0.0,0.0,0.0,0.0,-2.1404,-2.2328,0.0,0.0,0.0,0.0,0.0,0.0,0.0,0.0,0.0,0.0,0.0,0.0,0.0,-3.1186,-3.2278,-3.4058,-3.4972,-3.5107,-3.6941,-3.7812,-3.7812,-3.7818,-3.7818,-3.7789,-3.7319,0.0,-3.1404,-3.0535,0.0,0.0,0.0,0.0,0.0,0.0,0.0,0.0,0.0,0.0,0.0,0.0,0.0,0.0,0.0,0.0,0.0,0.0,0.0,0.0,0.0,-1.7003,-1.7614,-1.8188,-1.8588,-1.8576,-1.8054,-1.8001,-1.7642,-1.6908,-1.6135,-1.5482,-1.5007,-1.4639,-1.5033,-1.6218,-1.7658,-1.8582,-1.8906,-1.9045,-1.9211,-1.9336,-1.8238,-1.6821,-1.5158,-1.391,0.0,0.0,0.0,0.0,0.0,0.0,0.0,0.0,0.0,0.0,0.0,0.0,0.0,0.0,0.0,0.0,0.0,0.0,0.0,0.0,0.0,0.0,0.0,0.0,0.0,0.0,0.0,0.0,0.0,0.0,0.0,0.0,0.0,0.0,0.0,0.0,0.0,0.0,0.0,-2.1251,-2.3226,-2.3685,-2.4607,-2.4963,0.0,0.0,0.0,0.0,0.0,0.0,0.0,0.0,0.0,-3.3053,-3.3892,-3.5184,-3.7001,-3.8427,-3.9389,-3.9886,-4.0886,-4.1361,-4.1361,-4.1361,-4.1361,-4.1361,-4.1294,-3.9691,-3.6936,-3.4549,-3.2608,-3.0983,0.0,0.0,0.0,0.0,-2.8873,-2.9278,0.0,0.0,0.0,0.0,0.0,0.0,0.0,0.0,0.0,0.0,0.0,0.0,-1.7017,-1.7941,-1.8624,-1.9142,-1.9713,-1.9744,-1.9085,-1.8785,-1.8232,-1.7347,-1.6644,-1.618,-1.5964,-1.6282,-1.7166,-1.8581,-1.9817,-2.0458,-2.0538,-2.0625,-2.0651,-2.0651,-2.0651,-1.9293,-1.6957,-1.5978,-1.4409,-1.2483,0.0,0.0,0.0,0.0,0.0,0.0,0.0,0.0,0.0,0.0,0.0,0.0,0.0,0.0,0.0,0.0,0.0,0.0,0.0,0.0,0.0,0.0,0.0,0.0,0.0,0.0,0.0,0.0,0.0,0.0,0.0,0.0,0.0,0.0,0.0,0.0,0.0,-2.3409,-2.514,-2.5301,-2.7233,-2.8128,0.0,0.0,0.0,0.0,0.0,0.0,-3.1781,-3.3452,-3.5154,-3.6829,-3.7683,-3.9021,-4.0912,-4.1805,-4.2557,-4.3208,-4.3465,-4.3601,-4.3601,-4.3601,-4.3601,-4.3601,-4.3601,-4.288,-4.1477,-3.8189,-3.5824,-3.4223,-3.3418,-3.2735,-3.2197,-3.2111,-3.2489,-3.3026,0.0,0.0,0.0,0.0,0.0,0.0,0.0,0.0,0.0,0.0,0.0,-1.6746,-1.7993,-1.8962,-1.9697,-2.0178,-2.0324,-2.0325,0.0,-1.9249,-1.8531,-1.8153,-1.7088,-1.6552,-1.6638,-1.772,-1.8435,-1.8784,-1.9927,-2.0639,-2.0868,-2.1213,-2.1352,-2.1352,-2.1352,-2.0776,-1.9672,-1.7854,-1.6896,-1.6356,-1.3458,0.0,0.0,0.0,0.0,0.0,0.0,0.0,0.0,0.0,0.0,0.0,0.0,0.0,0.0,0.0,0.0,0.0,0.0,0.0,0.0,0.0,0.0,0.0,0.0,0.0,0.0,0.0,0.0,0.0,0.0,0.0,0.0,0.0,0.0,0.0,0.0,0.0,0.0,-2.7822,-3.1044,0.0,0.0,0.0,0.0,-3.1202,-3.2802,-3.4503,-3.6099,-3.7789,-3.9451,-4.1141,-4.203,-4.2545,-4.2679,-4.2973,-4.3163,-4.3208,-4.3465,-4.3601,-4.3601,-4.3601,-4.3601,-4.3601,-4.3601,-4.3543,-4.327,-4.0671,-3.8561,-3.692,-3.6112,-3.5776,-3.5724,-3.5595,-3.5574,-3.5608,0.0,0.0,0.0,0.0,0.0,-1.0648,-1.1735,-1.2361,-1.3503,-1.5724,-1.6693,-1.7666,-1.8961,-2.0282,-2.1148,-2.1313,-2.1825,-2.1811,-2.1064,-2.0252,-1.9471,-1.875,-1.7715,-1.75,-1.8305,-1.9088,-1.9944,-2.0868,-2.1669,-2.1948,-2.1746,-2.2174,-2.2016,-2.1423,-2.1949,-2.1699,-2.0807,-1.9539,-1.826,-1.6975,-1.5507,-1.3684,0.0,0.0,0.0,0.0,0.0,0.0,0.0,0.0,0.0,0.0,0.0,0.0,0.0,0.0,0.0,0.0,0.0,0.0,0.0,0.0,0.0,0.0,0.0,0.0,0.0,0.0,0.0,0.0,0.0,0.0,0.0,0.0,0.0,0.0,0.0,0.0,0.0,-3.0491,-3.3277,0.0,-3.3424,-3.489,-3.5783,-3.5477,-3.754,-3.9088,-3.9699,-4.0826,-4.1724,-4.2316,-4.3138,-4.3567,-4.3567,-4.4388,-4.4764,-4.4685,-4.5089,-4.5235,-4.5161,-4.5239,-4.526,-4.526,-4.526,-4.4949,-4.4361,-4.3358,-4.1999,-4.0457,-3.9602,-3.8917,-3.8319,-3.7705,-3.7773,-3.8105,0.0,0.0,0.0,0.0,-1.0231,-1.1002,-1.1776,-1.2803,-1.4219,-1.622,-1.7428,-1.8619,-1.9926,-2.1334,-2.2242,-2.2399,-2.29,-2.2826,-2.1956,-2.1194,-2.0387,-1.9552,-1.8832,-1.8759,-1.9387,-2.0264,-2.1166,-2.2096,-2.2459,-2.2526,-2.231,-2.2526,-2.2258,-2.166,-2.203,-2.1996,-2.1633,-2.0813,-1.9704,-1.8376,-1.7412,-1.5923,-1.4203,0.0,0.0,0.0,0.0,0.0,0.0,0.0,0.0,0.0,0.0,0.0,0.0,0.0,0.0,0.0,0.0,0.0,0.0,0.0,0.0,0.0,0.0,0.0,0.0,0.0,0.0,0.0,0.0,0.0,0.0,0.0,0.0,0.0,0.0,0.0,-3.2121,-3.313,-3.5952,-3.7575,-3.6979,-3.8438,-3.9412,-3.9412,-4.0979,-4.2049,-4.2335,-4.2889,-4.3348,-4.3634,-4.4169,-4.4437,-4.4437,-4.5235,-4.5595,-4.5498,-4.5865,-4.5978,-4.5908,-4.6056,-4.6102,-4.6032,-4.6106,-4.5771,-4.5152,-4.5076,-4.4443,-4.3436,-4.231,-4.1519,-4.0909,-4.0307,-4.0215,-4.0262,0.0,0.0,0.0,-0.9595,-1.0295,-1.1084,-1.1794,-1.3292,-1.4884,-1.6395,-1.8085,-1.9624,-2.0878,-2.2042,-2.2921,-2.3375,-2.3406,-2.3265,-2.2917,-2.2021,-2.1206,-2.0548,-2.0399,-2.0198,-1.9906,-2.1213,-2.2068,-2.2332,-2.2212,-2.2267,-2.2512,-2.2273,-2.2156,-2.2109,-2.1715,-2.1801,-2.224,-2.1729,-2.1328,-2.0867,-1.923,-1.8402,-1.7976,0.0,0.0,0.0,0.0,0.0,0.0,0.0,0.0,0.0,0.0,0.0,0.0,0.0,0.0,0.0,0.0,0.0,0.0,0.0,0.0,0.0,0.0,0.0,0.0,0.0,0.0,0.0,0.0,0.0,0.0,0.0,0.0,0.0,-2.8937,-3.2149,-3.4808,-3.5682,-3.9137,-4.1147,-4.0435,-4.1867,-4.2832,-4.2832,-4.2851,-4.3214,-4.4006,-4.4045,-4.4437,-4.5269,-4.5307,-4.5307,-4.5307,-4.5438,-4.549,-4.5509,-4.563,-4.5703,-4.5703,-4.5902,-4.5871,-4.5717,-4.5908,-4.5891,-4.5703,-4.5703,-4.5724,-4.5628,-4.4058,-4.3478,-4.3521,-4.3428,-4.2858,-4.2,0.0,0.0,-0.9607,-0.9603,-1.0758,-1.1741,-1.1939,-1.3823,-1.5576,-1.6475,-1.8573,-2.03,-2.1198,-2.2612,-2.3547,-2.3682,-2.3693,-2.3434,-2.2865,-2.2094,-2.1498,-2.1167,-2.1107,-2.1476,-2.2332,-2.2429,-2.2729,-2.3255,-2.3223,-2.3054,-2.2799,-2.3551,-2.3525,-2.2865,-2.3818,-2.4096,-2.3887,-2.4009,-2.3745,-2.3054,-2.1251,-1.9922,-1.8965,0.0,0.0,0.0,0.0,0.0,0.0,0.0,0.0,0.0,0.0,0.0,0.0,0.0,0.0,0.0,0.0,0.0,0.0,0.0,0.0,0.0,0.0,0.0,0.0,0.0,0.0,0.0,0.0,0.0,0.0,0.0,0.0,-3.2117,-3.2205,-3.477,-3.6952,-3.778,-4.0303,-4.1897,-4.1704,-4.29,-4.3663,-4.3663,-4.4265,-4.4704,-4.4934,-4.4934,-4.5048,-4.5288,-4.5307,-4.5307,-4.5307,-4.5438,-4.5446,-4.5361,-4.5595,-4.5645,-4.5555,-4.5722,-4.5744,-4.571,-4.577,-4.5744,-4.5696,-4.5603,-4.5591,-4.555,-4.457,-4.4207,-4.415,-4.3499,-4.3071,-4.2794,0.0,-0.9673,-0.9738,-1.0052,-1.1146,-1.2112,-1.2459,-1.4526,-1.6193,-1.656,-1.9045,-2.0942,-2.1319,-2.2823,-2.3785,-2.3761,-2.3765,-2.3332,-2.2355,-2.1949,-2.1773,-2.1871,-2.2206,-2.2774,-2.3538,-2.3512,-2.3756,-2.4297,-2.4387,-2.4298,-2.404,-2.4714,-2.4716,-2.4182,-2.4844,-2.5019,-2.4834,-2.4893,-2.4761,-2.44,-2.3088,-2.1945,-2.0932,-1.9886,-1.9239,-1.8717,-1.7738,-1.7221,-1.693,-1.6619,0.0,0.0,0.0,0.0,0.0,0.0,0.0,0.0,0.0,0.0,0.0,0.0,0.0,0.0,0.0,0.0,0.0,0.0,0.0,0.0,0.0,0.0,0.0,0.0,-3.3465,-3.5256,-3.6286,-3.7336,-3.8582,-4.0105,-4.1737,-4.2886,-4.325,-4.4048,-4.4551,-4.4551,-4.501,-4.5307,-4.5307,-4.5307,-4.5307,-4.5307,-4.5307,-4.5307,-4.5307,-4.539,-4.539,-4.5307,-4.5455,-4.5481,-4.5419,-4.5566,-4.5587,0.0,-4.5595,-4.5587,-4.5533,-4.5456,-4.5457,0.0,0.0,0.0,0.0,0.0,-4.3674,-4.3547,0.0,-0.9769,-1.0048,-1.0706,-1.1548,-1.2383,-1.3101,-1.5119,-1.6577,-1.6602,-1.9298,-2.1195,-2.1162,-2.2576,-2.3536,-2.3577,-2.3574,-2.3068,0.0,-2.1877,-2.2185,-2.2769,-2.3551,-2.4059,-2.4192,-2.4643,-2.5068,-2.5426,-2.5659,-2.574,-2.5685,-2.5745,-2.5775,-2.5775,-2.5388,-2.5336,-2.5544,-2.5194,-2.515,-2.5271,-2.4822,-2.414,-2.3246,-2.1668,-2.1375,-2.1679,-2.029,-1.9815,-1.9724,-1.9104,0.0,0.0,0.0,0.0,0.0,0.0,0.0,0.0,0.0,0.0,0.0,0.0,0.0,0.0,0.0,0.0,0.0,0.0,0.0,0.0,0.0,0.0,0.0,0.0,-3.6761,-3.8138,-4.0329,-3.9725,-3.9918,-4.2184,-4.3156,-4.3938,-4.4688,-4.5087,-4.5297,-4.5297,-4.5297,-4.5297,-4.5307,0.0,0.0,0.0,0.0,-4.5297,-4.5307,-4.5286,-4.5286,-4.5307,-4.5297,-4.5297,-4.5307,-4.5419,-4.54,-4.5317,-4.5428,-4.54,-4.5307,-4.5307,-4.5328,-4.5389,-4.5465,-4.5558,-4.5592,-4.4875,-4.455,-4.4335,0.0,-1.0211,-1.0717,-1.0857,-1.2038,-1.3022,-1.3176,-1.4635,-1.5939,-1.6521,-1.8271,-1.9696,-2.0281,-2.1256,-2.2144,-2.2831,-2.2785,-2.2898,-2.326,-2.2906,-2.3256,-2.4546,-2.4962,-2.5454,-2.6054,-2.6419,-2.647,-2.6178,-2.6611,-2.6629,-2.6259,-2.6742,-2.6964,-2.6956,-2.7054,-2.7126,-2.7151,-2.7186,-2.6975,-2.6639,-2.663,-2.5634,-2.3954,-2.2561,-2.2113,-2.2092,-2.1327,-2.1118,-2.1223,-2.1237,-2.0879,-2.0444,-2.0588,-1.9745,0.0,0.0,0.0,0.0,0.0,0.0,0.0,0.0,0.0,0.0,0.0,0.0,0.0,0.0,0.0,0.0,0.0,0.0,0.0,-3.6542,-3.8482,-4.022,-4.1307,-4.136,-4.1516,-4.2173,-4.3568,-4.448,-4.4553,-4.4953,-4.5213,-4.5213,-4.5213,-4.5235,-4.5297,-4.5307,-4.5307,-4.5307,-4.5254,-4.5254,-4.5307,-4.5192,-4.5192,-4.5307,0.0,0.0,-4.5307,-4.5329,-4.5319,-4.5307,-4.5329,-4.5319,-4.5307,-4.5307,-4.5307,-4.5338,-4.5457,-4.5512,-4.5519,-4.5417,-4.537,-4.5325,-1.0104,-1.0524,-1.094,-1.1251,-1.2323,-1.3249,-1.3557,-1.4563,-1.5602,-1.6445,-1.7926,-1.9219,-2.0065,-2.0932,-2.1602,-2.2008,-2.1711,-2.1961,-2.3081,-2.2992,-2.3553,-2.5044,-2.5707,-2.633,-2.6932,-2.7389,-2.7591,-2.7547,-2.7917,-2.798,-2.7748,-2.8076,-2.8194,-2.8186,-2.8021,-2.7953,-2.7929,-2.785,-2.7684,-2.7488,-2.7283,-2.6663,-2.5673,-2.414,-2.3342,-2.2993,-2.2532,-2.2387,-2.2468,-2.2595,-2.2474,-2.2269,-2.2418,-2.1768,-2.0975,0.0,0.0,0.0,0.0,0.0,0.0,0.0,0.0,0.0,0.0,0.0,0.0,0.0,0.0,-3.2093,0.0,0.0,-3.7993,-3.9152,-4.0347,-4.1379,-4.2194,-4.2541,-4.2682,-4.2665,-4.3744,-4.4465,-4.4416,-4.4917,-4.5254,-4.5254,-4.5254,-4.5447,-4.5889,-4.5507,-4.5468,-4.5889,-4.5485,-4.5275,-4.5307,-4.5224,-4.5213,-4.5254,-4.5213,-4.5213,-4.5254,-4.5254,-4.5275,-4.5307,-4.5307,-4.5307,-4.5307,-4.5307,-4.5307,-4.5317,-4.54,-4.5438,-4.5467,-4.5541,-4.5568,-4.5594,-1.0515,-1.0925,-1.1356,-1.1858,-1.2675,-1.3442,-1.393,-1.4477,-1.5183,-1.613,-1.7466,-1.8699,-1.9624,-2.049,-2.105,-2.109,-2.0831,-2.1238,-2.2664,-2.2981,-2.3768,-2.5242,-2.6354,-2.7142,-2.7514,-2.8202,-2.8677,-2.8914,-2.9233,-2.9325,-2.9234,-2.9234,-2.9234,-2.9212,-2.8591,-2.8288,-2.828,-2.791,-2.784,-2.7934,-2.7533,-2.7286,-2.7026,-2.5636,-2.4675,-2.4027,-2.3648,-2.3427,-2.3383,-2.3476,-2.3526,-2.3568,-2.3658,-2.3318,-2.2785,-2.2295,-2.149,0.0,0.0,0.0,0.0,0.0,0.0,0.0,0.0,-2.8244,-2.9663,-3.1931,-3.4063,-3.5965,-3.7412,-3.8862,-4.0256,-4.1488,-4.1831,-4.2158,-4.281,-4.3177,-4.3301,-4.3086,-4.3788,-4.4289,-4.4246,-4.4764,-4.5106,-4.5095,-4.517,-4.5489,-4.6137,-4.5772,-4.5755,-4.6252,-4.5772,-4.5428,-4.5307,-4.5254,-4.5213,-4.5192,-4.517,-4.517,-4.5181,-4.5192,-4.5224,-4.5286,-4.5297,-4.5307,-4.5307,-4.5307,-4.5307,-4.5307,-4.5348,-4.538,-4.5419,-4.5476,-4.5522,-4.5577,0.0,-1.1711,-1.2687,-1.2745,-1.3389,-1.392,-1.3998,-1.3973,-1.4284,-1.5215,-1.6114,-1.7037,-1.7966,-1.8794,-1.9498,-2.001,-2.0773,-2.1818,-2.3226,-2.3675,-2.4547,-2.6003,-2.7441,-2.8221,-2.8276,-2.9547,-3.0063,-2.968,-3.0123,-3.0135,-2.9728,-2.9728,-2.9728,-2.9683,-2.8717,-2.8288,-2.8264,-2.7835,-2.77,-2.784,-2.7904,-2.7281,-2.6336,-2.6251,-2.5782,-2.5053,-2.4413,-2.3917,-2.3592,-2.3786,-2.3945,-2.4151,-2.4329,-2.4338,-2.4293,-2.4404,-2.2998,-2.1554,-2.2315,-2.2362,-2.2794,-2.5359,-2.612,-2.7513,0.0,-3.3452,-3.4157,-3.6839,-3.8191,-3.9115,-3.9948,-4.0836,-4.1488,-4.1669,-4.2303,-4.2792,-4.2901,-4.2939,-4.2957,-4.2938,-4.3738,-4.4265,-4.4136,-4.4308,-4.4393,-4.4336,-4.4642,-4.4889,-4.4988,-4.5864,-4.608,-4.5449,-4.5981,-4.5962,-4.5297,-4.5049,-4.5026,-4.5192,-4.5091,-4.5038,-4.5114,-4.517,-4.5203,-4.5213,-4.5256,-4.5307,-4.5307,-4.5307,-4.5307,-4.5307,-4.5307,-4.5348,-4.5409,-4.5486,-4.5504,-4.5513,0.0,-1.2044,-1.2907,-1.331,-1.3654,-1.3853,-1.3771,-1.3644,-1.3919,-1.4892,-1.5281,-1.599,-1.7364,-1.8235,-1.8782,-1.8946,-1.997,-2.1198,-2.2617,-2.3528,-2.4663,-2.6136,-2.7199,-2.7961,-2.8392,-2.9367,-2.9976,-3.0215,-3.0405,-3.0405,-3.0215,-3.0215,-3.0215,-3.0156,-2.9196,-2.8772,-2.8709,-2.7919,-2.7675,-2.7815,-2.7955,-2.75,-2.6742,-2.6511,-2.5703,-2.4641,-2.4085,-2.3771,0.0,-2.347,-2.349,-2.3599,-2.3847,-2.3936,-2.3907,-2.362,-2.3506,-2.3852,-2.5609,-2.6367,-2.7139,-2.9121,-3.053,-3.2209,-3.5115,-3.5894,-3.6684,-3.8995,-4.0113,-4.08,-4.1144,-4.1868,-4.2393,0.0,-4.2683,-4.2901,-4.2901,-4.2901,-4.2938,-4.3012,-4.3356,-4.3644,-4.3738,-4.4016,-4.4165,-4.4136,-4.4299,-4.4705,-4.5407,-4.5407,-4.5546,-4.5943,-4.5765,-4.5487,-4.5181,-4.5061,-4.5045,-4.5091,-4.5033,-4.5003,-4.5038,-4.508,-4.5125,-4.5203,-4.5224,-4.5256,-4.5307,-4.5307,-4.5307,-4.5307,-4.5307,-4.5317,-4.5348,-4.5429,-4.5467,-4.5504,0.0,-1.2386,-1.3173,-1.3616,-1.3659,-1.3624,-1.3586,-1.3462,-1.3751,-1.4708,-1.5003,-1.5749,-1.7449,-1.8076,-1.831,-1.8239,-1.9303,-2.0512,-2.1717,-2.3182,-2.458,-2.5838,-2.6801,-2.7547,-2.8078,-2.8953,-2.9661,-3.0191,-3.0406,-3.0506,-3.0506,-3.0506,-3.0506,-3.0447,-2.9528,-2.9097,-2.9028,-2.8018,-2.7545,-2.7494,-2.7658,-2.7263,-2.6527,-2.6028,-2.5114,-2.4065,-2.3729,-2.3385,-2.3042,-2.2657,-2.2703,-2.2935,-2.2911,-2.3257,-2.3618,-2.3555,-2.451,-2.5927,-2.7569,-2.8879,-3.0217,-3.2063,-3.4054,-3.5914,-3.7126,-3.8008,-3.894,-4.0166,-4.1052,-4.1558,-4.1397,-4.2031,-4.2574,-4.2574,-4.2755,-4.2901,-4.2901,-4.2901,-4.2938,-4.303,-4.3049,-4.3123,-4.3318,-4.3654,-4.3828,-4.3831,-4.394,-4.4461,-4.557,-4.5317,-4.5547,-4.6411,-4.6114,-4.5847,-4.5632,-4.547,-4.5387,-4.5352,-4.5112,-4.4967,-4.4967,-4.4979,-4.5049,-4.517,-4.517,-4.5203,-4.5275,-4.5275,-4.5286,-4.5307,-4.5307,-4.5307,-4.5307,-4.5348,-4.54,-4.5457,0.0,0.0,-1.3838,-1.3721,-1.3428,-1.3278,-1.3462,-1.3446,-1.371,-1.459,-1.5383,-1.6521,-1.8265,-1.8201,-1.8005,-1.8005,-1.9045,-2.0034,-2.0786,-2.2822,-2.4348,-2.511,-2.6536,-2.7298,-2.7315,-2.8688,-2.9397,-2.943,-3.0141,-3.0506,-3.0506,-3.0506,-3.0506,-3.0447,-2.9528,-2.9097,-2.9028,-2.8018,-2.7225,-2.6656,-2.6913,-2.6244,-2.5013,-2.4541,-2.4055,-2.3612,-2.3616,-2.2835,-2.1757,-2.1228,-2.1714,-2.2394,-2.1695,-2.2492,-2.3998,-2.5446,-2.6528,-2.7194,-2.7078,-2.8349,-3.0396,-3.3301,-3.5455,-3.7244,-3.8778,-4.0402,-4.136,-4.0564,-4.1089,-4.1469,-4.0673,-4.118,-4.1741,-4.1741,-4.2393,-4.2901,-4.2901,-4.2901,-4.2901,-4.2919,-4.2919,-4.2901,0.0,-4.3105,-4.3196,-4.3141,-4.3494,-4.4077,-4.4892,-4.594,-4.6542,-4.6511,-4.7537,-4.7735,-4.6943,-4.6442,-4.6202,-4.6244,-4.5349,-4.4895,-4.4914,-4.4967,-4.5045,-4.5103,-4.5103,-4.5148,-4.5203,-4.5203,-4.5235,-4.5307,-4.5307,-4.5307,-4.5307,-4.5307,-4.5338,-4.5399,0.0,0.0,0.0,-1.3595,-1.3362,-1.315,-1.3044,-1.3138,-1.3485,-1.4271,-1.5576,0.0,0.0,0.0,0.0,0.0,-1.8451,-1.9396,-2.0705,-2.1923,-2.3121,-2.4315,-2.5309,-2.6071,-2.6568,-2.7495,-2.826,-2.8738,-2.9006,-2.9102,-2.9102,-2.9102,-2.935,-2.974,-2.88,-2.8379,-2.8372,-2.7363,-2.7125,-2.7319,-2.6613,-2.6389,-2.6344,-2.5345,-2.4112,-2.2961,0.0,-2.2609,-2.1914,-2.1424,-2.1486,-2.1743,-2.1577,-2.1916,-2.2766,-2.481,-2.6481,-2.818,-3.0383,-3.2423,-3.4482,-3.6738,-3.8187,-3.9374,-4.0417,-4.067,-4.0797,-4.1141,-4.0998,-4.0781,-4.0546,-4.0709,-4.1071,-4.1614,-4.1922,-4.2303,-4.2829,-4.2901,-4.2901,-4.2901,-4.2901,0.0,0.0,0.0,0.0,-4.2975,-4.3578,-4.4181,-4.4669,-4.5564,-4.6161,-4.6359,-4.6736,-4.68,-4.6551,-4.637,-4.6023,-4.551,-4.4871,-4.4681,-4.4895,-4.4919,-4.4967,-4.5026,-4.5026,-4.5103,-4.5192,-4.5192,-4.5235,-4.5307,-4.5307,-4.5307,-4.5307,-4.5307,-4.5317,-4.5338,0.0,0.0,0.0,0.0,0.0,0.0,0.0,0.0,0.0,0.0,0.0,0.0,0.0,0.0,0.0,0.0,0.0,-1.8795,-1.9832,-2.0924,-2.2051,-2.3219,-2.3733,-2.4464,-2.5461,-2.5943,-2.6692,-2.769,-2.7919,-2.8108,-2.822,-2.8334,-2.8546,-2.8779,-2.8147,-2.7804,-2.7646,-2.6811,-2.6548,-2.663,-2.5682,-2.5483,-2.5594,-2.4415,-2.3266,0.0,-2.2216,-2.2026,-2.1746,-2.1226,-2.1252,-2.1526,-2.1603,-2.26,-2.4017,-2.563,-2.7719,-3.0185,-3.3272,-3.5289,-3.7036,-3.9243,-4.0198,-4.0756,-4.1278,-4.1046,-4.0634,-4.0365,-3.9932,-3.9444,-3.8917,-3.9061,-3.9604,-4.0691,-4.1089,-4.1741,-4.3118,-4.3063,-4.301,-4.33,-4.3317,-4.3227,0.0,0.0,0.0,-4.2919,-4.3643,-4.432,-4.482,-4.5605,-4.6285,-4.6783,-4.6945,-4.6997,-4.6997,-4.6857,-4.6349,-4.5533,-4.5214,-4.5044,-4.4982,-4.4982,-4.4839,-4.461,-4.461,-4.4675,-4.477,-4.4814,-4.4917,-4.5053,-4.5095,-4.5181,-4.5256,-4.5256,-4.5286,-4.5307,0.0,0.0,0.0,0.0,0.0,0.0,0.0,0.0,0.0,0.0,0.0,0.0,0.0,0.0,0.0,0.0,0.0,0.0,-1.8284,-1.9837,-2.1072,-2.1809,-2.1926,-2.261,-2.4011,-2.4128,-2.4862,-2.6266,-2.6914,-2.7408,-2.7715,-2.8026,-2.7948,-2.7555,-2.7437,-2.7192,-2.6788,-2.6251,-2.5529,-2.4716,-2.4146,-2.3619,-2.306,-2.1972,-2.1661,-2.176,-2.131,-2.1215,-2.1212,-2.0687,-2.1114,-2.1874,-2.1924,-2.4431,-2.7478,-2.7943,-3.0211,-3.3125,-3.5554,-3.6783,-3.8048,-4.0769,-4.1421,-4.1385,-4.1423,-4.1409,-4.0744,-3.8417,-3.7963,-3.7505,-3.5933,-3.6347,-3.7449,-3.9044,-3.9967,-4.1325,-4.3751,-4.3425,-4.3263,0.0,0.0,0.0,0.0,0.0,0.0,-4.3063,0.0,-4.4512,-4.5327,-4.6124,-4.692,-4.7681,-4.807,-4.8267,-4.8267,-4.7792,-4.7132,-4.6337,-4.6298,-4.5853,-4.509,-4.509,-4.466,-4.3896,-4.3896,-4.3943,-4.4016,-4.4129,-4.4346,-4.4591,-4.4713,-4.4919,-4.514,-4.514,-4.5192,-4.5246,0.0,0.0,0.0,0.0,0.0,0.0,0.0,0.0,0.0,0.0,0.0,0.0,0.0,0.0,0.0,0.0,0.0,0.0,-1.817,-1.8561,-1.9097,-1.989,-2.0816,-2.1501,-2.1891,-2.3145,-2.4017,-2.4379,-2.4813,-2.5063,-2.5145,-2.4973,-2.513,-2.5515,-2.4879,-2.4583,-2.4504,-2.3958,-2.3979,-2.4249,-2.3066,-2.3242,-2.4084,-2.2792,-2.2205,-2.201,-2.1886,-2.1649,-2.1436,-2.1825,-2.2916,-2.4198,-2.486,-2.6667,-2.8803,-3.0068,-3.261,-3.5418,-3.7249,-3.8898,-4.0446,-4.1857,-4.1773,-4.1363,-4.1499,-4.0148,-3.8527,-3.7472,-3.6097,-3.4782,-3.3829,-3.4794,-3.6265,-3.7864,-3.9463,0.0,-4.3751,-4.3914,0.0,-4.4892,-4.4983,-4.491,-4.4711,-4.4874,0.0,0.0,-4.4874,-4.5345,-4.616,-4.6975,-4.75,-4.7678,-4.7804,-4.7866,-4.7866,-4.713,-4.6796,-4.682,-4.6194,-4.5635,-4.509,-4.509,-4.466,-4.3896,-4.3896,-4.3943,-4.3998,-4.4031,-4.4121,-4.4233,-4.4266,-4.4323,-4.4387,-4.4479,-4.4538,-4.4591,0.0,0.0,0.0,0.0,0.0,0.0,0.0,0.0,0.0,0.0,0.0,0.0,0.0,0.0,0.0,0.0,0.0,0.0,0.0,-1.7704,-1.8098,-1.8903,-1.9281,-1.9792,-2.0473,-2.1719,-2.2403,-2.2435,-2.3503,-2.3769,-2.3342,-2.3605,-2.3863,-2.405,-2.3708,-2.3486,-2.3318,-2.2937,-2.2972,0.0,0.0,-2.2362,-2.3144,-2.2265,-2.1812,-2.1663,-2.1729,-2.2215,-2.2981,-2.3733,-2.487,-2.6099,-2.6914,-2.8765,-3.0934,-3.2542,-3.4938,-3.7431,-3.9082,-4.0562,-4.1754,-4.2279,-4.1797,-4.0958,-3.9979,-3.842,-3.6665,-3.4872,-3.3599,-3.2613,-3.1972,-3.3162,-3.4927,-3.7035,-3.8867,-4.1107,-4.4186,-4.4313,-4.453,-4.5689,-4.5834,-4.5689,-4.5327,-4.5617,-4.5834,0.0,-4.5834,-4.6015,-4.6486,-4.7265,-4.7717,-4.7717,-4.7717,-4.7717,-4.7717,-4.7265,-4.7114,-4.7299,-4.6843,-4.6302,-4.57,-4.535,-4.4744,-4.3972,0.0,-4.349,-4.3505,-4.3575,-4.3689,-4.3796,-4.3862,-4.3955,-4.4058,-4.4136,-4.4213,-4.4318,0.0,0.0,0.0,0.0,0.0,0.0,0.0,0.0,0.0,0.0,0.0,0.0,0.0,0.0,0.0,0.0,0.0,0.0,0.0,0.0,-1.7621,-1.8331,-1.777,-1.807,-1.9412,-2.0138,-2.0579,-2.0749,-2.2531,-2.2981,-2.2166,-2.3063,-2.3239,-2.2881,-2.3053,-2.2948,-2.2611,-2.2449,-2.2195,-2.1891,-2.1487,-2.1379,-2.1424,0.0,0.0,-2.1151,-2.1246,-2.2638,-2.4563,-2.5571,-2.6704,-2.786,-2.8707,-3.0804,-3.3305,-3.5125,-3.7105,-3.9073,-4.0783,-4.1711,-4.2169,-4.2083,-4.135,-4.0024,-3.771,-3.6396,-3.4801,-3.1764,-3.0995,-3.0727,-3.0163,-3.15,-3.357,-3.6269,-3.8231,-4.0745,-4.4603,-4.4621,-4.482,-4.6323,-4.6595,-4.6395,-4.5689,-4.625,-4.6667,-4.6667,-4.6667,-4.6667,-4.6667,-4.7319,-4.7717,-4.7717,-4.7717,-4.7717,-4.7717,-4.7717,-4.7717,-4.7717,-4.7717,-4.7283,-4.6468,-4.5671,-4.4856,-4.4059,0.0,0.0,-4.2919,-4.303,-4.3178,-4.3355,-4.346,-4.3642,-4.3862,-4.3878,-4.3989,-4.4143,0.0,0.0,0.0,0.0,0.0,0.0,0.0,0.0,0.0,0.0,-1.6731,-1.6738,0.0,0.0,0.0,0.0,0.0,0.0,0.0,0.0,0.0,-1.7094,-1.746,-1.7773,-1.8041,-1.904,-1.9845,-2.0464,-2.1044,-2.1545,-2.1948,-2.179,-2.1681,-2.1601,-2.1373,-2.1241,-2.1158,-2.1124,-2.109,-2.1024,-2.0948,-2.1017,-2.1166,0.0,0.0,0.0,-2.1293,-2.1972,-2.3177,-2.5227,-2.7671,-3.0112,-3.152,-3.2983,-3.4697,-3.7253,-3.8564,-3.961,-4.1558,-4.1874,-4.1507,-4.1022,-3.9536,-3.7819,-3.6338,-3.4336,-3.2354,-3.0645,-2.951,-2.8605,-2.7889,-2.9862,-3.2359,-3.48,-3.7558,-4.0546,-4.3842,-4.4765,-4.5436,-4.6395,-4.7102,-4.7446,-4.7301,-4.7428,0.0,0.0,0.0,-4.75,-4.75,-4.7606,-4.7717,-4.7717,-4.7717,-4.7717,-4.7717,-4.7717,-4.7717,-4.7717,-4.7717,-4.7283,-4.6468,-4.5671,-4.4856,-4.4059,-4.3244,0.0,-4.2901,-4.2938,-4.2957,-4.2995,-4.3013,-4.305,-4.3087,-4.3214,-4.3286,-4.3357,0.0,0.0,0.0,0.0,0.0,0.0,0.0,-1.586,-1.6569,-1.7462,-1.7643,-1.7601,-1.7399,-1.6844,-1.6572,0.0,0.0,0.0,0.0,0.0,0.0,0.0,-1.7196,-1.7457,-1.7497,-1.9093,-1.9715,-1.9306,0.0,-2.1511,-2.1118,-2.1347,-2.1403,-2.1293,-2.1103,-2.099,-2.0942,-2.0844,-2.0794,-2.0811,-2.0909,-2.1006,0.0,0.0,0.0,0.0,-2.1293,-2.2102,-2.339,-2.485,-2.7111,-2.9757,-3.1984,-3.3623,-3.5165,-3.7507,-3.8625,-3.9444,-4.1063,-4.1333,-4.0965,-4.0289,-3.8799,-3.6911,-3.4651,-3.2621,-3.0663,-2.8728,-2.7875,-2.74,-2.7234,-2.909,-3.1375,-3.3468,-3.5905,-3.8771,-4.2357,-4.319,-4.4204,-4.6269,-4.6848,-4.7246,-4.7663,-4.7717,-4.7717,-4.7717,0.0,-4.7717,-4.7717,-4.7717,-4.7717,-4.7717,-4.7717,-4.7717,-4.7717,-4.7717,-4.7717,-4.7717,-4.7717,-4.7518,-4.7083,-4.5852,-4.5091,-4.4657,-4.3425,0.0,-4.2901,-4.2901,-4.2901,-4.2901,-4.2901,-4.2901,-4.2919,-4.2975,-4.303,-4.3141,0.0,0.0,0.0,0.0,0.0,0.0,0.0,-1.6763,-1.7515,-1.8361,-1.8424,-1.8372,-1.829,-1.7341,-1.6812,0.0,0.0,0.0,0.0,0.0,0.0,0.0,0.0,-1.7276,-1.7407,0.0,0.0,-1.8692,-2.0942,0.0,0.0,0.0,0.0,0.0,-2.1309,-2.123,-2.1151,-2.1006,-2.0925,0.0,0.0,-2.1279,0.0,0.0,0.0,0.0,0.0,-2.2394,-2.3637,-2.4325,-2.5943,-2.8158,-3.0912,-3.2878,-3.4585,-3.6527,-3.775,-3.8761,-4.0184,-4.061,-4.0394,-3.9514,-3.8071,-3.6075,-3.2997,-3.098,-2.9189,-2.7131,-2.6573,-2.6588,-2.7019,-2.8543,-3.0381,-3.2353,-3.4302,-3.6923,-4.0781,-4.1593,-4.2836,-4.5686,-4.6272,0.0,-4.7378,-4.7533,0.0,-4.7615,0.0,0.0,-4.7717,-4.7717,-4.7717,-4.7717,-4.7717,-4.7717,-4.7717,-4.7717,-4.7717,-4.7717,-4.7717,-4.7717,-4.7663,-4.6033,-4.5291,-4.52,-4.3588,0.0,0.0,-4.2901,-4.2901,-4.2901,-4.2901,-4.2901,-4.2901,-4.2901,-4.2975,-4.3049,0.0,0.0,0.0,0.0,0.0,0.0,0.0,-1.6763,-1.7714,-1.9185,-1.8591,-1.8254,-1.8775,-1.8197,-1.7511,0.0,0.0,0.0,0.0,0.0,0.0,0.0,0.0,0.0,0.0,0.0,0.0,-1.9925,-2.02,0.0,0.0,0.0,0.0,0.0,0.0,-2.1496,-2.1371,-2.1355,0.0,0.0,0.0,0.0,0.0,0.0,0.0,0.0,0.0,-2.2443,-2.2736,-2.3521,-2.4459,-2.5716,-2.8075,-3.0228,-3.2287,-3.431,-3.5898,-3.7392,-3.9279,-3.9918,-3.9739,-3.833,-3.6538,-3.4405,-3.1625,-2.9319,-2.7545,-2.6843,-2.6167,-2.5913,-2.6623,-2.7738,-2.9295,-3.1619,-3.3564,-3.6059,-3.9654,-4.1276,-4.2653,-4.4298,0.0,0.0,-4.6589,-4.7062,-4.7341,0.0,0.0,0.0,-4.7678,-4.7717,-4.7717,-4.7717,-4.7717,-4.7717,-4.7717,-4.7717,-4.7717,-4.7717,-4.7717,-4.7717,-4.7663,-4.6033,-4.5291,-4.52,-4.3588,0.0,0.0,-4.2901,-4.2901,-4.2901,-4.2901,-4.2901,-4.2901,-4.2901,-4.2919,-4.2938,0.0,0.0,0.0,0.0,0.0,0.0,-1.61,-1.6763,-1.776,-1.931,-1.9137,-1.9061,-1.9507,-1.8944,-1.8093,-1.7075,0.0,0.0,0.0,0.0,0.0,0.0,0.0,0.0,0.0,0.0,-1.933,-2.081,-2.0826,0.0,0.0,0.0,0.0,0.0,0.0,-2.1556,-2.1402,-2.1402,0.0,0.0,0.0,0.0,0.0,0.0,0.0,0.0,0.0,0.0,-2.3161,-2.3162,-2.3654,-2.438,-2.4927,-2.6584,-2.9006,-3.2465,-3.418,-3.5442,-3.7545,-3.8522,-3.868,-3.7628,-3.613,-3.4167,-3.1441,-2.9426,-2.7876,-2.6911,-2.6471,-2.6353,-2.664,-2.7244,-2.828,-3.0145,-3.1254,-3.3036,-3.6342,-3.7667,-3.9373,-4.2212,-4.3385,-4.4511,0.0,0.0,-4.6334,0.0,0.0,0.0,-4.6976,-4.7363,-4.7593,-4.7593,-4.7593,-4.7615,-4.7717,-4.7717,-4.7717,-4.7678,-4.721,-4.6993,-4.692,-4.5309,-4.4584,-4.4512,-4.339,0.0,0.0,-4.2901,-4.2901,-4.2901,-4.2901,-4.2901,-4.2901,-4.2901,-4.2901,-4.2919,0.0,0.0,0.0,0.0,0.0,-1.5193,-1.607,-1.6806,-1.7743,-1.9092,-1.9202,-1.9311,-1.9709,-1.9024,-1.8237,-1.7484,-1.7234,0.0,0.0,0.0,0.0,0.0,0.0,0.0,0.0,0.0,-1.9996,-2.1488,-2.1488,-2.2054,0.0,0.0,-2.2068,-2.1977,0.0,0.0,0.0,0.0,0.0,0.0,0.0,0.0,0.0,0.0,0.0,0.0,0.0,0.0,0.0,0.0,0.0,-2.3737,-2.3107,-2.4116,-2.6319,-3.0282,-3.2404,-3.3905,-3.5909,-3.7152,-3.7715,-3.697,-3.5678,-3.3902,-3.135,-2.9471,-2.7957,-2.6893,-2.6505,-2.6421,-2.6657,-2.6891,-2.7465,-2.8802,-2.954,-3.1011,-3.4032,-3.5269,-3.707,-4.0318,0.0,-4.274,0.0,-4.5234,0.0,0.0,0.0,0.0,0.0,-4.6637,-4.7062,-4.7428,-4.7428,-4.749,-4.7593,-4.7615,-4.7509,-4.7274,-4.6755,-4.6357,-4.6083,-4.4708,-4.4055,-4.3981,0.0,0.0,0.0,-4.2882,-4.2901,-4.2901,-4.2901,-4.2901,-4.2901,-4.2901,-4.2901,-4.2901,0.0,0.0,0.0,0.0,0.0,0.0,-1.6008,-1.6891,-1.7718,-1.86,-1.8545,-1.8604,-1.9159,-1.8305,-1.7848,-1.8156,-1.7577,0.0,0.0,0.0,0.0,0.0,0.0,0.0,0.0,0.0,-2.0431,-2.1889,-2.1889,-2.2616,-2.3967,-2.3222,-2.2891,-2.2857,0.0,0.0,0.0,0.0,0.0,0.0,0.0,0.0,0.0,0.0,0.0,0.0,0.0,0.0,0.0,0.0,0.0,0.0,0.0,-2.3421,-2.4613,-2.7564,-3.0481,-3.305,-3.4518,-3.5992,-3.6936,-3.6208,-3.4899,-3.3265,-3.1178,-2.899,-2.7266,-2.6706,-2.6017,-2.5764,-2.6539,-2.6708,-2.6945,-2.7689,-2.9003,-3.0842,-3.3513,-3.5101,-3.6783,0.0,0.0,-4.1371,-4.2249,-4.4154,0.0,0.0,0.0,0.0,0.0,-4.5459,-4.6074,-4.7258,-4.7302,-4.7302,-4.7302,-4.7446,-4.7114,-4.632,-4.6442,-4.6044,-4.5183,-4.4373,-4.3915,0.0,0.0,0.0,0.0,-4.2862,-4.2901,-4.2901,-4.2901,-4.2901,-4.2901,-4.2901,-4.2901,-4.2901,0.0,0.0,0.0,0.0,0.0,0.0,0.0,-1.6405,-1.6845,-1.8001,-1.794,-1.8158,-1.9095,-1.8949,-1.8834,-1.893,-1.7922,0.0,0.0,0.0,0.0,0.0,0.0,0.0,0.0,0.0,-2.0373,-2.2574,-2.2079,-2.2824,-2.4746,-2.4,-2.3356,-2.2812,-2.2612,-2.2186,0.0,0.0,0.0,0.0,0.0,0.0,0.0,0.0,0.0,0.0,0.0,0.0,0.0,0.0,0.0,0.0,0.0,0.0,0.0,-2.4961,-2.7116,-2.9437,-3.1371,-3.2591,-3.327,-3.3038,-3.226,-3.1144,-2.957,-2.8258,-2.7231,-2.6653,-2.6352,-2.6269,-2.6521,-2.6572,-2.7126,-2.882,-2.9453,-3.0586,-3.2955,-3.4536,0.0,-3.7617,-4.0301,-4.2311,0.0,0.0,0.0,0.0,0.0,0.0,0.0,-4.4397,-4.5058,-4.6032,-4.643,-4.666,-4.6753,-4.6649,-4.6485,-4.6233,-4.5155,-4.4507,-4.4234,-4.3424,0.0,0.0,0.0,0.0,0.0,-4.2785,-4.2823,-4.2841,-4.2881,-4.2901,-4.2901,-4.2901,-4.2901,-4.2901,0.0,0.0,0.0,0.0,0.0,0.0,0.0,-1.6342,-1.6591,-1.7383,-1.7409,-1.772,-1.8688,-1.8838,-1.9009,-1.927,-1.8568,0.0,0.0,0.0,0.0,0.0,0.0,0.0,0.0,-1.9293,-2.0782,-2.2893,-2.2856,-2.3771,-2.549,-2.4993,-2.4364,-2.3638,-2.3044,-2.2518,0.0,0.0,0.0,0.0,0.0,0.0,0.0,0.0,0.0,0.0,0.0,0.0,0.0,0.0,0.0,0.0,0.0,0.0,0.0,0.0,-2.4547,-2.6238,-2.8969,-3.0423,-3.1184,-3.1184,-3.0621,-2.9798,-2.8716,-2.7888,-2.7176,-2.6549,-2.6416,-2.6434,-2.6485,-2.6502,-2.6937,-2.8293,-2.8906,-2.9922,-3.1854,-3.3629,0.0,-3.7411,0.0,0.0,0.0,0.0,0.0,0.0,0.0,0.0,0.0,-4.2939,-4.3384,-4.3941,-4.4703,-4.5124,-4.5238,-4.5133,-4.496,-4.464,-4.3685,-4.3166,-4.2986,-4.2486,0.0,0.0,0.0,0.0,0.0,-4.2472,-4.2552,-4.2707,-4.2573,-4.2614,-4.2786,-4.2786,-4.2824,-4.2862,0.0,0.0,0.0,0.0,0.0,0.0,0.0,-1.662,-1.6776,-1.6815,-1.6962,-1.7313,-1.7957,-1.8188,-1.854,-1.9237,0.0,0.0,0.0,0.0,0.0,0.0,0.0,0.0,0.0,-1.9969,-2.1539,-2.2929,-2.4103,-2.5222,-2.6268,-2.6195,-2.5799,-2.511,-2.3473,-2.2768,0.0,0.0,0.0,0.0,0.0,0.0,0.0,0.0,0.0,0.0,0.0,0.0,0.0,0.0,0.0,0.0,0.0,0.0,0.0,0.0,0.0,0.0,0.0,-2.9003,-3.0042,-3.0042,-2.9512,-2.8853,-2.8243,-2.7564,0.0,-2.6328,-2.6212,-2.6296,-2.6585,-2.6551,-2.6551,-2.6819,-2.7864,-2.917,-3.0717,-3.2835,0.0,0.0,-3.9634,0.0,0.0,0.0,0.0,0.0,0.0,0.0,0.0,-4.1342,-4.1309,-4.1259,-4.2286,-4.2906,-4.3034,-4.3155,-4.2847,-4.2087,-4.216,-4.2002,-4.1644,-4.1644,0.0,0.0,0.0,0.0,0.0,-4.2086,-4.221,-4.255,-4.2089,-4.2169,-4.2532,-4.2532,-4.2629,-4.2745,0.0,0.0,0.0,0.0,0.0,0.0,0.0,0.0,0.0,0.0,-1.6847,-1.6885,-1.7297,-1.8364,-1.9107,0.0,0.0,0.0,0.0,0.0,0.0,0.0,0.0,0.0,0.0,-2.0556,-2.1909,-2.3362,-2.4713,-2.5926,-2.705,-2.7481,-2.7034,-2.5818,-2.4755,0.0,0.0,0.0,0.0,0.0,0.0,0.0,0.0,0.0,0.0,0.0,-2.2309,-2.2189,0.0,0.0,0.0,0.0,0.0,0.0,0.0,0.0,-2.246,-2.3089,-2.3967,0.0,-2.5541,-2.5541,-2.5408,-2.5226,0.0,-2.4895,-2.4895,-2.531,-2.5376,-2.5907,-2.7636,-2.7038,-2.717,-2.9958,-3.0203,-3.0746,-3.2768,-3.498,0.0,-3.964,-4.0194,-4.0647,0.0,0.0,0.0,0.0,0.0,0.0,0.0,-4.0658,-4.0393,-3.9829,-4.0047,-4.092,-4.2482,-4.2376,-4.2192,-4.202,-4.1415,-4.1099,-4.1013,-4.1013,0.0,0.0,0.0,0.0,-4.2346,-4.2346,-4.2425,-4.2486,-4.2047,-4.1984,-4.2068,-4.2068,-4.2089,-4.2172,0.0,0.0,0.0,0.0,0.0,0.0,0.0,0.0,0.0,0.0,0.0,0.0,0.0,0.0,0.0,0.0,0.0,0.0,0.0,0.0,0.0,0.0,0.0,0.0,-1.9467,-2.0825,-2.2155,-2.3414,-2.5399,-2.6665,-2.7224,-2.7852,-2.7586,-2.649,-2.4948,0.0,0.0,0.0,0.0,0.0,0.0,0.0,0.0,0.0,0.0,0.0,-2.1782,-2.1694,0.0,-2.2992,-2.3157,-2.2957,0.0,0.0,0.0,0.0,-2.2094,-2.2409,-2.2409,-2.3669,-2.5011,-2.5011,-2.5011,-2.5011,-2.5011,-2.4497,-2.4116,-2.4514,-2.4862,-2.5574,-2.7098,-2.728,-2.7959,-3.0208,-3.082,-3.1896,0.0,0.0,-3.8179,-3.9713,-4.0194,0.0,0.0,0.0,0.0,0.0,0.0,0.0,0.0,-3.9912,-3.9713,-3.9315,-3.9299,-3.9824,-4.0913,-4.0823,-4.0773,-4.0773,-4.0324,-4.022,-4.0424,-4.0424,-4.0713,0.0,0.0,0.0,-4.192,-4.1788,-4.1998,-4.2366,-4.1899,-4.1878,-4.2086,-4.2086,-4.2107,-4.2207,0.0,0.0,0.0,0.0,0.0,0.0,0.0,0.0,0.0,0.0,0.0,0.0,0.0,0.0,0.0,0.0,0.0,0.0,0.0,0.0,0.0,0.0,0.0,-1.939,-1.9583,-2.1199,-2.2524,-2.3526,-2.61,-2.7297,-2.7257,-2.7878,-2.7655,-2.6586,-2.4389,-2.2953,0.0,0.0,0.0,0.0,0.0,0.0,0.0,0.0,0.0,0.0,0.0,0.0,0.0,-2.3223,-2.3305,-2.2974,-2.3487,0.0,0.0,0.0,0.0,0.0,-2.2077,-2.4116,-2.6119,-2.5772,-2.5871,-2.5987,-2.5887,-2.4911,-2.4033,-2.4149,-2.4679,-2.5424,-2.6483,-2.7628,-2.8774,-2.9897,-3.13,0.0,-3.5959,-3.7417,-3.8477,-3.9216,-3.9862,0.0,0.0,0.0,0.0,0.0,0.0,0.0,0.0,-3.9299,-3.9299,-3.9299,-3.9299,-3.9299,-3.9299,-3.9299,-3.9299,-3.9299,-3.9299,-3.9504,-3.9893,-3.9893,-4.0178,0.0,0.0,0.0,-4.1361,-4.0949,-4.1311,-4.2023,-4.1472,-4.1556,-4.1959,-4.2023,-4.2124,-4.2282,0.0,0.0,0.0,0.0,0.0,0.0,0.0,0.0,0.0,0.0,0.0,0.0,0.0,0.0,0.0,0.0,0.0,0.0,0.0,0.0,0.0,0.0,-2.0686,-2.0806,-2.139,-2.2492,-2.3593,-2.4655,-2.6549,-2.7603,-2.7879,-2.8363,-2.7227,-2.4683,-2.3226,-2.2493,-2.2381,0.0,0.0,0.0,0.0,0.0,0.0,0.0,0.0,0.0,0.0,0.0,0.0,-2.1973,-2.2384,-2.2731,-2.2219,0.0,0.0,0.0,0.0,0.0,-2.3321,-2.4894,-2.5739,-2.3868,-2.4348,-2.511,-2.4481,-2.4166,-2.4183,-2.4812,-2.5027,-2.5889,-2.8437,-2.8622,-2.9437,-3.2597,-3.4352,-3.5926,0.0,0.0,-3.8477,-3.9216,0.0,0.0,0.0,0.0,0.0,0.0,0.0,0.0,0.0,-3.9299,-3.9299,-3.9299,-3.9299,-3.9299,-3.9299,-3.9299,-3.9299,-3.9299,-3.9299,-3.9352,-3.9415,-3.9415,-3.967,0.0,0.0,-4.0424,-4.0896,-4.0825,-4.0896,-4.099,-4.0431,-4.0285,-4.0407,-4.0855,-4.1036,-4.1197,0.0,0.0,0.0,0.0,0.0,0.0,0.0,0.0,0.0,0.0,0.0,0.0,0.0,0.0,0.0,0.0,0.0,0.0,0.0,0.0,0.0,-2.1762,-2.1648,-2.1742,-2.2113,-2.3291,-2.4407,-2.5427,-2.7122,-2.7987,-2.8093,-2.7699,-2.5954,-2.3128,-2.2536,-2.2217,-2.2083,0.0,0.0,0.0,0.0,0.0,0.0,0.0,0.0,0.0,0.0,0.0,0.0,0.0,-2.2311,-2.27,-2.2101,0.0,0.0,0.0,0.0,0.0,-2.231,-2.3983,-2.5289,-2.3945,-2.5507,-2.7267,-2.6846,-2.6191,-2.5767,-2.6114,-2.6234,-2.6781,-2.8461,-2.9509,-3.1205,-3.4452,0.0,-3.7331,-3.8008,-3.8395,-3.8758,0.0,0.0,0.0,0.0,0.0,0.0,0.0,0.0,0.0,0.0,0.0,-3.9218,-3.904,-3.9218,-3.9245,-3.9148,-3.9245,-3.9299,-3.9299,-3.9299,-3.9299,-3.9299,-3.9299,-3.9415,-3.9618,0.0,-3.991,-4.0375,-4.0375,-4.0538,-4.0778,-4.0538,-4.0424,-4.0497,-4.0995,-4.118,-4.1311,0.0,0.0,0.0,0.0,0.0,0.0,0.0,0.0,0.0,0.0,0.0,0.0,0.0,0.0,0.0,0.0,0.0,0.0,0.0,0.0,-2.1295,-2.2102,-2.2165,-2.239,-2.2848,-2.4075,-2.5098,-2.5924,-2.7385,-2.7955,-2.767,-2.6576,-2.4673,-2.2141,-2.1994,-2.1797,-2.163,-2.1952,-2.2616,0.0,0.0,0.0,0.0,0.0,0.0,0.0,0.0,0.0,0.0,0.0,0.0,0.0,0.0,0.0,0.0,-2.1844,-2.1602,-2.1529,-2.1569,-2.3011,-2.448,-2.4356,-2.6454,-2.8688,-2.9202,-2.8276,-2.7501,-2.8191,-2.827,-2.8425,-2.905,-3.1001,-3.3327,-3.5762,-3.7303,-3.8179,-3.8179,-3.864,0.0,0.0,0.0,0.0,0.0,0.0,0.0,0.0,0.0,0.0,0.0,0.0,-3.9067,-3.8805,-3.904,-3.9121,-3.8942,-3.9094,-3.9218,-3.9299,-3.9299,-3.9299,-3.9299,-3.9299,-3.9299,-3.9299,-3.9299,-3.9504,-3.9842,-3.9842,-4.007,-4.0441,-4.0441,-4.0514,-4.0666,-4.1157,-4.1423,-4.16,0.0,0.0,0.0,0.0,0.0,0.0,0.0,0.0,0.0,0.0,0.0,0.0,0.0,0.0,0.0,0.0,0.0,0.0,0.0,0.0,-2.0553,-2.1591,-2.194,-2.2772,-2.4234,-2.5135,-2.5731,-2.5977,-2.6976,-2.7022,-2.6139,-2.5255,-2.3821,-2.1995,-2.1368,-2.1085,-2.1105,-2.1535,-2.2059,-2.2581,0.0,0.0,0.0,0.0,0.0,0.0,0.0,0.0,0.0,0.0,0.0,0.0,0.0,0.0,-2.167,-2.1621,-2.134,-2.1343,-2.2675,-2.2913,-2.3088,-2.4351,-2.5502,-2.6982,-2.9464,-2.8956,-2.8698,-3.1356,-3.1389,-3.1127,-3.1863,-3.3825,-3.5603,-3.6514,-3.7832,-3.8723,-3.8723,0.0,0.0,0.0,0.0,0.0,0.0,0.0,0.0,0.0,0.0,0.0,0.0,0.0,0.0,-3.8805,-3.8832,-3.8832,-3.8805,-3.8832,-3.8969,-3.9299,-3.9299,-3.9299,-3.9299,-3.9299,-3.9299,-3.9299,-3.9299,-3.9325,-3.9352,-3.9352,-3.9362,-3.9405,-3.9405,-3.967,-4.0128,-4.0642,-4.1128,-4.1578,0.0,0.0,0.0,0.0,0.0,0.0,0.0,0.0,0.0,0.0,0.0,0.0,0.0,0.0,0.0,0.0,0.0,0.0,0.0,0.0,-2.0701,-2.1556,-2.2086,-2.2747,-2.3572,-2.4676,-2.5393,-2.5696,-2.6098,-2.5734,-2.4699,-2.4367,-2.3398,-2.1989,-2.1728,-2.1612,-2.1619,-2.1383,-2.1615,-2.2108,-2.1232,0.0,0.0,0.0,0.0,0.0,0.0,0.0,0.0,0.0,-1.9248,-2.0194,-1.9694,-2.0431,-2.1402,-2.0926,-2.0861,-2.0972,-2.1052,-2.2366,-2.3685,-2.3564,-2.4849,-2.6899,-2.965,-3.0788,-3.1805,-3.3803,-3.3364,-3.2731,-3.2997,-3.406,-3.5311,-3.6509,-3.7807,-3.8699,0.0,0.0,0.0,0.0,0.0,0.0,0.0,0.0,0.0,0.0,0.0,0.0,0.0,0.0,0.0,-3.856,-3.8694,-3.875,-3.8699,-3.875,-3.886,-3.8985,-3.8985,-3.8985,-3.8969,-3.9067,-3.9067,-3.9013,-3.9218,-3.9245,-3.9121,-3.9245,-3.9299,-3.9299,-3.9299,-3.9415,-3.9618,-4.012,-4.0407,-4.0648,0.0,0.0,0.0,0.0,0.0,0.0,0.0,0.0,0.0,0.0,0.0,0.0,0.0,0.0,0.0,0.0,0.0,0.0,0.0,-1.9178,-2.0188,-2.1152,-2.1681,-2.2128,-2.2481,-2.3465,-2.4264,-2.49,-2.4995,-2.4675,-2.3891,-2.3688,-2.302,-2.1989,-2.1772,-2.1801,-2.1931,-2.1075,-2.1206,-2.1888,-2.0611,-2.0308,0.0,0.0,0.0,0.0,0.0,0.0,0.0,0.0,-1.8158,-1.917,-1.8802,-1.9632,-2.0687,-2.0369,-2.0519,-2.0688,-2.0194,-2.1644,-2.3248,-2.2894,-2.443,-2.6803,-2.9784,-3.1383,-3.2846,-3.4958,-3.4535,-3.384,-3.4038,-3.4446,-3.5262,0.0,-3.7834,-3.8532,0.0,0.0,0.0,0.0,0.0,0.0,0.0,0.0,0.0,0.0,0.0,0.0,0.0,0.0,0.0,0.0,-3.8572,-3.8628,-3.8532,-3.8628,-3.8667,-3.8667,-3.8667,-3.8722,-3.8805,-3.8887,-3.8887,-3.8805,-3.904,-3.9067,-3.8942,-3.9094,-3.9175,-3.9218,-3.9218,-3.9228,-3.9352,-3.9817,-4.0003,-4.0078,0.0,0.0,0.0,0.0,0.0,0.0,0.0,0.0,0.0,0.0,0.0,0.0,0.0,0.0,0.0,0.0,0.0,0.0,-1.8051,-1.8087,-1.875,-2.0224,-2.0607,-2.0908,-2.1185,-2.1519,-2.2298,-2.358,-2.3772,-2.3876,-2.3871,-2.32,-2.2577,-2.196,-2.1307,-2.1365,-2.1902,-2.064,-2.0828,-2.1873,-2.0596,-2.0294,0.0,0.0,0.0,0.0,0.0,0.0,0.0,0.0,-1.6892,-1.79,-1.8498,-1.8961,-1.9412,-2.0023,-2.0379,-2.0605,-2.059,-2.0808,-2.1322,-2.2569,-2.4286,-2.6501,-2.9838,-3.0388,-3.1209,-3.4691,-3.4876,-3.4589,-3.5191,-3.5347,0.0,-3.7056,-3.7894,0.0,0.0,0.0,0.0,0.0,0.0,0.0,0.0,0.0,0.0,0.0,0.0,0.0,0.0,0.0,0.0,0.0,-3.8391,-3.8391,-3.8391,-3.8391,-3.8391,-3.8391,-3.8391,-3.856,-3.8805,-3.8805,-3.8805,-3.8805,-3.8805,-3.8805,-3.8805,-3.8805,-3.8887,-3.8996,-3.8996,-3.9121,-3.9335,-3.9817,-4.0003,-4.0078,0.0,0.0,0.0,0.0,0.0,0.0,0.0,0.0,0.0,0.0,0.0,0.0,0.0,0.0,0.0,0.0,0.0,0.0,-1.7454,-1.7685,-1.8217,-1.914,-1.9547,-1.9873,-2.014,-2.0438,-2.0979,-2.1764,-2.2287,-2.2323,-2.1859,-2.2047,-2.1831,-2.1307,-2.1377,-2.1369,-2.1235,-2.0347,-2.0177,-2.0472,-1.9706,-1.9425,0.0,0.0,0.0,0.0,0.0,0.0,0.0,0.0,0.0,0.0,-1.7526,-1.8712,-1.9877,-1.9528,-1.999,-2.0444,-1.974,-2.0925,-2.2432,-2.2801,-2.5354,-2.8155,-2.9562,-3.1172,-3.2951,-3.4969,-3.4876,-3.4439,-3.4561,-3.4653,0.0,-3.5755,-3.6527,0.0,0.0,0.0,0.0,0.0,0.0,0.0,0.0,0.0,0.0,0.0,0.0,0.0,0.0,0.0,0.0,0.0,-3.8391,-3.8391,-3.8391,-3.8391,-3.8391,-3.8391,-3.8391,-3.8448,-3.8532,-3.8616,-3.8616,-3.8516,-3.8722,-3.8766,-3.8672,-3.875,-3.8832,-3.886,-3.8969,-3.9023,-3.9104,-3.9398,-3.9504,-3.953,0.0,0.0,0.0,0.0,0.0,0.0,0.0,0.0,0.0,0.0,0.0,0.0,0.0,0.0,0.0,0.0,0.0,0.0,0.0,0.0,-1.768,-1.8658,-1.864,-1.8887,-1.9442,-1.987,-2.0146,-2.0248,-2.1148,-2.1373,-2.0955,-2.1599,-2.1643,-2.1261,-2.1542,-2.1542,-2.1238,-2.024,-1.9846,-1.9848,-1.9301,-1.9036,-1.894,0.0,0.0,0.0,0.0,0.0,0.0,0.0,0.0,0.0,-1.6635,-1.7602,-1.8661,-1.8928,-1.9647,-2.0328,-2.0443,-2.1945,-2.3673,-2.4437,-2.6767,-2.9232,-3.0707,-3.2254,-3.3696,-3.4759,-3.4505,-3.4169,-3.4661,-3.4562,0.0,-3.56,0.0,0.0,0.0,0.0,0.0,0.0,0.0,0.0,0.0,0.0,0.0,0.0,0.0,0.0,0.0,0.0,0.0,0.0,-3.8004,-3.8004,-3.8004,-3.8278,-3.8391,-3.8391,-3.8391,-3.8391,-3.8391,-3.8476,-3.8492,-3.8391,-3.8572,-3.8616,-3.8548,-3.86,-3.8683,-3.8738,-3.8821,-3.886,-3.8942,-3.9121,-3.9175,-3.9175,0.0,0.0,0.0,0.0,0.0,0.0,0.0,0.0,0.0,0.0,0.0,0.0,0.0,0.0,0.0,0.0,0.0,0.0,0.0,0.0,-1.7141,-1.8554,-1.8048,-1.8145,-1.9072,-1.9696,-1.9711,-1.9101,-2.032,-2.086,-2.0742,-2.1519,-2.1694,-2.1347,-2.1563,-2.1585,-2.1362,-2.0061,-1.9552,-1.9584,-1.9037,-1.8802,-1.8763,-1.826,0.0,0.0,0.0,0.0,0.0,0.0,0.0,0.0,-1.5894,-1.6175,-1.6613,-1.8313,-1.9329,-2.0257,-2.189,-2.3293,-2.4772,-2.6711,-2.8297,-3.0056,-3.2651,-3.3425,-3.3684,-3.4264,-3.3949,-3.3915,-3.5068,-3.4795,-3.4793,0.0,0.0,0.0,0.0,0.0,0.0,0.0,0.0,0.0,0.0,0.0,0.0,0.0,0.0,0.0,0.0,0.0,0.0,-3.7312,-3.7312,-3.7312,-3.7312,-3.796,-3.8307,0.0,-3.8363,-3.8391,-3.8391,-3.8391,-3.8391,-3.8391,-3.8391,-3.8391,-3.8391,-3.8391,-3.8476,-3.856,-3.8604,-3.8655,-3.8805,-3.8942,-3.8969,-3.8996,0.0,0.0,0.0,0.0,0.0,0.0,0.0,0.0,0.0,0.0,0.0,0.0,0.0,0.0,0.0,0.0,0.0,0.0,0.0,0.0,-1.65,-1.7865,-1.8466,-1.8885,-1.9101,-1.9246,-1.9246,-1.9101,-1.9899,-1.9985,-1.9425,-2.0487,-2.0431,-1.9441,-2.0302,-1.9961,-1.8698,-1.8295,-1.7878,-1.7459,-1.743,-1.7373,-1.726,-1.7265,-1.6838,0.0,0.0,0.0,0.0,0.0,0.0,0.0,-1.5816,-1.6391,-1.6996,-1.7852,-1.8927,-2.001,-2.0855,-2.2361,-2.4159,-2.6042,-2.8968,-3.18,-3.3393,-3.3785,-3.3896,-3.4113,-3.4061,-3.4057,-3.4322,-3.4403,-3.4493,0.0,0.0,0.0,0.0,0.0,0.0,0.0,0.0,0.0,0.0,0.0,0.0,0.0,0.0,0.0,0.0,0.0,0.0,-3.6615,-3.6615,-3.6615,-3.6615,-3.7282,-3.7623,0.0,-3.8148,-3.8391,-3.8391,-3.8391,-3.8391,-3.8391,-3.8391,-3.8391,-3.8391,-3.8391,-3.842,-3.8448,-3.856,-3.8616,-3.8672,-3.8777,-3.8832,-3.886,0.0,0.0,0.0,0.0,0.0,0.0,0.0,0.0,0.0,0.0,0.0,0.0,0.0,0.0,0.0,0.0,0.0,0.0,0.0,0.0,-1.6233,-1.7412,-1.825,-1.868,-1.868,-1.868,-1.8647,-1.8563,-1.891,-1.9031,-1.8917,-2.0133,-2.0279,-1.9608,-2.0521,-2.0097,-1.8698,-1.8252,-1.7588,-1.6806,-1.6889,-1.6858,-1.6781,-1.6581,-1.6284,-1.5909,-1.5592,0.0,0.0,0.0,0.0,0.0,0.0,0.0,-1.6213,-1.712,-1.8043,-1.9125,-2.0599,-2.2356,-2.4453,-2.7187,-2.9671,-3.1771,-3.3052,-3.3337,-3.3423,-3.3776,-3.3937,-3.4005,-3.4005,-3.4088,0.0,0.0,0.0,0.0,0.0,0.0,0.0,0.0,0.0,0.0,0.0,0.0,0.0,0.0,0.0,0.0,0.0,-3.5835,-3.5691,-3.5691,-3.5691,-3.5691,-3.5691,-3.6415,-3.6783,-3.6783,-3.7549,-3.8091,-3.8391,-3.8391,-3.8391,-3.8391,-3.8391,-3.8391,-3.8391,-3.8391,-3.8391,-3.8408,-3.8476,-3.8504,-3.8504,-3.8655,-3.8711,-3.8711,0.0,0.0,0.0,0.0,0.0,0.0,0.0,0.0,0.0,0.0,0.0,0.0,0.0,0.0,0.0,0.0,0.0,0.0,0.0,-1.6031,-1.6232,-1.708,-1.7696,-1.8027,-1.8027,-1.8024,-1.8017,-1.8,-1.7863,-1.8239,-1.9121,-2.0177,-2.0507,-2.0259,-2.1001,-2.0493,-1.9064,-1.8458,-1.7514,-1.6448,-1.6448,-1.6448,-1.6406,-1.5962,-1.5762,-1.5643,-1.5085,-1.4855,-1.4808,-1.4808,0.0,0.0,0.0,0.0,-1.5179,-1.6287,-1.7051,-1.8012,-2.0218,-2.2419,-2.495,-2.8549,-3.0006,-3.0924,-3.2198,-3.2495,-3.2665,-3.3287,-3.3638,-3.3862,-3.3862,0.0,0.0,0.0,0.0,0.0,0.0,0.0,0.0,0.0,0.0,0.0,0.0,0.0,0.0,0.0,0.0,0.0,-3.5471,-3.4993,-3.4725,-3.4725,-3.4725,-3.4725,-3.4725,-3.5516,-3.5883,-3.5915,-3.6722,-3.749,-3.8177,-3.8177,-3.8278,-3.8391,-3.8391,-3.8391,-3.8391,-3.8391,-3.8391,-3.8391,-3.8391,-3.8391,-3.8391,-3.8504,-3.8576,-3.8588,0.0,0.0,0.0,0.0,0.0,0.0,0.0,0.0,0.0,0.0,-1.612,-1.6409,-1.6583,-1.6636,0.0,0.0,0.0,0.0,-1.6203,0.0,0.0,-1.6753,-1.7129,-1.7345,-1.7345,-1.7277,-1.7502,-1.8,-1.7312,-1.8101,-2.0274,-2.0444,-2.0182,-1.9564,-2.0231,-1.9254,-1.7078,-1.699,-1.6216,-1.5063,-1.5063,-1.5063,-1.5049,-1.4994,-1.4936,-1.4952,-1.4852,-1.4808,-1.4808,-1.4808,-1.4808,0.0,0.0,0.0,-1.495,-1.5637,-1.6329,-1.7116,-1.8503,-2.1434,-2.4852,-2.8015,-2.931,-3.0098,-3.1349,-3.1645,-3.1814,-3.2446,-3.3133,-3.364,-3.364,0.0,0.0,0.0,0.0,0.0,0.0,0.0,0.0,0.0,0.0,0.0,0.0,0.0,0.0,0.0,0.0,0.0,-3.4162,-3.4074,-3.402,-3.402,-3.402,-3.402,-3.402,-3.4739,-3.5073,-3.5073,-3.571,-3.6461,-3.728,-3.728,-3.7695,-3.8391,-3.8391,-3.8391,-3.8391,-3.8391,-3.8391,-3.8391,-3.8391,-3.8391,-3.8391,-3.842,-3.8436,-3.842,0.0,0.0,0.0,0.0,0.0,0.0,0.0,0.0,0.0,0.0,0.0,-1.6009,-1.6246,-1.6326,0.0,0.0,0.0,0.0,-1.5923,-1.6053,0.0,0.0,-1.6553,-1.6615,-1.6579,-1.6548,-1.6608,-1.6778,-1.6454,-1.7715,-2.0436,-2.0436,-2.0809,-2.1468,-2.106,-2.0112,-1.8672,-1.7299,-1.6157,-1.527,-1.4949,-1.544,-1.6255,-1.5202,-1.5455,-1.6227,-1.5174,-1.4808,-1.4808,-1.4808,-1.4808,-1.4808,-1.4808,0.0,0.0,0.0,-1.5635,-1.6649,-1.8953,-2.1257,-2.3684,-2.6441,-2.786,-2.8914,-3.015,-3.0698,-3.1134,-3.1766,-3.2185,-3.2647,0.0,0.0,0.0,0.0,0.0,0.0,0.0,0.0,0.0,0.0,0.0,0.0,0.0,0.0,0.0,0.0,0.0,-3.357,-3.357,-3.357,-3.357,-3.357,-3.357,-3.357,-3.357,-3.3957,-3.4438,-3.4909,-3.5175,-3.5678,-3.6369,-3.6369,-3.71,-3.8391,-3.8391,-3.8307,-3.8132,-3.8335,-3.8307,-3.8132,-3.8335,-3.8391,-3.8391,-3.8391,-3.8391,-3.8391,0.0,0.0,0.0,0.0,0.0,0.0,0.0,0.0,0.0,0.0,0.0,0.0,-1.5982,0.0,0.0,0.0,0.0,0.0,-1.571,0.0,0.0,0.0,0.0,-1.5918,-1.5867,-1.5819,-1.5795,-1.5804,-1.5832,-1.7495,-2.0646,-2.0646,-2.1763,-2.3744,-2.2376,-2.1167,-2.0021,-1.8012,-1.6789,-1.614,-1.5677,-1.6354,-1.7506,-1.6578,-1.7098,-1.8068,-1.6199,-1.5511,-1.544,0.0,-1.4808,-1.4808,-1.4808,-1.4808,0.0,0.0,0.0,-1.6042,-1.8728,-2.033,-2.1847,-2.4334,-2.602,-2.7454,-2.883,-2.9617,-3.0291,0.0,-3.1246,-3.1569,0.0,0.0,0.0,0.0,0.0,0.0,0.0,0.0,0.0,0.0,0.0,0.0,0.0,0.0,0.0,0.0,0.0,-3.329,-3.329,-3.329,-3.329,-3.329,-3.329,-3.329,-3.329,-3.3466,-3.3854,-3.4491,-3.4491,-3.4846,-3.5503,-3.5503,-3.6307,-3.7754,-3.7886,-3.7886,-3.7799,-3.8046,-3.7988,-3.7799,-3.8148,-3.8262,-3.8262,-3.8363,-3.8391,-3.8391,0.0,0.0,0.0,0.0,0.0,0.0,0.0,0.0,0.0,0.0,0.0,0.0,0.0,0.0,0.0,0.0,0.0,0.0,0.0,0.0,0.0,0.0,0.0,0.0,-1.525,-1.5052,-1.5241,-1.5804,-1.5738,-1.7604,-2.1237,-2.1237,-2.2855,-2.5669,-2.3828,-2.167,-1.9424,-1.8694,-1.8049,-1.7506,-1.7464,-1.752,-1.7787,-1.9473,-2.0175,-2.0007,-1.8138,-1.745,0.0,0.0,0.0,-1.4808,-1.4808,-1.4808,-1.4808,0.0,0.0,0.0,-1.6526,-1.7773,-1.9284,-2.1786,-2.3783,-2.5639,-2.7482,-2.8352,-2.9125,-3.0319,-3.054,0.0,0.0,0.0,0.0,0.0,0.0,0.0,0.0,0.0,0.0,0.0,0.0,0.0,0.0,0.0,0.0,0.0,0.0,-3.329,-3.329,-3.329,-3.329,-3.329,-3.329,-3.329,-3.329,-3.3326,-3.3361,-3.3382,-3.3382,-3.3825,-3.4662,-3.4662,-3.5145,-3.5964,-3.6461,-3.6965,-3.7447,-3.7447,-3.7447,-3.7476,-3.7799,-3.7915,-3.7972,-3.8262,-3.8391,-3.8391,0.0,0.0,0.0,0.0,0.0,0.0,0.0,0.0,0.0,0.0,0.0,0.0,0.0,-1.5595,-1.5624,-1.5681,-1.605,0.0,0.0,0.0,0.0,0.0,0.0,0.0,0.0,-1.4948,-1.4969,-1.5163,-1.5131,-1.6635,-1.9501,-1.9501,-2.0745,-2.2939,-2.2658,-2.224,-2.1622,-1.9023,-1.8026,-1.8133,-1.7759,-1.8545,-1.9929,-1.9388,-2.0414,-2.1833,-1.9564,0.0,0.0,0.0,0.0,-1.535,-1.5123,-1.4941,-1.4808,-1.4808,-1.5059,-1.5565,-1.6452,-1.7295,-1.8419,-2.0512,-2.2114,-2.3698,-2.5569,-2.6764,-2.7846,-2.9097,-2.935,0.0,0.0,0.0,0.0,0.0,0.0,0.0,0.0,0.0,0.0,0.0,0.0,0.0,0.0,0.0,0.0,0.0,0.0,0.0,-3.329,-3.329,-3.329,-3.329,-3.329,-3.329,-3.329,-3.329,-3.329,-3.329,-3.329,-3.3437,-3.377,-3.377,-3.4104,-3.4732,-3.493,-3.5627,-3.6662,-3.7208,-3.7314,-3.715,-3.7447,-3.7594,-3.7623,-3.796,-3.8075,-3.8103,0.0,0.0,0.0,0.0,0.0,0.0,0.0,0.0,0.0,-1.5013,0.0,0.0,0.0,0.0,-1.5477,-1.5681,-1.6063,-1.6077,-1.5609,0.0,0.0,0.0,0.0,0.0,0.0,-1.4887,-1.4839,-1.4808,-1.5005,-1.6154,-1.8189,-1.84,-1.9501,-2.1302,-2.1068,-2.1524,-2.2334,-1.9669,-1.8644,-1.8807,-1.8826,-1.9718,-2.1026,-2.1215,-2.2311,-2.3491,0.0,0.0,0.0,0.0,0.0,0.0,-1.5691,-1.5059,-1.456,-1.4761,-1.5196,-1.568,-1.589,-1.6614,-1.7688,-1.9285,-2.0469,-2.1861,-2.4177,-2.5458,-2.6526,-2.7687,-2.8106,0.0,0.0,0.0,0.0,0.0,0.0,0.0,0.0,0.0,0.0,0.0,0.0,0.0,0.0,0.0,0.0,0.0,0.0,0.0,-3.2707,-3.2707,-3.2707,-3.2707,-3.2904,-3.3016,-3.3016,-3.3178,-3.329,-3.329,-3.329,-3.329,-3.329,-3.329,-3.3472,-3.3859,-3.4016,-3.4743,-3.5832,-3.6523,-3.6723,-3.66,-3.7074,-3.7254,-3.7314,-3.7623,-3.7799,-3.7943,0.0,0.0,0.0,0.0,0.0,0.0,0.0,0.0,-1.5013,-1.5013,0.0,0.0,0.0,0.0,0.0,-1.5711,-1.5725,-1.5624,-1.5328,-1.5551,0.0,0.0,0.0,0.0,-1.4997,-1.4872,-1.4808,-1.4808,-1.5382,-1.6308,-1.7562,-1.8133,-1.9402,-2.1097,-1.929,-1.9487,-2.1139,-2.0562,-1.9957,-1.9564,-2.0745,-2.0942,-2.099,-2.508,-2.6006,0.0,-2.4374,-2.3716,0.0,-2.0378,0.0,0.0,-1.6471,-1.5146,-1.4124,-1.4649,-1.5143,-1.5347,0.0,0.0,0.0,-1.7893,-1.8757,-2.0154,-2.3224,0.0,-2.5138,-2.6133,-2.678,0.0,0.0,0.0,0.0,0.0,0.0,0.0,0.0,0.0,0.0,0.0,0.0,0.0,0.0,0.0,0.0,0.0,0.0,-3.1485,-3.1485,-3.1485,-3.1485,-3.1485,-3.2075,-3.237,-3.237,-3.2988,-3.3262,-3.3262,-3.3276,-3.329,-3.329,-3.329,-3.329,-3.3312,-3.3859,-3.4375,-3.489,-3.5447,-3.5688,-3.5784,-3.6647,-3.6969,-3.703,-3.7284,-3.7594,-3.7886,0.0,0.0,0.0,0.0,0.0,-1.5139,-1.5641,-1.5404,-1.5133,0.0,0.0,0.0,-1.5326,-1.5949,-1.6322,-1.6077,-1.6458,-1.6308,-1.5372,-1.5507,-1.5507,-1.5238,-1.5026,-1.4934,-1.4934,-1.4887,-1.4855,-1.4808,-1.5024,-1.5501,-1.6224,-1.6393,-1.7235,-1.8588,-1.8082,-1.8138,-1.8574,-1.7988,-1.8903,-2.0703,-1.9683,-2.106,0.0,0.0,0.0,0.0,0.0,-2.4967,-2.4621,0.0,-2.1799,-1.9341,0.0,-1.5425,-1.4677,-1.4762,-1.5196,-1.555,-1.5063,0.0,0.0,0.0,0.0,0.0,0.0,0.0,-2.1967,-2.4012,0.0,0.0,0.0,0.0,0.0,0.0,0.0,0.0,0.0,0.0,0.0,0.0,0.0,0.0,0.0,0.0,0.0,0.0,-3.1485,-3.1485,-3.1485,-3.1485,-3.1485,-3.1485,-3.1654,-3.1738,-3.1738,-3.2356,-3.2665,-3.2665,-3.3066,-3.329,-3.329,-3.329,-3.329,-3.3326,-3.3437,-3.3612,-3.3805,-3.4725,-3.535,-3.572,-3.599,-3.6289,-3.6677,-3.6984,-3.7165,-3.7285,0.0,0.0,0.0,0.0,0.0,-1.6022,-1.6443,-1.6247,-1.6033,0.0,0.0,0.0,-1.6124,-1.684,-1.712,-1.6664,-1.6691,-1.6441,-1.572,-1.555,-1.5418,-1.5253,-1.5101,-1.501,-1.4949,-1.4903,-1.4871,-1.4808,-1.4839,-1.5022,-1.5312,-1.5312,-1.5845,-1.6803,-1.6533,-1.6733,-1.7169,-1.6269,-1.7412,-1.9803,-2.0245,0.0,0.0,-2.4303,-2.5467,0.0,0.0,0.0,-2.6087,-2.5536,-2.33,0.0,0.0,-1.6162,-1.5622,-1.5475,-1.5848,-1.622,-1.5756,-1.6391,-1.7155,-1.7013,0.0,0.0,-1.9009,-1.9606,0.0,0.0,0.0,0.0,0.0,0.0,0.0,0.0,0.0,0.0,0.0,0.0,0.0,0.0,0.0,0.0,0.0,-3.0275,0.0,-3.0471,-3.0504,-3.0569,-3.0712,-3.0712,-3.0712,-3.0712,-3.0951,-3.1078,-3.1078,-3.171,-3.2019,-3.2033,-3.2651,-3.2932,-3.2946,-3.3178,-3.329,-3.329,-3.329,-3.329,-3.3347,-3.3962,-3.4691,-3.5382,-3.5623,-3.6022,-3.6523,-3.6724,-3.6877,-3.703,0.0,0.0,-1.7056,-1.7011,-1.7056,-1.7144,-1.7267,-1.7241,-1.72,0.0,-1.7255,-1.7403,-1.7606,-1.8027,-1.8071,-1.7458,-1.675,-1.6285,-1.6213,-1.5631,-1.5298,-1.5298,-1.5223,-1.5133,-1.5028,-1.4949,-1.4872,-1.4808,-1.4808,-1.4808,-1.4808,-1.4808,-1.5087,-1.5579,-1.5031,-1.5426,-1.641,-1.5426,-1.6059,-1.7998,-2.1341,-2.2648,0.0,0.0,-2.7297,-2.6646,-2.7236,-2.7352,-2.7045,-2.5991,-2.374,0.0,0.0,-1.7275,-1.6922,-1.6455,-1.6804,-1.719,-1.6629,-1.7093,-1.7807,-1.8011,-1.7812,0.0,-1.9355,-1.9653,-1.9849,0.0,0.0,0.0,0.0,0.0,0.0,0.0,0.0,0.0,0.0,0.0,0.0,0.0,0.0,0.0,-2.8587,-2.8587,-2.8716,-2.9004,-2.9035,-2.9162,-2.9477,-2.9477,-2.9477,-2.9477,-3.0009,-3.0289,-3.0289,-3.0984,-3.1321,-3.1354,-3.1937,-3.2294,-3.2426,-3.294,-3.3185,-3.329,-3.329,-3.329,-3.329,-3.329,-3.3908,-3.4843,-3.535,-3.5894,-3.6429,-3.6429,-3.6647,-3.6938,0.0,-1.6215,-1.7089,-1.763,-1.7372,-1.7265,-1.7773,-1.7482,-1.72,-1.72,-1.7679,-1.8579,-2.0088,-1.9464,-1.8869,-1.8738,-1.7679,-1.6779,-1.6242,-1.5585,-1.5237,-1.5298,-1.5133,-1.5073,-1.5162,-1.5042,-1.495,-1.4886,-1.4886,-1.4855,-1.4808,-1.4808,-1.4864,-1.4977,-1.485,-1.4935,-1.5216,-1.5988,-1.7098,-1.8428,-1.9635,-2.2147,-2.5208,-2.5449,-2.6622,-2.803,-2.6984,-2.6889,-2.6922,-2.5134,-2.3735,-2.2343,0.0,-1.8879,-1.8552,-1.694,-1.7187,-1.7844,-1.7087,-1.7747,-1.8424,-1.7542,0.0,0.0,-1.7819,-1.844,-1.9222,0.0,0.0,0.0,0.0,0.0,0.0,0.0,0.0,0.0,0.0,0.0,0.0,0.0,0.0,0.0,-2.8546,-2.8587,-2.8619,-2.8683,-2.8683,-2.8716,-2.878,-2.8812,-2.8812,-2.8812,-2.8903,-2.8957,-2.8957,-2.9854,-3.0289,-3.0289,-3.0898,-3.1623,-3.2412,-3.2249,-3.2584,-3.329,-3.329,-3.329,-3.329,-3.329,-3.3667,-3.4274,-3.4375,-3.5008,-3.5847,-3.5847,-3.6148,-3.6585,-1.5145,-1.6109,-1.7041,-1.7816,-1.8032,-1.8202,-1.8505,-1.831,-1.8274,-1.8608,-1.9493,-2.0204,-2.0524,-2.0248,-1.9783,-1.9159,-1.8245,-1.7417,-1.6733,-1.6064,-1.5572,-1.5312,-1.5193,-1.5133,-1.5102,-1.5028,-1.4966,-1.4902,-1.4871,-1.4855,-1.4855,-1.4824,-1.4963,-1.5242,-1.5242,-1.5424,-1.5792,-1.6427,-1.7211,-1.8278,-2.0751,0.0,-2.5965,-2.6542,-2.7511,-2.8449,-2.7348,-2.7129,-2.7022,-2.4879,-2.4042,0.0,0.0,-2.004,-2.0077,0.0,-1.8499,-1.8866,-1.7987,-1.8288,-1.8764,-1.8397,0.0,0.0,0.0,0.0,-1.8374,-1.8552,0.0,0.0,0.0,0.0,0.0,0.0,0.0,0.0,0.0,0.0,0.0,0.0,0.0,0.0,-2.716,-2.7187,-2.7416,-2.7857,-2.8327,-2.8587,-2.8587,-2.8587,-2.8587,-2.8587,-2.8587,-2.8587,-2.8587,-2.908,-2.9296,-2.9296,-2.9898,-3.0484,-3.0983,-3.1606,-3.2034,-3.2324,-3.2996,-3.3206,-3.3016,-3.3206,-3.3437,-3.3736,-3.3982,-3.4576,-3.5317,-3.5591,-3.5847,-3.6132,-1.4833,-1.5856,-1.6734,-1.7405,-1.8305,-1.8926,-1.889,-1.901,-1.9377,-2.0175,-2.1278,-2.1699,-2.0915,-2.1148,-2.1046,-2.0277,-1.9087,-1.8259,-1.7954,-1.6835,-1.6037,-1.5675,-1.5428,-1.5281,-1.523,-1.51,-1.4996,-1.4918,-1.4841,-1.4839,-1.4886,-1.4839,-1.5115,-1.5705,-1.5705,-1.6143,-1.6877,-1.6877,-1.7562,-1.8981,0.0,-2.4472,-2.525,-2.7341,-2.8166,-2.808,-2.7492,-2.7108,-2.6574,-2.4655,-2.4217,-2.3988,-2.1332,-2.0979,0.0,0.0,0.0,0.0,0.0,0.0,0.0,0.0,0.0,-1.8761,0.0,0.0,0.0,0.0,0.0,0.0,0.0,0.0,0.0,0.0,0.0,0.0,0.0,0.0,0.0,0.0,0.0,0.0,0.0,-2.5488,-2.5865,-2.6852,-2.7444,-2.7867,-2.8204,-2.8217,-2.8271,-2.8392,-2.8392,-2.8392,-2.8392,-2.8471,-2.8503,-2.8503,-2.9009,-2.934,-2.9543,-3.0884,-3.1431,-3.1379,-3.254,-3.2874,-3.2632,-3.3016,-3.3171,-3.3241,-3.3756,-3.4288,-3.481,-3.5219,-3.5512,-3.5752,-1.3994,-1.5087,-1.5869,-1.5796,-1.7227,-1.8317,-1.8151,-1.8683,-1.9537,-2.0741,-2.154,-2.2367,-2.3354,-2.2997,-2.3062,-2.407,-2.0982,-1.9449,-2.0494,-1.7838,-1.6429,-1.6951,-1.5892,-1.5544,-1.605,-1.5482,-1.5118,-1.4997,-1.4918,-1.4871,-1.4808,-1.4808,-1.5115,-1.5705,-1.5705,-1.6365,-1.7506,-1.7506,-1.9417,0.0,-2.3656,-2.3202,0.0,-2.5356,-2.6567,-2.6567,-2.6515,-2.5697,-2.4481,0.0,-2.3768,-2.3546,0.0,-2.1789,-2.1819,-2.0282,0.0,0.0,0.0,0.0,0.0,0.0,-2.0064,0.0,0.0,0.0,0.0,0.0,0.0,0.0,0.0,0.0,0.0,0.0,0.0,0.0,0.0,0.0,0.0,0.0,0.0,0.0,0.0,-2.4373,-2.4766,-2.5869,-2.5131,-2.5292,-2.6816,-2.694,-2.7131,-2.761,-2.7623,-2.7623,-2.7623,-2.7967,-2.8145,-2.8145,-2.8211,-2.8671,-2.9496,-2.986,-3.0487,-3.1344,-3.1942,-3.22,-3.22,-3.2596,-3.2775,-3.281,-3.3227,-3.3736,-3.4206,-3.424,-3.4876,-3.572,-1.3682,-1.4489,-1.5207,-1.5569,-1.688,-1.7941,-1.809,-1.9633,-2.0973,-2.1511,-2.2468,-2.3441,-2.437,-2.3891,-2.3717,-2.4239,0.0,-2.1481,0.0,0.0,-1.8085,-1.7243,-1.6692,-1.6326,-1.6146,-1.587,-1.5491,-1.5013,-1.492,-1.4886,-1.4871,-1.4824,-1.5328,-1.6298,-1.6649,-1.7702,-1.922,-1.922,-2.0119,0.0,0.0,0.0,0.0,-2.6229,-2.7786,-2.7649,-2.7662,-2.7149,-2.6255,0.0,-2.4316,0.0,0.0,0.0,0.0,0.0,0.0,0.0,0.0,0.0,0.0,0.0,0.0,0.0,-1.7598,0.0,-1.7525,0.0,0.0,0.0,0.0,0.0,0.0,0.0,0.0,0.0,0.0,0.0,0.0,0.0,0.0,0.0,0.0,0.0,0.0,0.0,-2.4161,-2.4726,-2.6112,-2.6523,-2.6935,-2.7477,-2.749,-2.749,-2.749,-2.7669,-2.7736,-2.7736,-2.7736,-2.7967,-2.8339,-2.9025,-2.9624,-3.0188,-3.1177,-3.1708,-3.185,-3.2453,-3.2704,-3.2739,-3.3122,-3.3452,-3.3667,-3.3982,-3.4375,-3.4843,-1.3693,-1.4189,-1.4796,-1.5449,-1.6585,-1.7665,-1.8415,-2.0197,-2.167,-2.2178,-2.3209,-2.4283,-2.5299,-2.4979,0.0,-2.5415,-2.482,-2.3702,0.0,0.0,-1.9798,-1.8579,-1.7679,-1.7122,-1.6939,-1.6403,-1.5851,-1.527,-1.5036,-1.4988,-1.511,-1.4894,-1.5469,-1.6737,-1.7323,-1.8644,-2.0414,-2.0751,-2.1383,-2.2226,-2.3097,-2.3516,-2.394,-2.7233,-2.8361,-2.8235,-2.8235,-2.7776,-2.6945,-2.5223,-2.4583,0.0,-2.343,0.0,0.0,0.0,0.0,0.0,-2.1063,0.0,0.0,0.0,0.0,0.0,0.0,0.0,0.0,0.0,0.0,0.0,0.0,0.0,0.0,0.0,0.0,-1.6563,0.0,0.0,0.0,0.0,0.0,0.0,0.0,0.0,0.0,-2.2482,-2.2566,-2.3341,-2.5078,-2.5719,-2.6433,-2.7229,-2.7411,-2.749,-2.749,-2.749,-2.749,-2.749,-2.749,-2.749,-2.7516,-2.843,-2.9003,-2.9371,-3.0472,-3.1168,-3.1482,-3.2128,-3.2417,-3.2453,-3.2838,-3.298,-3.3051,-3.3652,-3.3914,-3.407,-1.4078,-1.4354,-1.4726,-1.5145,-1.615,-1.7462,-1.9109,-1.9815,-2.0808,-2.2627,-2.3484,0.0,0.0,0.0,0.0,0.0,0.0,-2.5992,-2.6559,0.0,-2.122,-2.1815,-1.8869,-1.778,-1.8985,-1.7154,-1.6133,-1.5972,-1.5327,-1.5233,-1.5663,-1.5059,-1.5469,-1.6737,-1.7323,-1.8644,-2.047,-2.1659,-2.3856,-2.661,-2.6652,-2.7734,-2.9167,0.0,-2.703,-2.7245,-2.7245,0.0,0.0,-2.4248,-2.4152,0.0,0.0,0.0,0.0,0.0,0.0,0.0,0.0,0.0,0.0,-1.9765,0.0,0.0,0.0,0.0,-1.7696,0.0,0.0,0.0,0.0,0.0,-1.7481,-1.6978,0.0,0.0,0.0,0.0,0.0,0.0,0.0,0.0,0.0,0.0,0.0,-2.0816,-1.9595,-2.0195,-2.3391,-2.407,-2.5093,-2.6661,-2.7236,-2.749,-2.749,-2.749,-2.749,-2.749,-2.749,-2.749,-2.7516,-2.8158,-2.8747,-2.9314,-2.9876,-3.0451,-3.1061,-3.1445,-3.1629,-3.1666,-3.2032,-3.2128,-3.2237,-3.3016,-3.3423,-3.3575,-1.4626,-1.4895,-1.5178,-1.5311,-1.601,-1.735,-1.9705,-2.0875,-2.2441,0.0,-2.5676,0.0,0.0,-2.9537,-2.9726,0.0,0.0,-2.8549,-2.7476,-2.5371,0.0,-2.3853,-2.1997,-2.0982,0.0,-1.9464,-1.8187,-1.7262,-1.6531,-1.6245,-1.6354,-1.6143,-1.6494,-1.7337,-1.8329,-1.9838,-2.1673,0.0,0.0,0.0,0.0,-2.7931,-2.9532,0.0,0.0,-2.8071,-2.8071,-2.7291,0.0,-2.5583,-2.5129,-2.4784,-2.4608,-2.4144,-2.373,-2.3853,-2.368,0.0,0.0,0.0,-2.3122,-2.0932,0.0,0.0,0.0,0.0,0.0,0.0,0.0,0.0,0.0,0.0,-1.699,-1.6644,-1.6385,-1.5962,0.0,0.0,0.0,0.0,0.0,0.0,0.0,0.0,0.0,-1.9257,-1.8895,-1.9868,0.0,-2.3118,-2.4285,-2.6621,-2.655,-2.6788,-2.749,-2.749,-2.749,-2.749,-2.749,-2.749,-2.7503,-2.7699,-2.8347,-2.9323,-2.9483,-3.0111,-3.1024,-3.1421,-3.1593,-3.1629,-3.1982,-3.2092,-3.2128,-3.2395,-3.2525,-3.264,-1.5223,-1.5502,-1.5782,-1.5762,-1.6725,-1.812,-1.9905,-2.1885,0.0,0.0,-2.7233,0.0,-3.0864,0.0,-3.1163,0.0,-3.1496,-3.0451,-2.8507,-2.7621,0.0,-2.5549,-2.4443,0.0,-2.2952,-2.1319,-1.9838,-1.8489,-1.7557,-1.7089,-1.7014,-1.6807,-1.7014,-1.7646,-1.8863,-2.0308,-2.2011,-2.3923,-2.5231,0.0,0.0,-2.813,0.0,0.0,-2.8565,-2.8117,0.0,-2.717,-2.6346,-2.5896,-2.5501,-2.5156,-2.5122,-2.4693,-2.4282,-2.4379,-2.4194,-2.3902,-2.3589,-2.3637,0.0,-2.1776,-2.0983,0.0,-1.8225,0.0,0.0,0.0,0.0,0.0,0.0,0.0,-1.7006,-1.7016,-1.6379,-1.5613,0.0,-1.4649,0.0,0.0,0.0,0.0,0.0,0.0,-1.6543,-1.7715,-1.7714,-1.8701,0.0,0.0,-2.3398,-2.5486,-2.5746,-2.6217,-2.6926,-2.7121,-2.7222,-2.7222,-2.739,-2.749,-2.749,-2.749,-2.8177,-2.931,-2.931,-2.9964,-3.1024,-3.1272,-3.1384,-3.1421,-3.1629,-3.1703,-3.174,-3.1982,-3.2092,-3.2164,-1.5844,-1.6208,-1.6574,-1.655,-1.8121,0.0,0.0,0.0,-2.5051,0.0,-2.8046,-2.9832,-3.0474,-3.114,-3.1792,-3.2413,-3.2442,-3.1647,-2.9811,-2.9638,0.0,0.0,-2.6138,-2.5386,-2.4701,-2.2694,-2.1004,-1.9694,-1.8384,-1.7711,-1.7632,-1.7056,-1.7098,-1.7702,-1.8877,-2.0112,-2.151,-2.4531,-2.6582,-2.7828,-2.831,-2.8492,-2.8363,-2.7703,-2.7451,-2.7338,-2.6654,-2.5931,-2.5276,-2.5147,-2.5182,-2.5276,-2.5147,-2.5111,-2.5016,-2.4492,-2.4566,-2.4649,-2.3771,-2.3786,-2.3695,-2.2328,0.0,0.0,0.0,0.0,-2.0646,0.0,0.0,0.0,0.0,0.0,0.0,-1.7974,-1.6805,-1.5693,0.0,0.0,0.0,0.0,0.0,0.0,0.0,-1.4869,-1.4965,-1.6231,-1.6067,-1.6777,0.0,0.0,-2.235,-2.3466,-2.4918,-2.5757,-2.5884,-2.6427,-2.6679,-2.6714,-2.7255,-2.749,-2.749,-2.749,-2.8177,-2.931,-2.931,-2.9964,-3.0986,-3.0986,-3.0986,-3.0986,-3.0986,-3.0986,-3.1099,-3.1776,-3.2055,-3.2055,-1.6421,-1.7099,-1.7876,0.0,-1.8117,-1.8799,0.0,0.0,0.0,0.0,-2.902,-3.0126,-3.226,-3.2166,-3.2027,-3.2193,-3.1757,0.0,0.0,0.0,0.0,-2.8687,-2.7533,-2.6667,-2.6094,-2.363,-2.1924,-2.1093,-1.9216,-1.8298,-1.8259,-1.8105,-1.8105,-1.8301,-1.9073,-2.0113,-2.1445,-2.3635,-2.5758,-2.7687,-2.8271,-2.8214,0.0,0.0,-2.6676,-2.6654,-2.6483,-2.5931,-2.5276,-2.5276,-2.5276,-2.5276,-2.5276,-2.5241,-2.5217,-2.5085,-2.5039,-2.4921,-2.4567,-2.4413,-2.4178,-2.3431,-2.2583,-2.1769,0.0,0.0,0.0,0.0,0.0,0.0,0.0,0.0,0.0,-1.7232,-1.6037,-1.5269,0.0,0.0,0.0,-1.5648,0.0,0.0,0.0,-1.4831,-1.505,-1.5417,-1.5717,0.0,0.0,0.0,0.0,-2.341,-2.3896,-2.4655,-2.5884,-2.6427,-2.6679,-2.6714,-2.7255,-2.749,-2.749,-2.749,-2.8177,-2.931,-2.931,-2.9964,-3.0986,-3.0986,-3.0986,-3.0986,-3.0986,-3.0986,-3.1024,-3.1198,-3.1272,-3.1272,-1.7325,-1.8355,0.0,-2.0012,0.0,0.0,-2.2375,-2.341,0.0,-2.7905,-2.9133,0.0,-3.1367,-3.1883,-3.211,-3.211,-3.1739,0.0,-3.0734,0.0,0.0,-2.9281,-2.8744,-2.8042,-2.7184,-2.4815,0.0,-2.1517,0.0,-1.8649,-1.7935,-1.7935,-1.8016,-1.8222,-1.8865,-1.9803,-2.1107,-2.3484,-2.5556,-2.7232,-2.7499,-2.7371,0.0,-2.6208,-2.5931,-2.5931,-2.5931,-2.5652,-2.5312,-2.5312,-2.5312,-2.5312,-2.5312,-2.5276,-2.5218,-2.5218,-2.5147,-2.5087,-2.4957,-2.4778,-2.4576,-2.4248,-2.3584,-2.2844,-2.2215,-2.2306,-2.2352,0.0,0.0,0.0,0.0,0.0,0.0,-1.6635,0.0,0.0,0.0,0.0,0.0,0.0,-1.528,0.0,0.0,0.0,-1.4695,-1.4465,0.0,0.0,0.0,0.0,0.0,-2.1781,-2.2881,-2.3873,-2.4811,-2.5577,-2.6082,-2.6358,-2.6884,-2.7255,-2.749,-2.749,-2.8177,-2.931,-2.931,-2.9964,-3.0986,-3.0986,-3.0986,-3.0986,-3.0986,-3.0986,-3.0986,-3.0986,-3.0986,-3.0986,-1.8505,-1.9824,0.0,0.0,0.0,0.0,0.0,-2.4996,0.0,-2.679,0.0,-3.0102,-2.9551,-3.0867,-3.1796,-3.1796,0.0,-3.133,-3.0204,-3.1146,-3.0949,-2.9213,-2.9424,-2.9021,-2.7768,-2.5749,-2.3596,0.0,0.0,-1.8761,-1.7199,-1.7199,-1.7393,-1.7754,-1.8328,-1.9354,0.0,-2.3653,-2.5514,-2.6544,-2.6426,-2.6396,-2.6285,-2.5656,-2.5456,-2.5528,-2.5528,-2.5432,-2.5312,-2.5312,-2.5312,-2.5312,-2.5312,-2.5206,-2.5111,-2.5111,-2.5111,-2.5111,-2.5123,-2.4957,-2.4825,-2.4754,-2.449,-2.4007,-2.311,-2.2914,-2.2914,-2.2914,-2.2201,-2.2098,0.0,0.0,0.0,0.0,0.0,0.0,0.0,0.0,0.0,0.0,0.0,0.0,0.0,0.0,0.0,0.0,0.0,0.0,0.0,0.0,0.0,-1.9798,-2.2002,0.0,-2.3407,0.0,-2.5252,-2.5791,-2.6324,-2.6884,-2.739,-2.739,-2.8095,-2.931,-2.931,-2.9964,-3.0986,-3.0986,-3.0986,-3.0986,-3.0986,-3.0986,-3.0986,-3.0986,-3.0986,-3.0986,-2.0163,0.0,0.0,0.0,0.0,-2.472,-2.5757,-2.6207,-2.6999,-2.8603,-2.9442,-3.0098,-3.057,-3.0379,-3.019,-3.019,-3.019,0.0,0.0,0.0,0.0,-2.8736,-2.8587,-2.8027,-2.693,-2.5034,-2.3225,0.0,0.0,-1.8347,-1.7199,-1.7199,-1.724,-1.7303,-1.7429,-1.888,-2.1354,-2.333,0.0,-2.5749,-2.6201,-2.6307,-2.6142,-2.5997,-2.6238,-2.6609,-2.6609,-2.6033,-2.5312,-2.5312,-2.5312,-2.5312,-2.5312,-2.5276,-2.5276,-2.5276,-2.5276,-2.5241,-2.5111,-2.5087,-2.4981,-2.4646,-2.449,-2.4371,-2.4007,-2.3925,-2.3925,-2.3925,-2.3787,-2.3523,-2.3029,0.0,0.0,0.0,0.0,0.0,0.0,0.0,0.0,0.0,0.0,0.0,0.0,0.0,0.0,0.0,0.0,0.0,0.0,0.0,0.0,0.0,-2.1498,0.0,0.0,0.0,-2.504,-2.5146,-2.5756,-2.6324,-2.685,-2.685,-2.7752,-2.931,-2.931,-2.9964,-3.0986,-3.0986,-3.0986,-3.0986,-3.0986,-3.0986,-3.0986,-3.0986,-3.0986,-3.0986,-2.2284,0.0,0.0,0.0,0.0,0.0,0.0,-2.7808,0.0,-2.8641,-2.8833,-2.905,-2.9422,-2.9644,-2.9792,-2.9792,-2.9792,-2.9792,-2.9792,-2.956,-2.9256,-2.9033,-2.8455,-2.7922,-2.7409,-2.5573,-2.3707,-2.1866,0.0,-1.8496,-1.687,-1.6604,-1.6595,-1.688,-1.7705,-1.9302,0.0,0.0,0.0,-2.546,-2.6035,-2.6359,-2.6489,-2.6489,-2.6657,-2.6898,-2.6898,-2.6561,-2.6117,-2.6117,-2.5961,-2.5721,-2.5721,-2.5528,-2.5312,-2.5312,-2.5312,-2.5276,-2.5206,-2.5147,-2.5016,-2.4718,-2.4574,-2.4465,-2.4236,-2.42,-2.42,-2.42,-2.42,-2.3879,-2.2903,-2.1489,0.0,0.0,0.0,0.0,0.0,0.0,0.0,0.0,0.0,0.0,0.0,0.0,0.0,0.0,0.0,0.0,0.0,0.0,0.0,0.0,0.0,0.0,0.0,0.0,0.0,-2.5004,-2.5288,-2.5721,-2.6289,-2.6289,-2.7218,-2.8821,-2.8821,-2.966,-3.0986,-3.0986,-3.0986,-3.0986,-3.0986,-3.0986,-3.0986,-3.0986,-3.0986,-3.0986,0.0,-2.4782,0.0,0.0,-2.6703,0.0,-2.8047,-2.9063,-2.9478,-2.8574,-2.8461,-2.8461,-2.8461,-2.9264,-2.9792,-2.9792,-2.9792,-2.9792,-2.9702,-2.9482,-2.9302,-2.9263,-2.8507,-2.8045,-2.7936,-2.6311,-2.4458,0.0,0.0,0.0,0.0,-1.6343,-1.6402,0.0,0.0,0.0,0.0,0.0,-2.4218,-2.5685,-2.6105,-2.661,-2.7066,-2.7066,-2.7138,-2.7234,-2.7234,-2.7234,-2.7234,-2.7234,-2.6827,-2.6274,-2.6274,-2.5985,-2.5661,-2.5661,-2.5576,-2.548,-2.548,-2.5301,-2.5087,-2.4861,-2.4682,-2.449,-2.4273,-2.42,-2.42,-2.42,-2.42,-2.3879,-2.2903,-2.2144,0.0,0.0,0.0,0.0,0.0,0.0,0.0,0.0,0.0,0.0,0.0,0.0,0.0,0.0,0.0,0.0,-1.5418,-1.6516,0.0,0.0,0.0,-2.1908,-2.2445,0.0,-2.4394,0.0,-2.4838,-2.5158,-2.5721,-2.5844,-2.674,-2.823,-2.8453,-2.9494,-3.0986,-3.0986,-3.0986,-3.0986,-3.0986,-3.0986,-3.0986,-3.0986,-3.0986,-3.0986,0.0,0.0,0.0,0.0,0.0,0.0,-2.8097,-2.9063,-2.9754,-2.9641,-2.9628,-2.9628,-2.9628,-2.9729,-2.9792,-2.9792,-2.9792,-2.9702,-2.9457,-2.9236,-2.9052,-2.887,-2.8609,-2.8249,-2.7729,-2.661,-2.4999,0.0,0.0,-1.9435,0.0,-1.7267,0.0,0.0,0.0,0.0,0.0,-2.3917,-2.5264,-2.6741,-2.6789,-2.7138,-2.7618,-2.7618,-2.7945,-2.8366,-2.8366,-2.8366,-2.8366,-2.8366,-2.7654,-2.6825,-2.6825,-2.6777,-2.6741,-2.6741,-2.6418,-2.6021,-2.6021,-2.5673,-2.5218,-2.4897,-2.4801,-2.4682,-2.4309,-2.42,-2.42,-2.42,-2.42,-2.3879,-2.2903,-2.2983,-2.2559,0.0,0.0,0.0,0.0,0.0,-1.7944,-1.7733,0.0,0.0,0.0,0.0,0.0,0.0,0.0,0.0,-1.6415,-1.6373,-1.7014,-1.8481,0.0,-2.1079,-2.1598,-2.3313,-2.4236,-2.4261,-2.4261,-2.4575,-2.5099,-2.56,-2.6456,-2.7644,-2.8686,-2.9829,-3.0986,-3.0986,-3.0986,-3.0986,-3.0986,-3.0986,-3.0986,-3.0986,-3.0986,-3.0986,0.0,0.0,0.0,0.0,0.0,0.0,0.0,-2.9503,-2.9792,-2.9792,-2.9792,-2.9792,-2.9792,-2.9792,-2.974,-2.956,-2.956,-2.947,-2.9236,-2.904,-2.8882,-2.8791,-2.8618,-2.8414,-2.8158,-2.7452,-2.619,0.0,0.0,-2.1091,-1.9297,-1.8987,0.0,0.0,0.0,-2.2702,-2.4422,-2.5155,-2.6214,-2.7366,-2.7366,-2.7678,-2.8198,-2.8198,-2.833,-2.851,-2.851,-2.851,-2.851,-2.851,-2.7978,-2.7366,-2.7366,-2.715,-2.6898,-2.6898,-2.6741,-2.6561,-2.6561,-2.6202,-2.5721,-2.5357,-2.5025,-2.4682,-2.4309,-2.42,-2.42,-2.42,-2.42,-2.4074,-2.3661,-2.3006,-2.233,0.0,0.0,0.0,0.0,0.0,0.0,-1.7966,0.0,-1.587,0.0,0.0,0.0,0.0,0.0,0.0,0.0,0.0,0.0,-1.775,0.0,-2.0708,-2.1497,-2.3042,-2.397,-2.42,-2.42,-2.4298,-2.455,-2.5026,-2.6052,-2.7481,-2.8362,-2.8989,-2.942,-2.9174,-2.9084,-2.9084,-2.9084,-2.942,-2.9871,-3.0012,-3.0381,-3.0849,-2.831,0.0,-2.8072,0.0,-2.8863,-2.8875,-2.9679,-2.974,-2.9702,-2.9702,-2.9624,-2.9624,-2.9663,-2.9702,-2.9573,-2.9341,-2.9314,-2.9236,-2.9,-2.8882,-2.8764,-2.8724,-2.8578,0.0,-2.851,-2.7993,-2.7091,-2.5793,-2.4362,0.0,-2.1536,0.0,0.0,0.0,-2.3424,-2.4458,-2.5817,-2.6346,-2.7115,-2.7918,-2.7879,-2.8095,-2.851,-2.8419,-2.8431,-2.8431,-2.8471,-2.8471,-2.8431,-2.8471,-2.827,-2.7957,-2.7957,-2.7666,-2.7366,-2.7366,-2.7246,-2.7126,-2.7126,-2.6692,-2.6199,-2.5889,-2.5352,-2.482,-2.448,-2.4292,-2.42,-2.42,-2.42,-2.4127,-2.3897,-2.3015,-2.2285,-2.2128,0.0,0.0,0.0,0.0,0.0,0.0,-1.6758,-1.5794,-1.5308,0.0,0.0,0.0,0.0,0.0,0.0,0.0,0.0,0.0,0.0,0.0,0.0,-2.2717,-2.3556,-2.3861,-2.397,-2.4123,-2.4283,-2.5035,-2.6035,-2.7265,-2.7873,-2.8176,-2.8215,-2.7924,-2.7792,-2.7792,-2.7792,-2.8335,-2.9121,-2.9264,-2.9716,-3.0254,-2.8775,-2.8875,-2.9051,-2.9679,-2.9779,-2.9779,-2.9792,-2.956,-2.9419,-2.9419,-2.9236,-2.9157,-2.938,-2.9419,-2.9302,-2.9131,-2.9091,-2.9,-2.8843,-2.8791,-2.8724,0.0,0.0,-2.851,-2.851,-2.7993,-2.7414,-2.6873,0.0,0.0,-2.3758,0.0,-2.3496,-2.4518,-2.5035,-2.5853,-2.691,-2.7438,-2.7978,-2.8459,-2.8287,-2.8339,-2.8471,-2.8259,-2.8219,-2.8219,-2.8431,-2.8391,-2.8219,-2.8419,-2.851,-2.8498,-2.8498,-2.8498,-2.8498,-2.8498,-2.8126,-2.7678,-2.7678,-2.7167,-2.6534,-2.6332,-2.5744,-2.5136,-2.4949,-2.4533,-2.42,-2.42,-2.42,-2.397,-2.315,-2.3226,-2.2797,-2.1004,0.0,0.0,0.0,0.0,0.0,-1.7952,-1.708,-1.6403,-1.5922,0.0,0.0,0.0,0.0,0.0,0.0,0.0,0.0,-1.8138,-1.9628,0.0,-2.1002,-2.2327,-2.3001,-2.3001,-2.3409,-2.3888,-2.443,-2.5823,-2.6611,-2.6842,-2.7302,-2.7614,-2.7804,-2.7792,-2.7792,-2.7792,-2.7792,-2.8335,-2.9081,-2.9081,-2.9121,-2.916,-2.9478,-2.9515,-2.9527,-2.9523,-2.9521,-2.9482,-2.9339,-2.9248,-2.9197,-2.9197,-2.9131,-2.9091,-2.8988,-2.9118,-2.9118,0.0,-2.8882,-2.8803,0.0,-2.8618,-2.8578,-2.851,-2.851,-2.851,-2.851,-2.8342,-2.7993,-2.7438,0.0,0.0,0.0,-2.5063,-2.5469,-2.6482,-2.651,-2.6934,-2.7597,-2.7763,-2.7928,-2.8082,-2.8002,-2.8042,-2.8082,-2.8002,-2.8002,-2.8002,-2.8082,-2.8151,-2.8219,-2.8259,-2.8299,-2.8299,-2.8299,-2.8299,-2.8259,-2.8122,-2.7964,-2.7834,-2.7834,-2.7415,-2.6897,-2.6691,-2.5911,-2.5147,-2.4949,-2.4545,-2.42,-2.42,-2.42,-2.4116,-2.3861,-2.3142,-2.2289,-2.1441,-2.0751,0.0,0.0,0.0,0.0,0.0,-1.7385,-1.6622,0.0,-1.6035,0.0,0.0,0.0,0.0,0.0,0.0,0.0,0.0,-1.9086,0.0,-2.0977,-2.2071,-2.274,-2.3012,-2.3453,-2.4073,-2.4893,-2.5333,-2.5784,-2.6166,-2.6019,-2.5966,-2.5997,-2.5673,-2.5547,-2.5547,-2.5547,-2.6069,-2.6883,-2.7005,-2.7464,-2.8028,-2.9792,-2.9456,-2.9223,-2.938,-2.9055,-2.8858,-2.9052,-2.9052,-2.9013,-2.9013,-2.8934,-2.8816,-2.8685,-2.8816,0.0,-2.8697,-2.8685,-2.8618,-2.851,-2.851,-2.851,-2.851,-2.851,-2.851,-2.851,0.0,0.0,-2.7978,-2.7603,-2.7229,-2.6882,-2.6678,-2.6969,-2.7585,-2.7439,-2.7587,-2.7893,-2.7893,-2.7893,-2.7881,-2.7788,-2.7788,-2.7893,-2.78,-2.7748,-2.7748,-2.7841,-2.7909,-2.7966,-2.8059,-2.8111,-2.807,-2.7966,-2.7926,-2.7926,-2.7921,-2.7893,-2.7893,-2.7893,-2.7566,-2.7228,-2.7097,-2.6352,-2.547,-2.4653,-2.4224,-2.388,-2.3394,-2.3313,-2.3202,-2.2868,-2.2246,-2.1509,-2.0793,-2.0076,-1.9453,-1.903,0.0,0.0,0.0,0.0,0.0,0.0,-1.719,0.0,0.0,0.0,0.0,0.0,0.0,0.0,-1.805,-1.9499,0.0,-2.1292,-2.206,-2.2554,-2.2831,-2.363,-2.4284,-2.4867,-2.5215,-2.5393,-2.5391,-2.5242,-2.5115,-2.4903,-2.4615,-2.4497,-2.4497,-2.4497,-2.502,-2.583,-2.5955,-2.6359,-2.6894,-2.9585,-2.8727,0.0,0.0,-2.8398,0.0,-2.8843,-2.8843,-2.8803,-2.8803,-2.8618,-2.851,-2.851,-2.851,-2.851,-2.851,0.0,0.0,0.0,-2.851,-2.851,-2.851,-2.851,-2.851,-2.851,-2.851,-2.851,-2.8471,-2.8299,-2.8179,-2.8179,-2.7962,-2.7881,-2.7881,-2.7852,-2.7841,-2.7841,-2.7841,-2.7841,-2.7852,-2.7574,-2.7615,-2.78,-2.7563,-2.7482,-2.7522,-2.776,-2.7708,-2.7522,-2.78,-2.7881,-2.7841,-2.7563,-2.7482,-2.7522,-2.78,-2.7841,-2.7841,-2.7841,-2.7667,-2.7482,-2.7482,-2.695,-2.5961,-2.4145,-2.3694,-2.3323,-2.2091,-2.1845,-2.1568,-2.0731,-2.0785,-2.0575,-1.9409,-1.9369,-1.9213,-1.8391,0.0,0.0,0.0,0.0,0.0,0.0,-1.839,-1.8605,0.0,0.0,0.0,0.0,0.0,-1.8485,-1.9761,-2.0638,-2.1352,-2.1849,-2.2283,-2.2532,-2.2604,-2.384,-2.4426,-2.4449,-2.5396,-2.5348,-2.454,-2.4946,-2.4914,-2.4497,-2.4497,-2.4497,-2.4497,-2.4497,-2.4978,-2.5704,-2.5704,-2.5704,-2.5788,0.0,0.0,-2.6871,-2.6901,-2.725,-2.7609,-2.762,-2.8167,-2.8578,-2.8578,-2.855,-2.851,-2.851,-2.851,-2.851,-2.851,-2.851,-2.851,-2.851,-2.851,-2.851,-2.851,-2.851,-2.851,-2.851,-2.851,-2.8431,-2.8259,-2.8219,-2.8099,-2.7962,-2.7696,-2.7603,-2.7574,-2.7423,-2.7353,-2.7353,-2.7353,-2.7353,-2.7353,-2.7313,-2.7301,-2.7353,-2.7313,-2.726,-2.726,-2.7353,-2.7412,-2.7522,-2.7563,-2.7603,-2.7563,-2.7522,-2.7412,-2.726,-2.7353,-2.7353,-2.7353,-2.7353,-2.7301,-2.726,-2.726,-2.6332,-2.5231,-2.4355,-2.3633,-2.2991,-2.2387,-2.2265,-2.2113,-2.1599,-2.1026,-2.0327,-1.9412,-1.8816,-1.81,-1.7019,-1.7108,0.0,0.0,-1.7657,-1.7853,-1.6907,-1.8233,-1.8596,0.0,0.0,0.0,0.0,-1.9468,-1.9779,-1.9793,-2.0638,-2.1507,-2.2325,-2.2439,-2.2853,-2.3557,-2.3888,-2.4211,-2.4459,-2.4701,-2.4711,-2.4497,-2.4625,-2.4583,-2.4497,-2.4497,-2.4497,-2.4497,-2.4497,-2.4615,-2.4818,-2.4818,-2.4818,-2.4818,-2.6524,-2.6099,-2.5797,-2.6077,-2.6472,-2.6823,-2.7133,-2.8127,-2.8871,-2.8871,-2.9076,-2.9232,-2.9232,-2.9232,-2.9232,-2.9232,-2.8787,-2.851,-2.851,-2.851,-2.851,-2.851,-2.851,-2.851,-2.851,-2.8431,-2.8259,-2.807,-2.7938,-2.7805,-2.7708,-2.7452,-2.7371,-2.7371,-2.726,-2.719,-2.719,-2.719,-2.719,-2.719,-2.719,-2.719,-2.719,-2.719,-2.719,-2.719,-2.719,-2.726,-2.7371,-2.7371,-2.7371,-2.7371,-2.7371,-2.7301,-2.719,-2.719,-2.719,-2.719,-2.719,-2.719,-2.7097,-2.6663,-2.5697,-2.4585,-2.369,-2.3104,-2.253,-2.1694,-2.1378,-2.1203,-2.0958,-2.0246,-1.9468,-1.886,-1.8137,-1.7332,-1.6369,-1.6567,0.0,-1.686,-1.7718,-1.8187,-1.7898,-1.886,-1.9059,-1.7925,0.0,0.0,-1.8874,-1.9703,-2.0239,-2.0389,-2.1269,-2.1983,-2.249,-2.2915,-2.3484,-2.4178,-2.4178,-2.4312,-2.4497,-2.4497,-2.4497,-2.4497,-2.4497,-2.4497,-2.4497,-2.4497,-2.4497,-2.4497,-2.4497,-2.4497,-2.4497,-2.4497,-2.4497,-2.4497,-2.5975,-2.5221,-2.4787,-2.5535,-2.5641,-2.5935,-2.6948,-2.8245,-2.9193,-2.94,-2.9809,-3.0086,-3.0086,-2.9947,-2.9947,-3.0086,-2.9133,-2.8554,-2.8631,-2.8558,-2.851,-2.851,-2.851,-2.8471,-2.8471,-2.8259,-2.807,-2.7841,-2.7603,-2.7482,-2.7441,-2.726,-2.719,-2.719,-2.719,-2.719,-2.719,-2.719,-2.719,-2.719,-2.719,-2.719,-2.719,-2.719,-2.7097,-2.7015,-2.7149,-2.7097,-2.7015,-2.7149,-2.719,-2.719,-2.719,-2.719,-2.719,-2.7015,-2.7015,-2.7015,-2.7149,-2.7097,-2.6745,-2.5841,-2.4946,-2.401,-2.286,-2.2483,-2.2026,-2.0856,-2.0296,-2.0031,-1.9912,-1.9326,-1.8724,-1.8173,-1.7642,-1.6973,-1.6084,0.0,-1.6806,-1.7111,-1.7747,-1.8455,-1.9221,-1.9445,-1.9429,-1.9094,-1.9526,-1.9496,0.0,-1.9553,-2.0304,-2.0995,-2.1883,-2.2484,-2.2708,-2.3546,-2.4167,-2.4497,-2.4497,-2.4497,-2.4497,-2.4497,-2.4497,-2.4497,-2.4497,-2.4497,-2.4497,-2.4497,-2.4497,-2.4497,-2.4497,-2.4497,-2.4497,-2.4497,-2.4497,-2.4497,-2.3681,-2.3474,-2.343,-2.3551,-2.4198,-2.5168,-2.6493,-2.7527,-2.8637,-2.9822,-3.0037,-3.0086,-3.0086,-2.9331,-2.9149,-3.0044,-2.919,-2.8729,-2.9167,-2.8751,-2.851,-2.851,-2.851,-2.8431,-2.8259,-2.8042,-2.7829,-2.7563,-2.7522,-2.7412,-2.726,-2.7231,-2.719,-2.719,-2.719,-2.719,-2.719,-2.719,-2.719,-2.719,-2.719,-2.719,-2.719,-2.719,-2.6704,-2.6133,-2.6921,-2.6704,-2.6133,-2.6921,-2.719,-2.719,-2.719,-2.719,-2.7056,-2.6257,-2.6008,-2.6174,-2.6962,-2.661,-2.5799,-2.4914,-2.4006,-2.325,-2.3061,-2.2406,-2.1653,-2.1099,-2.097,-2.0723,-2.0012,-1.9783,-1.9353,-1.8264,-1.7878,-1.7279,-1.6018,0.0,-1.6465,-1.6105,-1.6989,-1.7667,-1.7819,-1.8237,-1.8661,-1.8982,-1.9187,-1.942,-1.9666,-2.0148,-2.0455,-2.0598,-2.1273,-2.2322,-2.366,-2.4178,-2.4435,-2.4497,-2.4497,-2.4497,-2.4497,-2.4497,-2.4497,-2.4497,-2.4497,-2.4497,-2.4497,-2.4497,-2.4497,-2.4497,-2.4497,-2.4497,-2.4497,-2.4497,-2.4497,-2.4497,-2.374,-2.3413,-2.3237,-2.3705,-2.4058,-2.4679,-2.5959,-2.7195,-2.8195,-2.8815,-2.9177,-2.9337,-2.9337,-2.8925,-2.8835,-2.9292,-2.8644,-2.8297,-2.8519,-2.9046,-2.9364,-2.9364,-2.9229,-2.8982,-2.8639,-2.8526,-2.8272,-2.7787,-2.7999,-2.7819,-2.7201,-2.7729,-2.7885,-2.7644,-2.7908,-2.8023,-2.8023,-2.8023,-2.8023,-2.7981,-2.742,-2.7207,-2.7153,-2.6616,-2.6119,-2.5805,-2.626,-2.627,-2.6201,-2.6603,-2.696,-2.719,-2.719,-2.6839,-2.6351,-2.5913,-2.5453,-2.521,-2.5642,-2.5073,-2.4253,-2.3833,-2.3018,-2.2325,-2.2325,-2.1989,-2.1632,-2.144,-2.1264,-2.0998,-2.0631,-2.0035,-1.9445,-1.8967,-1.8206,0.0,0.0,-1.6826,-1.6745,-1.6733,-1.7196,-1.7591,-1.7749,-1.8013,-1.8241,-1.8465,-1.8505,-1.8717,-1.9183,-1.9389,-1.9851,-2.0633,-2.1678,-2.2667,-2.3677,-2.4223,-2.4497,-2.4497,-2.4497,-2.4497,-2.4497,-2.4497,-2.4497,-2.4497,-2.4497,-2.4497,-2.4497,-2.4497,-2.4497,-2.4497,-2.4497,-2.4497,-2.4497,-2.4497,-2.4497,-2.4497,-2.4287,-2.3842,-2.3598,-2.4297,-2.4248,-2.4519,-2.5776,-2.6883,-2.7731,-2.8021,-2.8451,-2.868,-2.868,-2.8495,-2.8448,-2.868,-2.8066,-2.7723,-2.7998,-2.9009,-2.9492,-2.9331,-2.9246,-2.913,-2.9013,-2.8958,-2.8688,-2.8149,-2.8517,-2.831,-2.7587,-2.8344,-2.8505,-2.8161,-2.854,-2.8571,-2.8343,-2.8343,-2.8202,-2.7941,-2.7183,-2.6873,-2.6784,-2.6003,-2.5552,-2.5416,-2.5643,-2.5774,-2.5933,-2.6044,-2.6353,-2.6696,-2.6584,-2.606,-2.5442,-2.5231,-2.4553,-2.3887,-2.4102,-2.3671,-2.3052,-2.2843,-2.2246,-2.1696,-2.1696,-2.1696,-2.1696,-2.1696,-2.1431,-2.1218,-2.1126,-2.0305,-1.9656,-1.9597,0.0,0.0,0.0,-1.748,-1.7312,-1.7728,-1.7849,-1.798,-1.823,-1.8297,-1.8297,-1.8297,-1.8297,-1.8425,-1.8708,-1.8811,-1.9418,-2.0633,-2.1992,-2.2889,-2.3222,-2.3927,-2.4282,-2.4282,-2.4411,-2.4497,-2.4497,-2.4497,-2.4497,-2.4497,-2.4497,-2.4497,-2.4497,-2.4497,-2.4497,-2.4497,-2.4497,-2.4497,-2.4497,-2.4497,-2.4497,-2.4497,-2.4404,-2.4365,-2.4336,-2.4404,-2.4394,-2.4845,-2.6321,-2.6645,-2.7172,-2.8479,-2.8659,-2.868,-2.868,-2.7887,-2.7699,-2.8634,-2.7584,-2.729,-2.8219,-2.8118,-2.7745,-2.6995,-2.7404,-2.8092,-2.8958,-2.883,-2.8689,-2.8643,-2.8677,-2.8666,-2.8586,-2.8666,-2.8677,-2.8643,-2.8677,-2.817,-2.7327,-2.7327,-2.6774,-2.5913,-2.5823,-2.5823,-2.5778,-2.5733,-2.5154,-2.4523,-2.5371,-2.5179,-2.4552,-2.503,-2.5217,-2.5211,-2.4794,-2.4669,-2.4402,-2.3574,-2.2633,-2.2122,-2.2974,-2.3139,-2.2877,-2.2033,-2.1731,-2.1696,-2.1696,-2.1696,-2.1696,-2.1696,-2.1668,-2.1522,-2.1181,-2.0871,-2.0461,-1.9732,0.0,0.0,-1.8252,-1.8043,-1.8091,-1.8459,-1.887,-1.9059,-1.9127,-1.9093,-1.9093,-1.9093,-1.9093,-1.9102,-1.9127,-1.947,-1.9838,-2.0331,-2.1702,-2.2454,-2.2482,-2.3222,-2.359,-2.359,-2.4196,-2.4497,-2.4497,-2.4497,-2.4497,-2.4497,-2.4497,-2.4497,-2.4497,-2.4497,-2.4497,-2.4497,-2.4497,-2.4497,-2.4497,-2.4497,-2.4497,-2.4497,-2.5079,-2.4951,-2.4814,-2.5128,-2.5187,-2.5379,-2.5966,-2.6034,-2.6237,-2.6771,-2.6839,-2.6839,-2.6839,-2.6514,-2.637,-2.659,-2.6129,-2.5936,-2.6157,-2.6109,-2.6418,-2.7193,-2.7459,-2.7643,-2.7872,-2.7826,-2.7594,-2.7248,-2.7594,-2.7433,-2.6863,-2.7454,-2.7584,-2.7269,-2.7605,-2.7551,-2.7182,-2.7182,-2.6997,-2.6579,-2.5933,-2.5707,-2.5613,-2.5005,-2.4535,-2.4304,-2.4622,-2.4735,-2.4709,-2.4904,-2.5214,-2.5454,-2.5279,-2.4838,-2.4117,-2.2967,-2.2104,-2.1607,-2.1945,-2.2033,-2.1954,-2.1607,-2.1374,-2.1275,-2.1275,-2.1374,-2.1472,-2.132,-2.1419,-2.1427,-2.1113,-2.0756,-2.0499,-2.0324,0.0,-1.9104,-1.9178,-1.893,-1.8793,-1.893,-1.9127,-1.9213,-1.9213,-1.9213,-1.9213,-1.9213,-1.9213,-1.9281,-1.9513,-1.9881,-2.0146,-2.0292,-2.0817,-2.1302,-2.1793,-2.2457,-2.3047,-2.3503,-2.3764,-2.411,-2.4497,-2.4067,-2.3894,-2.3841,-2.3387,-2.3202,-2.3202,-2.3202,-2.3474,-2.3894,-2.3894,-2.4153,-2.4454,-2.4024,-2.3894,-2.3894,-2.5567,-2.542,-2.5283,-2.5625,-2.5693,-2.5693,-2.5693,-2.5693,-2.5693,-2.5693,-2.5635,-2.5586,-2.5586,-2.5489,-2.5382,-2.5186,-2.5088,-2.4981,-2.4784,-2.4735,-2.5401,-2.7078,-2.7067,-2.7057,-2.7189,-2.7189,-2.7034,-2.663,-2.7034,-2.6868,-2.6176,-2.69,-2.7013,-2.6687,-2.7044,-2.6999,-2.6723,-2.6723,-2.6532,-2.6196,-2.5499,-2.5216,-2.5167,-2.444,-2.4202,-2.4202,-2.4102,-2.4294,-2.4545,-2.4307,-2.4448,-2.4726,-2.4588,-2.4144,-2.342,-2.2501,-2.1879,-2.1446,-2.1446,-2.1302,-2.1203,-2.1248,-2.115,-2.0997,-2.0997,-2.1141,-2.1239,-2.1042,-2.1141,-2.1203,-2.1042,-2.074,-2.0518,-2.0701,-2.0061,-1.9652,-1.9864,-1.959,-1.9393,-1.9513,-1.9565,-1.9565,-1.9565,-1.9565,-1.9565,-1.9565,-1.9565,-1.9641,-1.9862,-2.0155,-2.0292,-2.0292,-2.0292,-2.0555,-2.1042,-2.1748,-2.2325,-2.2828,-2.3047,-2.3396,-2.382,-2.3353,-2.3135,-2.3135,-2.2624,-2.2394,-2.2394,-2.2394,-2.2711,-2.3135,-2.3135,-2.344,-2.3787,-2.3309,-2.3135,-2.3135,-2.5693,-2.5693,-2.5693,-2.5693,-2.5693,-2.5693,-2.5693,-2.5693,-2.5693,-2.5693,-2.5489,-2.5284,-2.5284,-2.5088,-2.4883,-2.4883,-2.4627,-2.448,-2.448,-2.4301,-2.4784,-2.6042,-2.5849,-2.6167,-2.7142,-2.7189,-2.7189,-2.7189,-2.7189,-2.7189,-2.7189,-2.7189,-2.7189,-2.7189,-2.7189,-2.6628,-2.5693,-2.5693,-2.5118,-2.4202,-2.4202,-2.4202,-2.4202,-2.4202,-2.4202,-2.4152,-2.3904,-2.3805,-2.3692,-2.2944,-2.2722,-2.2651,-2.2223,-2.2099,-2.2099,-2.2099,-2.1872,-2.1609,-2.16,-2.1179,-2.0744,-2.0952,-2.0997,-2.0988,-2.0988,-2.0997,-2.0997,-2.0988,-2.0997,-2.0997,-2.0988,-2.0826,-2.0699,-2.0699,-2.0117,-1.9828,-2.024,-1.9975,-1.9836,-2.0249,-2.0292,-2.0292,-2.0292,-2.0292,-2.0292,-2.0292,-2.0292,-2.0292,-2.0292,-2.0292,-2.0292,-2.0292,-2.0292,-2.0292,-2.0292,-2.1042,-2.1401,-2.1401,-2.205,-2.2394,-2.2394,-2.2394,-2.2394,-2.2394,-2.2394,-2.2394,-2.2394,-2.2394,-2.2394,-2.2394,-2.2394,-2.2394,-2.2394,-2.2394,-2.2394,-2.2394,-2.5693,-2.5693,-2.5693,-2.5693,-2.5693,-2.5693,-2.5693,-2.5693,-2.5635,-2.544,-2.5342,-2.5235,-2.5039,-2.4941,-2.4833,-2.4637,-2.4538,-2.444,-2.4291,-2.4251,-2.435,-2.4735,-2.4686,-2.4775,-2.5109,-2.5099,-2.5099,-2.5099,-2.5099,-2.5099,-2.5099,-2.5099,-2.5099,-2.5099,-2.5099,-2.4913,-2.4637,-2.4637,-2.4489,-2.4202,-2.4202,-2.4202,-2.4202,-2.4202,-2.4102,-2.3904,-2.3854,-2.3696,-2.3479,-2.3263,-2.3169,-2.3152,-2.3036,-2.2766,-2.2545,-2.2545,-2.2166,-2.1663,-2.1401,-2.1058,-2.0819,-2.0806,-2.0645,-2.051,-2.051,-2.0645,-2.0736,-2.0555,-2.0645,-2.0736,-2.0555,-2.0464,-2.0428,-2.0428,-2.0243,-2.0163,-2.0275,-2.0198,-2.0172,-2.0275,-2.0292,-2.0292,-2.0292,-2.0292,-2.0292,-2.0292,-2.0292,-2.0292,-2.0292,-2.0292,-2.0292,-2.0292,-2.0292,-2.0292,-2.0292,-2.051,-2.0871,-2.1401,-2.1615,-2.1961,-2.2394,-2.1917,-2.1704,-2.1659,-2.1177,-2.0952,-2.0952,-2.0952,-2.1221,-2.1704,-2.1704,-2.2006,-2.235,-2.1882,-2.1704,-2.1704,-2.5693,-2.5693,-2.5693,-2.5693,-2.5693,-2.5693,-2.5693,-2.5586,-2.5489,-2.5333,-2.5137,-2.4932,-2.4784,-2.4686,-2.4538,-2.439,-2.439,-2.4341,-2.4202,-2.4202,-2.4202,-2.4202,-2.4202,-2.4202,-2.4202,-2.4202,-2.4202,-2.4202,-2.4202,-2.4202,-2.4202,-2.4202,-2.4202,-2.4202,-2.4202,-2.4152,-2.4053,-2.4053,-2.4003,-2.3904,-2.3904,-2.3904,-2.3904,-2.3904,-2.3805,-2.3655,-2.3497,-2.3397,-2.3247,-2.3097,-2.3097,-2.3097,-2.3097,-2.2889,-2.2647,-2.2647,-2.2278,-2.1834,-2.1562,-2.1294,-2.1049,-2.0847,-2.0548,-2.0292,-2.0292,-2.0428,-2.0518,-2.0337,-2.0428,-2.0473,-2.0337,-2.0292,-2.0292,-2.0292,-2.0292,-2.0292,-2.0292,-2.0292,-2.0292,-2.0292,-2.0292,-2.0292,-2.0292,-2.0292,-2.0292,-2.0292,-2.0292,-2.0292,-2.0292,-2.0292,-2.0292,-2.0292,-2.0292,-2.0292,-2.0292,-2.0292,-2.051,-2.0961,-2.0961,-2.1177,-2.1561,-2.1132,-2.0961,-2.0961,-2.051,-2.0292,-2.0292,-2.0292,-2.0555,-2.0961,-2.0961,-2.1221,-2.1516,-2.1132,-2.0961,-2.0961,-2.5635,-2.5635,-2.5635,-2.5635,-2.5635,-2.5635,-2.5635,-2.544,-2.5235,-2.5235,-2.4784,-2.448,-2.4489,-2.4301,-2.4202,-2.4202,-2.4202,-2.4202,-2.4202,-2.4202,-2.4202,-2.4202,-2.4202,-2.4202,-2.4202,-2.4202,-2.4202,-2.4202,-2.4202,-2.4202,-2.4152,-2.4152,-2.4152,-2.4152,-2.4152,-2.4003,-2.3755,-2.3755,-2.3596,-2.3406,-2.3441,-2.345,-2.345,-2.345,-2.345,-2.335,-2.3114,-2.2996,-2.2946,-2.2695,-2.2594,-2.2594,-2.2594,-2.2594,-2.2594,-2.2594,-2.2354,-2.2038,-2.2004,-2.1739,-2.1379,-2.1011,-2.0634,-2.0335,-2.03,-2.0292,-2.0292,-2.0292,-2.0292,-2.0292,-2.0292,-2.0292,-2.0292,-2.0292,-2.0292,-2.0292,-2.0292,-2.0292,-2.0292,-2.0292,-2.0292,-2.0292,-2.0292,-2.0292,-2.0292,-2.0292,-2.0292,-2.0292,-2.0292,-2.0292,-2.0292,-2.0292,-2.0292,-2.0292,-2.0292,-2.0292,-2.0292,-2.0292,-2.0292,-2.0292,-2.0292,-2.0292,-2.0292,-2.0292,-2.0292,-2.0292,-2.0292,-2.0292,-2.0292,-2.0292,-2.0292,-2.0292,-2.0292,-2.0292,-2.0292,-2.0292,-2.5391,-2.5235,-2.5079,-2.5079,-2.5079,-2.5079,-2.5079,-2.503,-2.4932,-2.4686,-2.4578,-2.444,-2.4301,-2.4251,-2.4202,-2.4202,-2.4202,-2.4202,-2.4202,-2.4202,-2.4202,-2.4202,-2.4202,-2.4202,-2.4202,-2.4202,-2.4202,-2.4202,-2.4202,-2.4102,-2.3904,-2.3904,-2.3746,-2.3546,-2.3546,-2.3546,-2.3506,-2.3506,-2.3447,-2.3423,-2.3693,-2.3808,-2.3808,-2.3808,-2.3655,-2.3467,-2.311,-2.2846,-2.2695,-2.2594,-2.2594,-2.2594,-2.2594,-2.2594,-2.2594,-2.2594,-2.2542,-2.2414,-2.2081,-2.1936,-2.1782,-2.1388,-2.102,-2.0668,-2.036,-2.0292,-2.0292,-2.0292,-2.0292,-2.0292,-2.0292,-2.0292,-2.0292,-2.0292,-2.0292,-2.0292,-2.0292,-2.0292,-2.0292,-2.0292,-2.0292,-2.0292,-2.0292,-2.0292,-2.0292,-2.0292,-2.0292,-2.0292,-2.0292,-2.0292,-2.0292,-2.0292,-2.0292,-2.0292,-2.0292,-2.0292,-2.0292,-2.0292,-2.0292,-2.0292,-2.0292,-2.0292,-2.0292,-2.0292,-2.0292,-2.0292,-2.0292,-2.0292,-2.0292,-2.0292,-2.0292,-2.0292,-2.0292,-2.0292,-2.0292,-2.0292,-2.5137,-2.4981,-2.4883,-2.4883,-2.4883,-2.4883,-2.4883,-2.4784,-2.4686,-2.4529,-2.444,-2.4341,-2.4202,-2.4202,-2.4202,-2.4202,-2.4202,-2.4202,-2.4202,-2.4202,-2.4202,-2.4202,-2.4395,-2.4505,-2.4505,-2.4689,-2.4546,-2.4003,-2.4003,-2.3845,-2.3605,-2.3605,-2.3546,-2.3397,-2.3397,-2.3403,-2.3428,-2.3428,-2.3482,-2.3555,-2.3713,-2.3791,-2.3791,-2.3791,-2.3739,-2.3557,-2.341,-2.3117,-2.2818,-2.2818,-2.2748,-2.2594,-2.2594,-2.2594,-2.2594,-2.2594,-2.2594,-2.2551,-2.2362,-2.2311,-2.2167,-2.179,-2.155,-2.1268,-2.0703,-2.0429,-2.0292,-2.0292,-2.0292,-2.0292,-2.0292,-2.0292,-2.0292,-2.0292,-2.0292,-2.0292,-2.0292,-2.0292,-2.0292,-2.0292,-2.0292,-2.0292,-2.0292,-2.0292,-2.0292,-2.0292,-2.0292,-2.0292,-2.0292,-2.0292,-2.0292,-2.0292,-2.0292,-2.0292,-2.0292,-2.0292,-2.0292,-2.0292,-2.0292,-2.0292,-2.0292,-2.0292,-2.0292,-2.0292,-2.0292,-2.0292,-2.0292,-2.0292,-2.0292,-2.0292,-2.0292,-2.0292,-2.0292,-2.0292,-2.0292,-2.0292,-2.4883,-2.4784,-2.4784,-2.4784,-2.4784,-2.4784,-2.4784,-2.4587,-2.443,-2.443,-2.4291,-2.4202,-2.4202,-2.4202,-2.4202,-2.4202,-2.4202,-2.4202,-2.4202,-2.4266,-2.4312,-2.4312,-2.4707,-2.4886,-2.4886,-2.5207,-2.4939,-2.4003,-2.4003,-2.3853,-2.35,-2.35,-2.35,-2.3441,-2.3441,-2.3474,-2.3514,-2.3514,-2.3592,-2.3727,-2.3734,-2.3768,-2.3768,-2.3768,-2.3768,-2.3751,-2.3744,-2.3468,-2.3211,-2.3211,-2.2997,-2.2774,-2.2714,-2.2697,-2.268,-2.262,-2.2594,-2.2594,-2.2594,-2.2594,-2.2525,-2.2167,-2.2038,-2.1833,-2.1208,-2.072,-2.0394,-2.0394,-2.0343,-2.0292,-2.0292,-2.0292,-2.0292,-2.0292,-2.0292,-2.0292,-2.0292,-2.0292,-2.0292,-2.0292,-2.0292,-2.0292,-2.0292,-2.0292,-2.0292,-2.0292,-2.0292,-2.0292,-2.0292,-2.0292,-2.0292,-2.0292,-2.0292,-2.0292,-2.0292,-2.0292,-2.0292,-2.0292,-2.0292,-2.0292,-2.0292,-2.0292,-2.0292,-2.0292,-2.0292,-2.0292,-2.0292,-2.0292,-2.0292,-2.0292,-2.0292,-2.0292,-2.0292,-2.0292,-2.0292,-2.0292,-2.4578,-2.439,-2.4301,-2.4301,-2.4301,-2.4301,-2.4301,-2.4251,-2.4251,-2.4251,-2.4202,-2.4202,-2.4202,-2.4202,-2.4202,-2.4202,-2.4202,-2.4202,-2.4202,-2.4542,-2.4702,-2.4702,-2.5078,-2.5341,-2.5341,-2.5396,-2.5203,-2.4765,-2.4765,-2.4505,-2.3983,-2.3983,-2.3878,-2.3669,-2.3669,-2.3651,-2.3694,-2.3694,-2.3667,-2.3744,-2.4025,-2.4153,-2.4153,-2.4153,-2.4153,-2.411,-2.3785,-2.3684,-2.3641,-2.3641,-2.3606,-2.3512,-2.3134,-2.304,-2.2972,-2.2697,-2.2594,-2.2594,-2.2594,-2.2594,-2.2585,-2.2534,-2.2285,-2.197,-2.1867,-2.1302,-2.0805,-2.0805,-2.0523,-2.0292,-2.0292,-2.0292,-2.0292,-2.0292,-2.0292,-2.0292,-2.0292,-2.0292,-2.0292,-2.0292,-2.0292,-2.0292,-2.0292,-2.0292,-2.0292,-2.0292,-2.0292,-2.0292,-2.0292,-2.0292,-2.0292,-2.0292,-2.0292,-2.0292,-2.0292,-2.0292,-2.0292,-2.0292,-2.0292,-2.0292,-2.0292,-2.0292,-2.0292,-2.0292,-2.0292,-2.0292,-2.0292,-2.0292,-2.0292,-2.0292,-2.0292,-2.0292,-2.0292,-2.0292,-2.0292,-2.0292,-2.4341,-2.4251,-2.4202,-2.4202,-2.4202,-2.4202,-2.4202,-2.4202,-2.4202,-2.4202,-2.4202,-2.4202,-2.4202,-2.4413,-2.456,-2.456,-2.4762,-2.4882,-2.4882,-2.5065,-2.5166,-2.5166,-2.5543,-2.5754,-2.5754,-2.5984,-2.5827,-2.5326,-2.488,-2.4456,-2.4088,-2.3929,-2.3824,-2.3718,-2.3718,-2.3785,-2.3982,-2.3982,-2.411,-2.4324,-2.4496,-2.4564,-2.4564,-2.4564,-2.4564,-2.4538,-2.4376,-2.417,-2.3982,-2.3982,-2.3836,-2.3692,-2.3485,-2.3288,-2.3083,-2.2912,-2.2766,-2.2594,-2.2594,-2.2594,-2.2594,-2.2594,-2.2474,-2.2354,-2.2354,-2.1893,-2.1439,-2.1225,-2.0874,-2.0617,-2.0617,-2.0437,-2.0292,-2.0292,-2.0292,-2.0292,-2.0292,-2.0292,-2.0292,-2.0292,-2.0292,-2.0292,-2.0292,-2.0292,-2.0292,-2.0292,-2.0292,-2.0292,-2.0292,-2.0292,-2.0292,-2.0292,-2.0292,-2.0292,-2.0292,-2.0292,-2.0292,-2.0292,-2.0292,-2.0292,-2.0292,-2.0292,-2.0292,-2.0292,-2.0292,-2.0292,-2.0292,-2.0292,-2.0292,-2.0292,-2.0292,-2.0155,-1.992,-1.992,-1.9737,-1.9509]},{"header":{"parameterUnit":"m.s-1","parameterCategory":1,"la1":30.6,"la2":28.766,"lo1":-90.7593,"lo2":-88.6598,"dy":0.0162,"dx":0.0183,"nx":116,"ny":114,"refTime":"2024-06-06T18:00:00:Z","depth":0,"parameterNumber":3,"parameterNumberName":"V-component_of_WINDS"},"data":[0.0,0.0,0.0,0.0,0.0,0.0,0.0,0.0,0.0,0.0,0.0,0.0,0.0,0.0,0.0,0.0,0.0,0.0,0.0,0.0,0.0,0.0,0.0,0.0,0.0,0.0,0.0,0.0,0.0,0.0,0.0,0.0,0.0,0.0,0.0,0.0,0.0,0.0,0.0,0.0,0.0,0.0,0.0,0.0,0.0,0.0,0.0,0.0,0.0,0.0,0.0,0.0,0.0,0.0,0.0,0.0,0.0,0.0,0.0,0.0,0.0,0.0,0.0,0.0,0.0,0.0,0.0,0.0,0.0,0.0,0.0,0.0,0.0,0.0,0.0,0.0,0.0,0.0,0.0,0.0,0.0,0.0,0.0,0.0,0.0,0.0,0.0,0.0,0.0,0.0,0.0,0.0,0.0,0.0,0.0,0.0,0.0,0.0,0.0,0.0,0.0,0.0,0.0,0.0,0.0,0.0,0.0,0.0,0.0,0.0,0.0,0.0,0.0,0.0,0.0,0.0,0.0,0.0,0.0,0.0,0.0,0.0,0.0,0.0,0.0,0.0,0.0,0.0,0.0,0.0,0.0,0.0,0.0,0.0,0.0,0.0,0.0,0.0,0.0,0.0,0.0,0.0,0.0,0.0,0.0,0.0,0.0,0.0,0.0,0.0,0.0,0.0,0.0,0.0,0.0,0.0,0.0,0.0,0.0,0.0,0.0,0.0,0.0,0.0,0.0,0.0,0.0,0.0,0.0,0.0,0.0,0.0,0.0,0.0,0.0,0.0,0.0,0.0,0.0,0.0,0.0,0.0,0.0,0.0,0.0,0.0,0.0,0.0,0.0,0.0,0.0,0.0,0.0,0.0,0.0,0.0,0.0,0.0,0.0,0.0,0.0,0.0,0.0,0.0,0.0,0.0,0.0,0.0,0.0,0.0,0.0,0.0,0.0,0.0,0.0,0.0,0.0,0.0,0.0,0.0,0.0,0.0,0.0,0.0,0.0,0.0,0.0,0.0,0.0,0.0,0.0,0.0,0.0,0.0,0.0,0.0,0.0,0.0,0.0,0.0,0.0,0.0,0.0,0.0,0.0,0.0,0.0,0.0,0.0,0.0,0.0,0.0,0.0,0.0,0.0,0.0,0.0,0.0,0.0,0.0,0.0,0.0,0.0,0.0,0.0,0.0,0.0,0.0,0.0,0.0,0.0,0.0,0.0,0.0,0.0,0.0,0.0,0.0,0.0,0.0,0.0,0.0,0.0,0.0,0.0,0.0,0.0,0.0,0.0,0.0,0.0,0.0,0.0,0.0,0.0,0.0,0.0,0.0,0.0,0.0,0.0,0.0,0.0,0.0,0.0,0.0,0.0,0.0,0.0,0.0,0.0,0.0,0.0,0.0,0.0,0.0,0.0,0.0,0.0,0.0,0.0,0.0,0.0,0.0,0.0,0.0,0.0,0.0,0.0,0.0,0.0,0.0,0.0,0.0,0.0,0.0,0.0,0.0,0.0,0.0,0.0,0.0,0.0,0.0,0.0,0.0,0.0,0.0,0.0,0.0,0.0,0.0,0.0,0.0,0.0,0.0,0.0,0.0,0.0,0.0,0.0,0.0,0.0,0.0,0.0,0.0,0.0,0.0,0.0,0.0,0.0,0.0,0.0,0.0,0.0,0.0,0.0,0.0,0.0,0.0,0.0,0.0,0.0,0.0,0.0,0.0,0.0,0.0,0.0,0.0,0.0,0.0,0.0,0.0,0.0,0.0,0.0,0.0,0.0,0.0,0.0,0.0,0.0,0.0,0.0,0.0,0.0,0.0,0.0,0.0,0.0,0.0,0.0,0.0,0.0,0.0,0.0,0.0,0.0,0.0,0.0,0.0,0.0,0.0,0.0,0.0,0.0,0.0,0.0,0.0,0.0,0.0,0.0,0.0,0.0,0.0,0.0,0.0,0.0,0.0,0.0,0.0,0.0,0.0,0.0,0.0,0.0,0.0,0.0,0.0,0.0,0.0,0.0,0.0,0.0,0.0,0.0,0.0,0.0,0.0,0.0,0.0,0.0,0.0,0.0,0.0,0.0,0.0,0.0,0.0,0.0,0.0,0.0,0.0,0.0,0.0,0.0,0.0,0.0,0.0,0.0,0.0,0.0,0.0,0.0,0.0,0.0,0.0,0.0,0.0,0.0,0.0,0.0,0.0,0.0,0.0,0.0,0.0,0.0,0.0,0.0,0.0,0.0,0.0,0.0,0.0,0.0,0.0,0.0,0.0,0.0,0.0,0.0,0.0,0.0,0.0,0.0,0.0,0.0,0.0,0.0,0.0,0.0,0.0,0.0,0.0,0.0,0.0,0.0,0.0,0.0,0.0,0.0,0.0,0.0,0.0,0.0,0.0,0.0,0.0,0.0,0.0,0.0,0.0,0.0,0.0,0.0,0.0,0.0,0.0,0.0,0.0,0.0,0.0,0.0,0.0,0.0,0.0,0.0,0.0,0.0,0.0,0.0,0.0,0.0,0.0,0.0,0.0,0.0,0.0,0.0,0.0,0.0,0.0,0.0,0.0,0.0,0.0,0.0,0.0,0.0,0.0,0.0,0.0,0.0,0.0,0.0,0.0,0.0,0.0,0.0,0.0,0.0,0.0,0.0,0.0,0.0,0.0,0.0,0.0,0.0,0.0,0.0,0.0,0.0,0.0,0.0,0.0,0.0,0.0,0.0,0.0,0.0,0.0,0.0,0.0,0.0,0.0,0.0,0.0,0.0,0.0,0.0,0.0,0.0,0.0,0.0,0.0,0.0,0.0,0.0,0.0,0.0,0.0,0.0,0.0,0.0,0.0,0.0,0.0,0.0,0.0,0.0,0.0,0.0,0.0,0.0,0.0,0.0,0.0,0.0,0.0,0.0,0.0,0.0,0.0,0.0,0.0,0.0,0.0,0.0,0.0,0.0,0.0,0.0,0.0,0.0,0.0,0.0,0.0,0.0,0.0,0.0,0.0,0.0,0.0,0.0,0.0,0.0,0.0,0.0,0.0,0.0,0.0,0.0,0.0,0.0,0.0,0.0,0.0,0.0,0.0,0.0,0.0,0.0,0.0,0.0,0.0,0.0,0.0,0.0,0.0,0.0,0.0,0.0,0.0,0.0,0.0,0.0,0.0,0.0,0.0,0.0,0.0,0.0,0.0,0.0,0.0,0.0,0.0,0.0,0.0,0.0,0.0,0.0,0.0,0.0,0.0,0.0,0.0,0.0,0.0,0.0,0.0,0.0,0.0,0.0,0.0,0.0,0.0,0.0,0.0,0.0,0.0,0.0,0.0,0.0,0.0,0.0,0.0,0.0,0.0,0.0,0.0,0.0,0.0,0.0,0.0,0.0,0.0,0.0,0.0,0.0,0.0,0.0,0.0,0.0,0.0,0.0,0.0,0.0,0.0,0.0,0.0,0.0,0.0,0.0,0.0,0.0,0.0,0.0,0.0,0.0,0.0,0.0,0.0,0.0,0.0,0.0,0.0,0.0,0.0,0.0,0.0,0.0,0.0,0.0,0.0,0.0,0.0,0.0,0.0,0.0,0.0,0.0,0.0,0.0,0.0,0.0,0.0,0.0,0.0,0.0,0.0,0.0,0.0,0.0,0.0,0.0,0.0,0.0,0.0,0.0,0.0,0.0,0.0,0.0,0.0,0.0,0.0,0.0,0.0,0.0,0.0,0.0,0.0,0.0,0.0,0.0,0.0,0.0,0.0,0.0,0.0,0.0,0.0,0.0,0.0,0.0,0.0,0.0,0.0,0.0,0.0,0.0,0.0,0.0,0.0,0.0,0.0,0.0,0.0,0.0,0.0,0.0,0.0,0.0,0.0,0.0,0.0,0.0,0.0,0.0,0.0,0.0,0.0,0.0,0.0,0.0,0.0,0.0,0.0,0.0,0.0,0.0,0.0,0.0,0.0,0.0,0.0,0.0,0.0,0.0,0.0,0.0,0.0,0.0,0.0,0.0,0.0,0.0,0.0,0.0,0.0,0.0,0.0,0.0,0.0,0.0,0.0,0.0,0.0,0.0,0.0,0.0,0.0,0.0,0.0,0.0,0.0,0.0,0.0,0.0,0.0,0.0,0.0,0.0,0.0,0.0,0.0,0.0,0.0,0.0,0.0,0.0,0.0,0.0,0.0,0.0,0.0,0.0,0.0,0.0,0.0,0.0,0.0,0.0,0.0,0.0,0.0,0.0,0.0,0.0,0.0,0.0,0.0,0.0,0.0,0.0,0.0,0.0,0.0,0.0,0.0,0.0,0.0,0.0,0.0,0.0,0.0,0.0,0.0,0.0,0.0,0.0,0.0,0.0,0.0,0.0,0.0,0.0,0.0,0.0,0.0,0.0,0.0,0.0,0.0,0.0,0.0,0.0,0.0,0.0,0.0,0.0,0.0,0.0,0.0,0.0,0.0,0.0,0.0,0.0,0.0,0.0,0.0,0.0,0.0,0.0,0.0,0.0,0.0,0.0,0.0,0.0,0.0,0.0,0.0,0.0,0.0,0.0,0.0,0.0,0.0,0.0,0.0,0.0,0.0,0.0,0.0,0.0,0.0,0.0,0.0,0.0,0.0,0.0,0.0,0.0,0.0,0.0,0.0,0.0,0.0,0.0,0.0,0.0,0.0,0.0,0.0,0.0,0.0,0.0,0.0,0.0,0.0,0.0,0.0,0.0,0.0,0.0,0.0,0.0,0.0,0.0,0.0,0.0,0.0,0.0,0.0,0.0,0.0,0.0,0.0,0.0,0.0,0.0,0.0,0.0,0.0,0.0,0.0,0.0,0.0,0.0,0.0,0.0,0.0,0.0,0.0,0.0,0.0,0.0,0.0,0.0,0.0,0.0,0.0,0.0,0.0,0.0,0.0,0.0,0.0,0.0,0.0,0.0,0.0,0.0,0.0,0.0,0.0,0.0,0.0,0.0,0.0,0.0,0.0,0.0,0.0,0.0,0.0,0.0,0.0,0.0,0.0,0.0,0.0,0.0,0.0,0.0,0.0,0.0,0.0,0.0,0.0,0.0,0.0,0.0,0.0,0.0,0.0,0.0,0.0,0.0,0.0,0.0,0.0,0.0,0.0,0.0,0.0,0.0,0.0,0.0,0.0,0.0,0.0,0.0,0.0,0.0,0.0,0.0,0.0,0.0,0.0,0.0,0.0,0.0,0.0,0.0,0.0,0.0,0.0,0.0,0.0,0.0,0.0,0.0,0.0,0.0,0.0,0.0,0.0,0.0,0.0,0.0,0.0,0.0,0.0,0.0,0.0,0.0,0.0,0.0,0.0,0.0,0.0,0.0,0.0,0.0,0.0,0.0,0.0,0.0,0.0,0.0,0.0,0.0,0.0,0.0,0.0,0.0,0.0,0.0,0.0,0.0,0.0,0.0,0.0,0.0,0.0,0.0,0.0,0.0,0.0,0.0,0.0,0.0,0.0,0.0,0.0,0.0,0.0,0.0,0.0,0.0,0.0,0.0,0.0,0.0,0.0,0.0,0.0,0.0,0.0,0.0,0.0,0.0,0.0,0.0,0.0,0.0,0.0,0.0,0.0,0.0,0.0,0.0,0.0,0.0,0.0,0.0,0.0,0.0,0.0,0.0,0.0,0.0,0.0,0.0,0.0,0.0,0.0,0.0,0.0,0.0,0.0,0.0,0.0,0.0,0.0,0.0,0.0,0.0,0.0,0.0,0.0,0.0,0.0,0.0,0.0,0.0,0.0,0.0,0.0,0.0,0.0,0.0,0.0,0.0,0.0,0.0,0.0,0.0,0.0,0.0,0.0,0.0,0.0,0.0,0.0,0.0,0.0,0.0,0.0,0.0,0.0,0.0,0.0,0.0,0.0,0.0,0.0,0.0,0.0,0.0,0.0,0.0,0.0,0.0,0.0,0.0,0.0,0.0,0.0,0.0,0.0,0.0,0.0,0.0,0.0,0.0,0.0,0.0,0.0,0.0,0.0,0.0,0.0,0.0,0.0,0.0,0.0,0.0,0.0,0.0,0.0,0.0,0.0,0.0,0.0,0.0,0.0,0.0,0.0,0.0,0.0,0.0,0.0,0.0,0.0,0.0,0.0,0.0,0.0,0.0,0.0,0.0,0.0,0.3425,0.0,0.0,0.0,0.0,0.0,0.0,0.0,0.0,0.0,0.0,0.0,0.0,0.0,0.0,0.0,0.0,0.0,0.0,0.0,0.0,0.0,0.0,0.0,0.0,0.8637,0.9046,0.9613,0.9918,1.014,1.0302,0.0,0.0,0.0,0.0,0.0,1.1775,1.2048,1.234,1.2653,1.3293,1.3477,1.3292,1.3292,1.2663,1.1516,0.0,0.0,0.0,0.0,0.0,0.0,0.0,0.0,0.0,0.0,0.0,0.0,0.0,0.0,0.0,0.0,0.0,0.0,0.0,0.0,0.0,0.0,0.0,0.0,0.0,0.0,0.0,0.0,0.0,0.0,0.0,0.0,0.0,0.0,0.0,0.0,0.0,0.0,0.0,0.0,0.0,0.0,0.0,0.0,0.0,0.0,0.0,0.0,0.0,0.0,0.0,0.0,0.0,0.0,0.0,0.0,0.0,0.0,0.0,0.0,0.0,0.0,0.0,0.0,0.0,0.0,0.0,0.0,0.0,0.0,0.0,0.3297,0.0,0.0,0.0,0.0,0.0,0.0,0.0,0.0,0.0,0.0,0.0,0.0,0.0,0.0,0.0,0.0,0.0,0.0,0.0,0.0,0.0,0.6952,0.8144,0.8399,0.876,0.949,0.9709,0.9947,1.0243,1.0482,0.0,0.0,0.0,1.1766,1.2185,1.2479,1.3066,1.4012,1.4323,1.476,1.5276,1.5437,1.4751,1.3438,1.375,0.0,0.0,0.0,0.0,0.0,0.0,0.0,0.0,0.0,0.0,0.0,0.0,0.0,0.0,0.0,0.0,0.0,0.0,0.0,0.0,0.0,0.0,0.0,0.0,0.0,0.0,0.0,0.0,0.0,0.0,0.0,0.0,0.0,0.0,0.0,0.0,0.0,0.0,0.0,0.0,0.0,0.0,0.0,0.0,0.0,0.0,0.0,0.0,0.0,0.0,0.0,0.0,0.0,0.0,0.0,0.0,0.0,0.0,0.0,0.0,0.0,0.0,0.0,0.3459,0.2767,0.2767,0.2283,0.2356,0.2938,0.3035,0.3195,0.3357,0.0,0.0,0.0,0.0,0.0,0.0,0.0,0.0,0.0,0.0,0.0,0.0,0.0,0.0,0.0,0.0,0.0,0.0,0.0,0.0,0.7339,0.8423,0.9178,0.9838,1.0464,1.0646,1.0766,1.0878,1.1025,0.0,0.0,1.1809,1.2193,1.294,1.2783,1.3109,1.4012,1.5631,1.6686,1.716,1.7925,1.7964,1.7353,1.5485,1.459,1.4406,0.0,0.0,0.0,0.0,0.0,0.0,0.0,0.0,0.0,0.0,0.0,0.0,0.0,0.0,0.0,0.0,0.0,0.0,0.0,0.0,0.0,0.0,0.0,0.0,0.0,0.0,0.0,0.0,0.0,0.0,0.0,0.0,0.0,0.0,0.0,0.0,0.0,0.0,0.0,0.0,0.0,0.8003,0.8376,0.0,0.0,0.0,0.0,0.0,0.0,0.0,0.0,0.0,0.0,0.0,0.0,0.0,0.6203,0.642,0.5204,0.4604,0.4622,0.3313,0.2727,0.2727,0.2644,0.2644,0.2767,0.347,0.0,0.2955,0.2806,0.0,0.0,0.0,0.0,0.0,0.0,0.0,0.0,0.0,0.0,0.0,0.0,0.0,0.0,0.0,0.0,0.0,0.0,0.0,0.0,0.0,0.9571,1.0195,1.0875,1.1196,1.1328,1.1281,1.133,1.1457,1.1675,1.2048,1.2537,1.3132,1.3741,1.4741,1.6182,1.7697,1.8541,1.8742,1.9128,1.9211,1.9001,1.8001,1.6932,1.5799,1.4722,0.0,0.0,0.0,0.0,0.0,0.0,0.0,0.0,0.0,0.0,0.0,0.0,0.0,0.0,0.0,0.0,0.0,0.0,0.0,0.0,0.0,0.0,0.0,0.0,0.0,0.0,0.0,0.0,0.0,0.0,0.0,0.0,0.0,0.0,0.0,0.0,0.0,0.0,0.0,0.8078,0.854,0.8242,0.8263,0.7991,0.0,0.0,0.0,0.0,0.0,0.0,0.0,0.0,0.0,0.6725,0.7011,0.7318,0.7696,0.6086,0.5317,0.5428,0.3712,0.2938,0.2938,0.2938,0.2938,0.2938,0.3295,0.3254,0.2907,0.3099,0.2638,0.1793,0.0,0.0,0.0,0.0,0.1387,0.1502,0.0,0.0,0.0,0.0,0.0,0.0,0.0,0.0,0.0,0.0,0.0,0.0,0.9263,0.969,1.0191,1.1024,1.1324,1.1428,1.1354,1.1399,1.1476,1.1619,1.2148,1.2727,1.3396,1.4986,1.6469,1.7788,1.9347,2.006,2.0007,2.0224,2.0338,2.0338,2.0338,1.9293,1.7483,1.6582,1.5217,1.3622,0.0,0.0,0.0,0.0,0.0,0.0,0.0,0.0,0.0,0.0,0.0,0.0,0.0,0.0,0.0,0.0,0.0,0.0,0.0,0.0,0.0,0.0,0.0,0.0,0.0,0.0,0.0,0.0,0.0,0.0,0.0,0.0,0.0,0.0,0.0,0.0,0.0,0.8607,0.8933,0.8343,0.8587,0.8399,0.0,0.0,0.0,0.0,0.0,0.0,0.661,0.692,0.7272,0.766,0.7967,0.8339,0.8743,0.6855,0.5934,0.6072,0.4042,0.3097,0.3097,0.3097,0.3097,0.3097,0.3097,0.3045,0.2946,0.3173,0.2859,0.2243,0.1605,0.1107,0.0808,0.1542,0.1809,0.1984,0.0,0.0,0.0,0.0,0.0,0.0,0.0,0.0,0.0,0.0,0.0,0.7853,0.9342,0.9506,0.9955,1.1013,1.0949,1.0864,0.0,1.1113,1.1439,1.1959,1.2133,1.2758,1.393,1.6452,1.7686,1.7516,2.0014,2.1094,2.0868,2.1681,2.2063,2.2063,2.2063,2.1234,1.9715,1.7971,1.7269,1.7086,1.4182,0.0,0.0,0.0,0.0,0.0,0.0,0.0,0.0,0.0,0.0,0.0,0.0,0.0,0.0,0.0,0.0,0.0,0.0,0.0,0.0,0.0,0.0,0.0,0.0,0.0,0.0,0.0,0.0,0.0,0.0,0.0,0.0,0.0,0.0,0.0,0.0,0.0,0.0,0.9242,0.8865,0.0,0.0,0.0,0.0,0.6703,0.6972,0.7334,0.7714,0.8032,0.8385,0.8698,0.8934,0.9043,0.9072,0.7095,0.6114,0.6072,0.4042,0.3097,0.3097,0.3097,0.3097,0.3097,0.3097,0.3093,0.3073,0.271,0.2358,0.1975,0.1695,0.1327,0.113,0.2216,0.2527,0.2607,0.0,0.0,0.0,0.0,0.0,0.4302,0.4741,0.4963,0.5576,0.6939,0.7454,0.8144,0.9376,0.992,1.0372,1.0743,1.0941,1.1143,1.1348,1.1082,1.1469,1.2647,1.2665,1.3703,1.5947,1.73,1.8275,1.8914,2.0207,2.0965,2.123,2.118,2.1541,2.2184,2.1664,2.1417,2.1312,1.971,1.842,1.7274,1.5814,1.4263,0.0,0.0,0.0,0.0,0.0,0.0,0.0,0.0,0.0,0.0,0.0,0.0,0.0,0.0,0.0,0.0,0.0,0.0,0.0,0.0,0.0,0.0,0.0,0.0,0.0,0.0,0.0,0.0,0.0,0.0,0.0,0.0,0.0,0.0,0.0,0.0,0.0,0.9358,0.915,0.0,0.7601,0.7575,0.7606,0.7541,0.7979,0.8308,0.8438,0.8678,0.8869,0.8995,0.9169,0.931,0.931,0.7279,0.664,0.7277,0.4491,0.351,0.415,0.3461,0.3165,0.3165,0.3165,0.3143,0.3151,0.3698,0.3305,0.2386,0.2292,0.2295,0.247,0.2843,0.3222,0.3669,0.0,0.0,0.0,0.0,0.4082,0.4417,0.4743,0.5173,0.589,0.7074,0.7578,0.8265,0.9398,0.9892,1.0254,1.0564,1.0831,1.1164,1.1582,1.1269,1.1681,1.3065,1.3588,1.4788,1.6816,1.8007,1.8933,1.9592,2.0445,2.1006,2.1264,2.1006,2.1261,2.1898,2.1554,2.1616,2.187,2.1087,1.9877,1.8416,1.7336,1.6062,1.4739,0.0,0.0,0.0,0.0,0.0,0.0,0.0,0.0,0.0,0.0,0.0,0.0,0.0,0.0,0.0,0.0,0.0,0.0,0.0,0.0,0.0,0.0,0.0,0.0,0.0,0.0,0.0,0.0,0.0,0.0,0.0,0.0,0.0,0.0,0.0,1.0166,0.9735,0.9507,0.8978,0.7987,0.817,0.8377,0.8377,0.871,0.8938,0.8999,0.9116,0.9214,0.9275,0.9388,0.9445,0.9445,0.7773,0.7273,0.7971,0.5479,0.463,0.5281,0.4232,0.3932,0.428,0.3882,0.3904,0.4248,0.4986,0.4671,0.3705,0.333,0.3177,0.322,0.3615,0.3961,0.4276,0.0,0.0,0.0,0.378,0.4081,0.4422,0.475,0.537,0.607,0.6812,0.7376,0.8204,0.9432,0.9356,0.9582,1.0499,1.0574,1.088,1.1551,1.1586,1.2059,1.3185,1.4821,1.5959,1.6445,1.8644,1.9653,1.9413,2.0713,2.1224,2.0993,2.1275,2.1396,2.1444,2.1953,2.1896,2.1477,2.1967,2.1704,2.0731,1.8774,1.8084,1.8015,0.0,0.0,0.0,0.0,0.0,0.0,0.0,0.0,0.0,0.0,0.0,0.0,0.0,0.0,0.0,0.0,0.0,0.0,0.0,0.0,0.0,0.0,0.0,0.0,0.0,0.0,0.0,0.0,0.0,0.0,0.0,0.0,0.0,1.1217,1.0835,1.06,1.0612,0.9985,0.9311,0.8733,0.8947,0.9104,0.9104,0.9108,0.9185,0.9404,0.9412,0.9445,0.9571,0.9579,0.9579,0.9579,0.8524,0.8021,0.8024,0.6921,0.6423,0.6423,0.5331,0.5429,0.6323,0.5281,0.5432,0.6423,0.6423,0.6274,0.5956,0.4777,0.3899,0.3377,0.4612,0.4788,0.4553,0.0,0.0,0.364,0.365,0.413,0.4566,0.4703,0.5462,0.6234,0.6824,0.7575,0.8305,0.8944,0.9308,0.9603,0.984,0.9966,1.0464,1.1525,1.1318,1.1978,1.3845,1.5441,1.6703,1.7605,1.8696,1.937,1.9687,2.0054,2.0396,2.0709,2.0836,2.1275,2.1984,2.1969,2.2128,2.2324,2.2194,2.1759,2.1125,2.0167,1.9323,1.8515,0.0,0.0,0.0,0.0,0.0,0.0,0.0,0.0,0.0,0.0,0.0,0.0,0.0,0.0,0.0,0.0,0.0,0.0,0.0,0.0,0.0,0.0,0.0,0.0,0.0,0.0,0.0,0.0,0.0,0.0,0.0,0.0,1.2895,1.2727,1.257,1.2544,1.2779,1.1509,1.0543,1.035,0.9707,0.9331,0.9331,0.9409,0.9502,0.9551,0.9551,0.9575,0.9575,0.9579,0.9579,0.9579,0.8524,0.8372,0.9126,0.7273,0.6822,0.7521,0.6426,0.6124,0.6373,0.6077,0.6124,0.6473,0.7223,0.7425,0.7062,0.5917,0.5526,0.5665,0.5968,0.6341,0.673,0.0,0.3461,0.3568,0.3733,0.4209,0.4634,0.4876,0.5704,0.6481,0.6923,0.7816,0.8541,0.8858,0.9308,0.964,0.9751,0.9844,1.0357,1.1452,1.1886,1.2794,1.4374,1.6023,1.7161,1.7737,1.9039,1.9758,1.9807,2.0282,2.0661,2.099,2.1015,2.1344,2.1917,2.2028,2.2184,2.2361,2.2267,2.2003,2.1587,2.0972,2.0197,1.9307,1.8625,1.8059,1.753,1.6832,1.6271,1.5753,1.4964,0.0,0.0,0.0,0.0,0.0,0.0,0.0,0.0,0.0,0.0,0.0,0.0,0.0,0.0,0.0,0.0,0.0,0.0,0.0,0.0,0.0,0.0,0.0,0.0,1.3521,1.4199,1.4569,1.3913,1.3568,1.4005,1.2314,1.1091,1.1085,1.0119,0.947,0.947,0.9567,0.9579,0.9579,0.9579,0.9579,0.9579,0.9579,0.9579,0.9579,0.8977,0.8977,0.9579,0.8322,0.8071,0.8623,0.7574,0.7322,0.0,0.7273,0.7322,0.7773,0.8425,0.8528,0.0,0.0,0.0,0.0,0.0,0.6917,0.7678,0.0,0.3423,0.3571,0.3936,0.4303,0.4692,0.5111,0.5956,0.6677,0.7026,0.7969,0.8698,0.8928,0.9294,0.9629,0.9887,0.9946,1.0421,0.0,1.2887,1.4032,1.4857,1.649,1.736,1.7376,1.947,2.0345,1.9865,2.0825,2.1313,2.1409,2.1459,2.1484,2.1484,2.2118,2.2268,2.2058,2.2339,2.23,2.2016,2.1341,2.0755,2.0207,1.9339,1.9373,1.9735,1.8879,1.8558,1.8312,1.6606,0.0,0.0,0.0,0.0,0.0,0.0,0.0,0.0,0.0,0.0,0.0,0.0,0.0,0.0,0.0,0.0,0.0,0.0,0.0,0.0,0.0,0.0,0.0,0.0,1.4853,1.5409,1.6345,1.505,1.4185,1.4628,1.2681,1.1312,1.1297,1.0306,0.9628,0.9628,0.9628,0.9628,0.9579,0.0,0.0,0.0,0.0,0.9628,0.9579,0.9677,0.9677,0.9579,0.9628,0.9628,0.9579,0.8623,0.8722,0.9529,0.8574,0.8722,0.9579,0.9579,0.948,0.9183,0.8375,0.7624,0.6915,0.6557,0.7006,0.7818,0.0,0.3578,0.3848,0.3978,0.4501,0.4934,0.5025,0.5691,0.6379,0.6864,0.7591,0.8183,0.8556,0.8805,0.9059,0.934,0.9554,1.0465,1.2335,1.3526,1.4567,1.5487,1.664,1.7412,1.7781,1.9063,1.9947,2.0361,2.0053,2.0158,2.0701,2.1129,2.1352,2.1394,2.2451,2.2913,2.2883,2.2811,2.2485,2.1911,2.1613,2.1225,2.0731,1.9655,1.9307,1.9331,1.8662,1.8398,1.8246,1.7624,1.6983,1.6371,1.5905,1.4981,0.0,0.0,0.0,0.0,0.0,0.0,0.0,0.0,0.0,0.0,0.0,0.0,0.0,0.0,0.0,0.0,0.0,0.0,0.0,1.4718,1.5548,1.625,1.6741,1.6344,1.5781,1.5245,1.3009,1.1711,1.2042,1.0792,0.992,0.992,0.992,0.9821,0.9628,0.9579,0.9579,0.9579,0.9826,0.9826,0.9579,1.0019,1.0019,0.9579,0.0,0.0,0.9579,0.9377,0.9426,0.9579,0.9377,0.9426,0.9579,0.9579,0.9579,0.943,0.863,0.823,0.8077,0.7753,0.7796,0.7941,0.3816,0.3922,0.409,0.4531,0.4901,0.5269,0.565,0.6181,0.6683,0.7044,0.7655,0.8158,0.8414,0.8617,0.8838,0.9032,0.9723,1.08,1.2337,1.3611,1.4718,1.5649,1.6894,1.751,1.7448,1.9045,1.9908,1.9968,2.019,2.0469,2.0815,2.1061,2.1197,2.124,2.2189,2.2586,2.2616,2.2805,2.2669,2.226,2.1799,2.1447,2.1117,2.0211,1.9674,1.9422,1.933,1.929,1.9105,1.8216,1.7678,1.7242,1.6362,1.5527,1.4721,0.0,0.0,0.0,0.0,0.0,0.0,0.0,0.0,0.0,0.0,0.0,0.0,0.0,0.0,1.3007,0.0,0.0,1.535,1.5818,1.6301,1.6771,1.7047,1.6436,1.6011,1.6111,1.3897,1.2436,1.2684,1.0939,0.9826,0.9826,0.9826,0.9764,0.9754,0.9673,0.9665,0.9754,0.9772,0.9727,0.9579,0.9871,0.992,0.9826,0.992,0.992,0.9826,0.9826,0.9727,0.9579,0.9579,0.9579,0.9579,0.9579,0.9579,0.9529,0.9031,0.873,0.8581,0.8287,0.8137,0.7988,0.4369,0.44,0.4531,0.5202,0.5429,0.5723,0.6312,0.6712,0.6999,0.7181,0.7685,0.8082,0.8204,0.8409,0.8639,0.8898,1.0132,1.1352,1.237,1.3706,1.4852,1.5811,1.7155,1.7626,1.7151,1.9067,1.9894,1.9549,2.0327,2.0773,2.0901,2.0901,2.0901,2.0933,2.1741,2.2101,2.2144,2.2702,2.2848,2.2671,2.2048,2.1607,2.121,2.0667,2.0116,1.9675,1.9887,1.9876,1.9534,1.83,1.7849,1.7599,1.6336,1.5655,1.5188,1.4583,1.3922,0.0,0.0,0.0,0.0,0.0,0.0,0.0,0.0,1.2909,1.3518,1.3145,1.3762,1.4531,1.5068,1.5701,1.6265,1.6815,1.6954,1.7033,1.7296,1.6412,1.6082,1.6972,1.4704,1.3119,1.3264,1.1473,1.031,1.0359,1.0117,1.0033,1.0176,0.9834,0.9726,0.9831,0.9834,0.976,0.9579,0.9826,0.992,1.0019,1.0117,1.0117,1.0068,1.0019,0.9871,0.9677,0.9628,0.9579,0.9579,0.9579,0.9579,0.9579,0.9381,0.913,0.8829,0.8531,0.8283,0.8088,0.0,0.5001,0.5549,0.5708,0.6084,0.638,0.6398,0.659,0.6756,0.6834,0.7217,0.7496,0.7511,0.7809,0.8251,0.8935,1.0641,1.2125,1.3208,1.4296,1.5339,1.6288,1.723,1.7677,1.7626,1.8688,1.9476,2.0019,1.9562,1.9616,2.0193,2.0193,2.0193,2.0258,2.1542,2.2101,2.2132,2.2793,2.2987,2.2848,2.2647,2.1895,2.0855,2.0648,2.0234,1.9706,1.9289,1.8686,1.8021,1.7601,1.7317,1.7029,1.6565,1.6378,1.627,1.5962,1.4935,1.3931,1.4046,1.337,1.27,1.2956,1.3094,1.3271,0.0,1.4415,1.4852,1.5024,1.5382,1.5804,1.614,1.6551,1.6815,1.6888,1.7091,1.7289,1.7279,1.7185,1.7138,1.7239,1.4794,1.327,1.3757,1.3125,1.2834,1.3028,1.2014,1.1296,1.1061,1.0325,0.9795,0.9661,1.0246,1.0242,0.9628,1.0556,1.0654,1.0019,1.0462,1.0605,1.0364,1.0117,0.9969,0.992,0.9723,0.9579,0.9579,0.9579,0.9579,0.9579,0.9579,0.9381,0.9084,0.8584,0.8382,0.8333,0.0,0.5552,0.6104,0.6438,0.6623,0.6794,0.696,0.7121,0.7227,0.7203,0.7432,0.767,0.7959,0.831,0.8709,0.9139,1.0618,1.1993,1.3091,1.4312,1.5411,1.6371,1.6955,1.743,1.7699,1.835,1.8959,1.9528,1.9231,1.9231,1.9528,1.9528,1.9528,1.9584,2.0921,2.1534,2.1585,2.2659,2.3017,2.2878,2.2739,2.2121,2.1224,2.0759,2.0081,1.9251,1.8565,1.8076,0.0,1.6974,1.6678,1.6524,1.6199,1.6031,1.5899,1.5412,1.5192,1.505,1.4785,1.4391,1.3978,1.3618,1.4155,1.4806,1.4996,1.5607,1.6141,1.6202,1.6462,1.664,1.6675,1.6916,1.7128,0.0,1.7245,1.7279,1.7279,1.7279,1.7239,1.716,1.6103,1.5188,1.4794,1.3878,1.3397,1.3494,1.3017,1.245,1.1796,1.1321,1.083,1.0238,1.0408,1.0397,1.0068,1.0507,1.0659,1.0462,1.0708,1.0752,1.0605,1.0511,1.0314,0.9969,0.9871,0.9723,0.9579,0.9579,0.9579,0.9579,0.9579,0.9529,0.9381,0.8985,0.8684,0.8382,0.0,0.5925,0.6496,0.6919,0.7092,0.7244,0.7396,0.7539,0.7622,0.7616,0.7768,0.8068,0.8511,0.8963,0.9279,0.9419,1.07,1.1932,1.2888,1.4241,1.5359,1.6184,1.6707,1.7172,1.7502,1.8092,1.8579,1.8911,1.9046,1.9108,1.9108,1.9108,1.9108,1.9164,2.0484,2.1092,2.1187,2.2537,2.296,2.2715,2.2547,2.1979,2.1148,2.0427,1.9533,1.8591,1.8003,1.7582,1.7128,1.6198,1.5897,1.5836,1.549,1.543,1.5485,1.5297,1.569,1.6005,1.5164,1.4993,1.4901,1.4275,1.494,1.5709,1.5759,1.6379,1.6881,1.6792,1.6952,1.7055,1.6831,1.6982,1.7201,1.7201,1.7274,1.7279,1.7279,1.7279,1.7239,1.7113,1.7066,1.677,1.5981,1.4978,1.4399,1.4453,1.4118,1.3699,1.3121,1.2727,1.2258,1.1733,1.1391,1.1166,1.1061,1.0812,1.074,1.0888,1.0883,1.09,1.09,1.085,1.0556,1.0117,1.0117,0.9969,0.9727,0.9727,0.9677,0.9579,0.9579,0.9579,0.9579,0.9381,0.9031,0.863,0.0,0.0,0.6824,0.6972,0.7481,0.7782,0.7539,0.7608,0.7737,0.788,0.8179,0.8532,0.8933,0.945,0.9776,0.9776,1.1191,1.2277,1.2769,1.4192,1.5214,1.5691,1.6541,1.7017,1.7027,1.7926,1.8414,1.8434,1.888,1.9108,1.9108,1.9108,1.9108,1.9164,2.0484,2.1092,2.1187,2.2537,2.2794,2.2318,2.2038,2.1252,2.0165,1.9347,1.8541,1.7833,1.7796,1.7013,1.5843,1.5107,1.4889,1.4858,1.4393,1.4781,1.5547,1.6328,1.6738,1.6665,1.5203,1.4994,1.5155,1.5001,1.5096,1.5427,1.6112,1.658,1.6868,1.6802,1.6862,1.6807,1.6485,1.669,1.6917,1.6917,1.7128,1.7279,1.7279,1.7279,1.7279,1.7286,1.7286,1.7279,0.0,1.6817,1.6636,1.6885,1.5669,1.5069,1.5403,1.4595,1.4174,1.4275,1.3631,1.307,1.2633,1.1849,1.1359,1.1102,1.1149,1.1194,1.1198,1.09,1.0659,1.0413,1.0413,1.0216,0.9969,0.9969,0.9821,0.9579,0.9579,0.9579,0.9579,0.9579,0.943,0.9133,0.0,0.0,0.0,0.7172,0.7598,0.796,0.8131,0.8091,0.8123,0.8406,0.888,0.0,0.0,0.0,0.0,0.0,1.1196,1.212,1.275,1.3566,1.4377,1.5194,1.5815,1.6291,1.6601,1.7181,1.7616,1.7957,1.8081,1.8185,1.8185,1.8185,1.834,1.8674,2.0026,2.0618,2.0661,2.201,2.261,2.2621,2.1695,2.1227,2.1002,1.9936,1.8627,1.7302,0.0,1.6464,1.5523,1.469,1.4424,1.4391,1.4146,1.4198,1.4574,1.5692,1.6109,1.6229,1.6368,1.6342,1.6263,1.6261,1.6357,1.6561,1.7052,1.7106,1.7055,1.7041,1.6929,1.6736,1.6433,1.6499,1.6646,1.6866,1.6991,1.7091,1.725,1.7279,1.7279,1.7279,1.7279,0.0,0.0,0.0,0.0,1.72,1.7001,1.6629,1.6038,1.5968,1.5614,1.4951,1.4736,1.4532,1.4343,1.4066,1.3797,1.3535,1.2655,1.1868,1.1194,1.1096,1.09,1.0654,1.0654,1.0413,1.0019,1.0019,0.9821,0.9579,0.9579,0.9579,0.9579,0.9579,0.9529,0.943,0.0,0.0,0.0,0.0,0.0,0.0,0.0,0.0,0.0,0.0,0.0,0.0,0.0,0.0,0.0,0.0,0.0,1.1974,1.2453,1.2917,1.3546,1.4368,1.4687,1.5139,1.5756,1.6015,1.6437,1.7052,1.7277,1.7564,1.7935,1.7791,1.7968,1.8511,1.939,1.9879,2.0132,2.1231,2.1836,2.1952,2.089,2.0452,2.0313,1.9032,1.7772,0.0,1.6141,1.5602,1.498,1.4216,1.4,1.4046,1.3962,1.4398,1.5044,1.5591,1.6206,1.6732,1.6999,1.7021,1.7025,1.7114,1.7218,1.7353,1.7574,1.737,1.7039,1.6771,1.649,1.6187,1.5773,1.5782,1.6001,1.6492,1.6653,1.6917,1.7421,1.7399,1.7323,1.7439,1.7501,1.741,0.0,0.0,0.0,1.7286,1.7633,1.757,1.7037,1.7335,1.7248,1.6682,1.6279,1.6068,1.6068,1.5565,1.5172,1.4904,1.4039,1.3182,1.2475,1.2475,1.233,1.2058,1.2058,1.1814,1.137,1.1277,1.0939,1.0453,1.0359,1.0068,0.9723,0.9723,0.9677,0.9579,0.0,0.0,0.0,0.0,0.0,0.0,0.0,0.0,0.0,0.0,0.0,0.0,0.0,0.0,0.0,0.0,0.0,0.0,1.1902,1.2335,1.2787,1.3267,1.3338,1.3754,1.457,1.4641,1.505,1.5861,1.6412,1.721,1.8214,1.7768,1.7891,1.8455,1.8594,1.8952,1.9552,2.0234,2.0489,2.0374,1.9684,1.8999,1.826,1.686,1.6138,1.5773,1.5025,1.4581,1.4307,1.3757,1.3712,1.3902,1.3933,1.534,1.6838,1.6093,1.7005,1.8032,1.7101,1.7152,1.749,1.7621,1.7636,1.762,1.7583,1.7364,1.6877,1.5962,1.5579,1.5201,1.4609,1.4731,1.5131,1.5824,1.6198,1.6749,1.7677,1.7545,1.7425,0.0,0.0,0.0,0.0,0.0,0.0,1.7399,0.0,1.7984,1.8313,1.8635,1.8957,1.9264,1.8272,1.7687,1.7687,1.6339,1.5542,1.5336,1.5267,1.512,1.4814,1.4814,1.4619,1.4316,1.4316,1.4172,1.3878,1.365,1.2926,1.2052,1.1824,1.1096,1.0162,1.0162,1.0019,0.9772,0.0,0.0,0.0,0.0,0.0,0.0,0.0,0.0,0.0,0.0,0.0,0.0,0.0,0.0,0.0,0.0,0.0,0.0,1.1969,1.2227,1.255,1.2979,1.381,1.4367,1.4592,1.4995,1.53,1.5531,1.528,1.5284,1.556,1.5871,1.6242,1.6689,1.7623,1.8066,1.8173,1.8887,1.9331,1.9462,1.8471,1.8281,1.8439,1.7331,1.6356,1.5591,1.536,1.4845,1.4289,1.448,1.4917,1.5416,1.5648,1.6142,1.6713,1.7098,1.7339,1.7514,1.7767,1.7932,1.8113,1.8254,1.8055,1.7771,1.7402,1.6835,1.6156,1.5283,1.5183,1.5079,1.4578,1.4904,1.5487,1.617,1.6346,0.0,1.7677,1.7743,0.0,1.8138,1.8174,1.8145,1.8064,1.813,0.0,0.0,1.813,1.8321,1.865,1.8979,1.9191,1.9324,1.9011,1.8855,1.8855,1.8269,1.7555,1.6752,1.6529,1.5825,1.4814,1.4814,1.4619,1.4316,1.4316,1.4172,1.3872,1.383,1.3542,1.3102,1.306,1.2866,1.2571,1.2387,1.2247,1.2052,0.0,0.0,0.0,0.0,0.0,0.0,0.0,0.0,0.0,0.0,0.0,0.0,0.0,0.0,0.0,0.0,0.0,0.0,0.0,1.1718,1.1865,1.2276,1.2732,1.3162,1.355,1.4071,1.4307,1.4258,1.4651,1.4888,1.4906,1.5256,1.5646,1.6107,1.6639,1.6985,1.7215,1.772,1.815,0.0,0.0,1.7314,1.748,1.6438,1.5666,1.5134,1.5039,1.5055,1.5175,1.556,1.5997,1.6467,1.6858,1.7541,1.8176,1.8038,1.8285,1.851,1.8276,1.8378,1.8536,1.8603,1.8391,1.7969,1.7332,1.6705,1.6038,1.5118,1.5003,1.4863,1.4193,1.4592,1.5187,1.5673,1.6,1.6608,1.7852,1.7904,1.7991,1.846,1.8518,1.846,1.8313,1.843,1.8518,0.0,1.8518,1.8591,1.8782,1.9096,1.9279,1.9279,1.9279,1.9279,1.9279,1.9096,1.8737,1.8156,1.7981,1.7427,1.6577,1.6394,1.6175,1.5842,0.0,1.5507,1.5406,1.5324,1.4937,1.4495,1.4358,1.407,1.368,1.3494,1.3307,1.3022,0.0,0.0,0.0,0.0,0.0,0.0,0.0,0.0,0.0,0.0,0.0,0.0,0.0,0.0,0.0,0.0,0.0,0.0,0.0,0.0,1.1199,1.1538,1.1293,1.1512,1.2278,1.2737,1.2953,1.2903,1.4216,1.4924,1.5057,1.5193,1.5528,1.5947,1.5733,1.592,1.6428,1.6649,1.6954,1.7219,1.6562,1.622,1.5998,0.0,0.0,1.4639,1.4466,1.5126,1.6181,1.6567,1.6971,1.7409,1.7895,1.9109,2.0111,1.8972,1.9367,1.9855,1.8693,1.868,1.8996,1.8902,1.8627,1.824,1.7335,1.6827,1.6228,1.5066,1.4909,1.4656,1.3786,1.4148,1.4684,1.5023,1.5543,1.6462,1.8021,1.8028,1.8108,1.8716,1.8825,1.8745,1.846,1.8686,1.8855,1.8855,1.8855,1.8855,1.8855,1.9118,1.9279,1.9279,1.9279,1.9279,1.9279,1.9279,1.9279,1.9279,1.9279,1.9103,1.8774,1.8452,1.8123,1.7801,0.0,0.0,1.7286,1.7113,1.6629,1.5994,1.5764,1.5134,1.4358,1.431,1.4028,1.3601,0.0,0.0,0.0,0.0,0.0,0.0,0.0,0.0,0.0,0.0,1.1553,1.1884,0.0,0.0,0.0,0.0,0.0,0.0,0.0,0.0,0.0,1.1748,1.2283,1.2619,1.278,1.2812,1.3011,1.3385,1.3278,1.3398,1.3748,1.432,1.4624,1.4742,1.507,1.5256,1.5372,1.5418,1.5464,1.5521,1.5395,1.52,1.4958,0.0,0.0,0.0,1.4396,1.4716,1.5304,1.6344,1.7671,1.9,1.9696,1.9965,1.9982,1.9964,1.9649,1.9212,1.883,1.936,1.9909,1.9292,1.923,1.8959,1.7723,1.6793,1.5867,1.4781,1.4874,1.497,1.4441,1.4605,1.5132,1.5997,1.5991,1.6382,1.7713,1.8086,1.8357,1.8745,1.903,1.9169,1.9111,1.9162,0.0,0.0,0.0,1.9191,1.9191,1.9294,1.9279,1.9279,1.9279,1.9279,1.9279,1.9279,1.9279,1.9279,1.9279,1.9103,1.8774,1.8452,1.8123,1.7801,1.7472,0.0,1.7279,1.7239,1.7192,1.7044,1.6998,1.685,1.6702,1.6534,1.64,1.6157,0.0,0.0,0.0,0.0,0.0,0.0,0.0,1.228,1.28,1.298,1.2966,1.2758,1.2268,1.2238,1.2179,0.0,0.0,0.0,0.0,0.0,0.0,0.0,1.2013,1.2082,1.2025,1.2697,1.2926,1.2658,0.0,1.3671,1.3453,1.3962,1.4267,1.4396,1.4708,1.4869,1.4903,1.504,1.5108,1.5085,1.4949,1.4811,0.0,0.0,0.0,0.0,1.4396,1.4733,1.5299,1.6099,1.7313,1.8685,1.9986,2.0604,2.0921,2.1005,2.0917,2.0753,2.0418,2.0664,2.0873,2.0307,1.9876,1.9317,1.799,1.7026,1.6133,1.5155,1.5135,1.5149,1.4595,1.4623,1.4839,1.5341,1.5287,1.5665,1.7113,1.745,1.786,1.8694,1.8928,1.9089,1.9257,1.9279,1.9279,1.9279,0.0,1.9279,1.9279,1.9279,1.9279,1.9279,1.9279,1.9279,1.9279,1.9279,1.9279,1.9279,1.9279,1.9199,1.9023,1.8525,1.8218,1.8043,1.7545,0.0,1.7279,1.7279,1.7279,1.7279,1.7279,1.7279,1.7286,1.72,1.7113,1.6885,0.0,0.0,0.0,0.0,0.0,0.0,0.0,1.3155,1.3715,1.4313,1.4233,1.3719,1.2629,1.2484,1.2215,0.0,0.0,0.0,0.0,0.0,0.0,0.0,0.0,1.1408,1.1494,0.0,0.0,1.2313,1.3796,0.0,0.0,0.0,0.0,0.0,1.4407,1.4523,1.4605,1.4811,1.4926,0.0,0.0,1.49,0.0,0.0,0.0,0.0,0.0,1.4858,1.535,1.5797,1.6567,1.7595,1.9269,2.0545,2.135,2.1302,2.1685,2.2042,2.1648,2.1763,2.1875,2.1287,2.0671,1.9843,1.8385,1.735,1.6431,1.5585,1.5342,1.5158,1.4746,1.4622,1.4654,1.4915,1.4959,1.5436,1.684,1.7228,1.7798,1.8982,1.9048,0.0,1.9746,1.9628,0.0,1.948,0.0,0.0,1.9279,1.9279,1.9279,1.9279,1.9279,1.9279,1.9279,1.9279,1.9279,1.9279,1.9279,1.9279,1.9257,1.8599,1.8299,1.8262,1.7611,0.0,0.0,1.7279,1.7279,1.7279,1.7279,1.7279,1.7279,1.7279,1.72,1.7066,0.0,0.0,0.0,0.0,0.0,0.0,0.0,1.3155,1.3778,1.4556,1.459,1.4197,1.3299,1.2831,1.2347,0.0,0.0,0.0,0.0,0.0,0.0,0.0,0.0,0.0,0.0,0.0,0.0,1.363,1.385,0.0,0.0,0.0,0.0,0.0,0.0,1.4127,1.4246,1.4269,0.0,0.0,0.0,0.0,0.0,0.0,0.0,0.0,0.0,1.4996,1.5013,1.5348,1.5733,1.6304,1.7543,1.8889,1.998,1.9909,2.0517,2.1209,2.1105,2.2013,2.277,2.1852,2.163,2.1084,1.9002,1.753,1.6387,1.5576,1.5107,1.4961,1.5255,1.506,1.5209,1.6241,1.6461,1.6719,1.7345,1.8216,1.9158,2.0071,0.0,0.0,2.1355,2.0585,2.0034,0.0,0.0,0.0,1.9324,1.9279,1.9279,1.9279,1.9279,1.9279,1.9279,1.9279,1.9279,1.9279,1.9279,1.9279,1.9257,1.8599,1.8299,1.8262,1.7611,0.0,0.0,1.7279,1.7279,1.7279,1.7279,1.7279,1.7279,1.7279,1.7286,1.7239,0.0,0.0,0.0,0.0,0.0,0.0,1.2607,1.3155,1.3782,1.4584,1.4684,1.4429,1.3786,1.3296,1.2639,1.1708,0.0,0.0,0.0,0.0,0.0,0.0,0.0,0.0,0.0,0.0,1.3254,1.4169,1.418,0.0,0.0,0.0,0.0,0.0,0.0,1.3999,1.4199,1.4199,0.0,0.0,0.0,0.0,0.0,0.0,0.0,0.0,0.0,0.0,1.5257,1.497,1.5142,1.5494,1.5614,1.6612,1.8081,1.9652,2.0588,2.1296,2.2116,2.2918,2.3414,2.2777,2.2195,2.1246,1.9079,1.7769,1.6708,1.5615,1.5283,1.5215,1.5381,1.4985,1.4958,1.586,1.5668,1.5802,1.685,1.7614,1.8622,2.0247,2.0462,2.1052,0.0,0.0,2.2038,0.0,0.0,0.0,2.0731,1.9983,1.9532,1.9532,1.9532,1.948,1.9279,1.9279,1.9279,1.9324,1.9074,1.8986,1.8957,1.8306,1.8013,1.7984,1.7476,0.0,0.0,1.7279,1.7279,1.7279,1.7279,1.7279,1.7279,1.7279,1.7279,1.7286,0.0,0.0,0.0,0.0,0.0,1.1897,1.2583,1.3101,1.3645,1.4289,1.4437,1.429,1.3736,1.3352,1.274,1.1765,1.1543,0.0,0.0,0.0,0.0,0.0,0.0,0.0,0.0,0.0,1.3871,1.4803,1.4803,1.4771,0.0,0.0,1.3924,1.4068,0.0,0.0,0.0,0.0,0.0,0.0,0.0,0.0,0.0,0.0,0.0,0.0,0.0,0.0,0.0,0.0,0.0,1.5049,1.4474,1.507,1.6446,1.8876,2.0199,2.1186,2.2439,2.3215,2.3567,2.3101,2.2294,2.1081,1.9117,1.7883,1.684,1.5723,1.538,1.5292,1.5391,1.5059,1.499,1.5638,1.5583,1.5886,1.6968,1.7681,1.8837,2.0765,0.0,2.1777,0.0,2.3547,0.0,0.0,0.0,0.0,0.0,2.1438,2.0585,1.9828,1.9828,1.9732,1.9532,1.948,1.9376,1.928,1.895,1.8788,1.8736,1.8177,1.7967,1.7993,0.0,0.0,0.0,1.7326,1.7279,1.7279,1.7279,1.7279,1.7279,1.7279,1.7279,1.7279,0.0,0.0,0.0,0.0,0.0,0.0,1.2535,1.299,1.3291,1.3576,1.3848,1.3735,1.2984,1.2847,1.2614,1.2131,1.1662,0.0,0.0,0.0,0.0,0.0,0.0,0.0,0.0,0.0,1.4844,1.5794,1.5794,1.5507,1.4976,1.4511,1.4304,1.4283,0.0,0.0,0.0,0.0,0.0,0.0,0.0,0.0,0.0,0.0,0.0,0.0,0.0,0.0,0.0,0.0,0.0,0.0,0.0,1.4635,1.538,1.7182,1.9,2.0602,2.1569,2.249,2.308,2.2625,2.1807,2.0736,1.9247,1.7809,1.6586,1.5849,1.5325,1.5101,1.5361,1.5381,1.5557,1.6026,1.6914,1.7673,1.8054,1.9058,2.0337,0.0,0.0,2.1997,2.4086,2.4161,0.0,0.0,0.0,0.0,0.0,2.3791,2.2534,2.0181,2.0078,2.0078,2.0078,1.9835,1.9515,1.9186,1.8941,1.8779,1.8716,1.8323,1.8359,0.0,0.0,0.0,0.0,1.7426,1.7279,1.7279,1.7279,1.7279,1.7279,1.7279,1.7279,1.7279,0.0,0.0,0.0,0.0,0.0,0.0,0.0,1.2788,1.2955,1.287,1.3154,1.3253,1.294,1.2842,1.2733,1.2589,1.1778,0.0,0.0,0.0,0.0,0.0,0.0,0.0,0.0,0.0,1.5317,1.6213,1.5931,1.5687,1.5463,1.4997,1.4665,1.4428,1.4233,1.4066,0.0,0.0,0.0,0.0,0.0,0.0,0.0,0.0,0.0,0.0,0.0,0.0,0.0,0.0,0.0,0.0,0.0,0.0,0.0,1.5597,1.6903,1.8349,1.9603,2.0415,2.084,2.0695,2.0207,1.9414,1.8209,1.7359,1.6605,1.5975,1.5717,1.5628,1.5739,1.573,1.6098,1.7146,1.761,1.8151,1.917,2.0141,0.0,2.2491,2.3977,2.5297,0.0,0.0,0.0,0.0,0.0,0.0,0.0,2.3918,2.3207,2.2576,2.1836,2.1387,2.1183,2.0163,1.9552,1.9446,1.8935,1.8663,1.8606,1.8265,0.0,0.0,0.0,0.0,0.0,1.7667,1.7574,1.7581,1.738,1.7279,1.7279,1.7279,1.7279,1.7279,0.0,0.0,0.0,0.0,0.0,0.0,0.0,1.2455,1.2417,1.2257,1.2389,1.2524,1.2635,1.2587,1.2612,1.2785,1.2145,0.0,0.0,0.0,0.0,0.0,0.0,0.0,0.0,1.4704,1.5519,1.6405,1.6153,1.5996,1.5967,1.5731,1.5373,1.495,1.461,1.4345,0.0,0.0,0.0,0.0,0.0,0.0,0.0,0.0,0.0,0.0,0.0,0.0,0.0,0.0,0.0,0.0,0.0,0.0,0.0,0.0,1.5339,1.6355,1.8102,1.9056,1.9533,1.9533,1.9181,1.862,1.777,1.7215,1.6694,1.611,1.599,1.5961,1.5914,1.5885,1.6185,1.7,1.7497,1.8157,1.9377,2.0406,0.0,2.2982,0.0,0.0,0.0,0.0,0.0,0.0,0.0,0.0,0.0,2.4729,2.4421,2.4545,2.3086,2.2253,2.2064,2.1106,2.0549,2.0403,1.9908,1.9445,1.9082,1.8861,0.0,0.0,0.0,0.0,0.0,1.8357,1.8172,1.7854,1.8071,1.7924,1.7613,1.7613,1.752,1.7426,0.0,0.0,0.0,0.0,0.0,0.0,0.0,1.2048,1.1829,1.1774,1.163,1.1705,1.2112,1.2153,1.233,1.2763,0.0,0.0,0.0,0.0,0.0,0.0,0.0,0.0,0.0,1.4878,1.5578,1.6355,1.6411,1.6458,1.6454,1.6608,1.6357,1.5728,1.5099,1.468,0.0,0.0,0.0,0.0,0.0,0.0,0.0,0.0,0.0,0.0,0.0,0.0,0.0,0.0,0.0,0.0,0.0,0.0,0.0,0.0,0.0,0.0,0.0,1.8123,1.8818,1.8818,1.8486,1.803,1.7606,1.7182,0.0,1.6173,1.6063,1.6075,1.6013,1.5993,1.5993,1.6154,1.6992,1.7963,1.8916,2.017,0.0,0.0,2.4586,0.0,0.0,0.0,0.0,0.0,0.0,0.0,0.0,2.5834,2.5813,2.5782,2.3863,2.2813,2.2821,2.2465,2.2127,2.1851,2.154,2.0942,2.0031,2.0031,0.0,0.0,0.0,0.0,0.0,1.918,1.8904,1.8226,1.9126,1.8996,1.8218,1.8218,1.804,1.7815,0.0,0.0,0.0,0.0,0.0,0.0,0.0,0.0,0.0,0.0,1.1796,1.1878,1.1694,1.2242,1.2677,0.0,0.0,0.0,0.0,0.0,0.0,0.0,0.0,0.0,0.0,1.556,1.6065,1.5869,1.6591,1.6917,1.6862,1.7423,1.7181,1.629,1.5923,0.0,0.0,0.0,0.0,0.0,0.0,0.0,0.0,0.0,0.0,0.0,1.4418,1.417,0.0,0.0,0.0,0.0,0.0,0.0,0.0,0.0,1.4035,1.4428,1.494,0.0,1.596,1.596,1.5877,1.5763,0.0,1.5556,1.5518,1.5739,1.578,1.611,1.7102,1.6732,1.6854,1.8584,1.8781,1.9166,2.0426,2.1752,0.0,2.465,2.5055,2.5399,0.0,0.0,0.0,0.0,0.0,0.0,0.0,2.5344,2.5179,2.4828,2.4361,2.4044,2.3913,2.2769,2.2198,2.2108,2.1789,2.1509,2.1293,2.1293,0.0,0.0,0.0,0.0,1.8743,1.8743,1.8612,1.8473,1.9217,1.9355,1.9171,1.9171,1.9126,1.8942,0.0,0.0,0.0,0.0,0.0,0.0,0.0,0.0,0.0,0.0,0.0,0.0,0.0,0.0,0.0,0.0,0.0,0.0,0.0,0.0,0.0,0.0,0.0,0.0,1.4669,1.5657,1.606,1.5793,1.6652,1.7069,1.7136,1.7786,1.7659,1.6835,1.6163,0.0,0.0,0.0,0.0,0.0,0.0,0.0,0.0,0.0,0.0,0.0,1.401,1.3821,0.0,1.4472,1.4541,1.4345,0.0,0.0,0.0,0.0,1.3772,1.3969,1.3969,1.479,1.5628,1.5628,1.5628,1.5628,1.5628,1.5308,1.507,1.5318,1.5535,1.598,1.6933,1.7046,1.7471,1.8922,1.9305,1.9979,0.0,0.0,2.3857,2.4755,2.5055,0.0,0.0,0.0,0.0,0.0,0.0,0.0,0.0,2.4879,2.4755,2.4507,2.4497,2.4464,2.4401,2.3628,2.3245,2.3245,2.3047,2.2755,2.235,2.235,2.1819,0.0,0.0,0.0,1.9492,1.982,1.9417,1.8697,1.9538,1.9583,1.918,1.918,1.9134,1.8958,0.0,0.0,0.0,0.0,0.0,0.0,0.0,0.0,0.0,0.0,0.0,0.0,0.0,0.0,0.0,0.0,0.0,0.0,0.0,0.0,0.0,0.0,0.0,1.5217,1.5129,1.558,1.5845,1.5906,1.6828,1.7348,1.7448,1.8321,1.8304,1.7513,1.6373,1.5775,0.0,0.0,0.0,0.0,0.0,0.0,0.0,0.0,0.0,0.0,0.0,0.0,0.0,1.4546,1.4598,1.4391,1.4712,0.0,0.0,0.0,0.0,0.0,1.3762,1.507,1.6361,1.6143,1.6205,1.6278,1.6216,1.5566,1.5018,1.509,1.5421,1.5925,1.6589,1.7264,1.7936,1.8682,1.9606,0.0,2.247,2.3381,2.4043,2.4445,2.4848,0.0,0.0,0.0,0.0,0.0,0.0,0.0,0.0,2.4497,2.4497,2.4497,2.4497,2.4497,2.4497,2.4497,2.4497,2.4497,2.4497,2.409,2.3323,2.3323,2.279,0.0,0.0,0.0,2.0565,2.1373,2.0709,1.9317,2.0339,2.0212,1.9455,1.9317,1.9142,1.8936,0.0,0.0,0.0,0.0,0.0,0.0,0.0,0.0,0.0,0.0,0.0,0.0,0.0,0.0,0.0,0.0,0.0,0.0,0.0,0.0,0.0,0.0,1.4891,1.529,1.5684,1.5822,1.5876,1.5897,1.7781,1.8488,1.8105,2.0138,2.0239,1.8684,1.7502,1.695,1.6903,0.0,0.0,0.0,0.0,0.0,0.0,0.0,0.0,0.0,0.0,0.0,0.0,1.3965,1.4192,1.4411,1.4087,0.0,0.0,0.0,0.0,0.0,1.4573,1.5594,1.6122,1.4914,1.5214,1.5691,1.5297,1.5101,1.5111,1.5504,1.5639,1.6177,1.7812,1.7885,1.8349,2.0369,2.1466,2.2449,0.0,0.0,2.4043,2.4445,0.0,0.0,0.0,0.0,0.0,0.0,0.0,0.0,0.0,2.4497,2.4497,2.4497,2.4497,2.4497,2.4497,2.4497,2.4497,2.4497,2.4497,2.4411,2.4272,2.4272,2.3777,0.0,0.0,2.235,2.1516,2.165,2.1516,2.1338,2.2296,2.2561,2.234,2.1552,2.1248,2.0934,0.0,0.0,0.0,0.0,0.0,0.0,0.0,0.0,0.0,0.0,0.0,0.0,0.0,0.0,0.0,0.0,0.0,0.0,0.0,0.0,0.0,1.4887,1.5088,1.5259,1.5376,1.6008,1.6346,1.6394,1.8467,1.9415,1.9263,2.0356,1.9915,1.811,1.7567,1.7436,1.7605,0.0,0.0,0.0,0.0,0.0,0.0,0.0,0.0,0.0,0.0,0.0,0.0,0.0,1.4593,1.4531,1.4628,0.0,0.0,0.0,0.0,0.0,1.4523,1.5353,1.5956,1.5699,1.6486,1.7287,1.7185,1.6686,1.6297,1.6516,1.6472,1.6775,1.7957,1.8529,1.9499,2.1528,0.0,2.3554,2.3981,2.4284,2.4513,0.0,0.0,0.0,0.0,0.0,0.0,0.0,0.0,0.0,0.0,0.0,2.4625,2.4871,2.4625,2.4583,2.47,2.4583,2.4497,2.4497,2.4497,2.4497,2.4497,2.4497,2.4272,2.3864,0.0,2.3333,2.2438,2.2438,2.2183,2.1739,2.2183,2.235,2.2217,2.1284,2.0926,2.0709,0.0,0.0,0.0,0.0,0.0,0.0,0.0,0.0,0.0,0.0,0.0,0.0,0.0,0.0,0.0,0.0,0.0,0.0,0.0,0.0,1.4533,1.4908,1.5198,1.5353,1.5375,1.6315,1.6929,1.724,1.922,2.0404,2.0756,2.0485,1.9494,1.797,1.781,1.7928,1.819,1.7737,1.8314,0.0,0.0,0.0,0.0,0.0,0.0,0.0,0.0,0.0,0.0,0.0,0.0,0.0,0.0,0.0,0.0,1.395,1.3928,1.4148,1.472,1.5412,1.6165,1.6975,1.7676,1.8364,1.9009,1.8319,1.7647,1.809,1.7967,1.7978,1.8596,1.975,2.1079,2.2564,2.3707,2.444,2.444,2.4735,0.0,0.0,0.0,0.0,0.0,0.0,0.0,0.0,0.0,0.0,0.0,0.0,2.4828,2.52,2.4871,2.4743,2.4988,2.4786,2.4625,2.4497,2.4497,2.4497,2.4497,2.4497,2.4497,2.4497,2.4497,2.409,2.341,2.341,2.3018,2.2359,2.2359,2.2227,2.1908,2.097,2.0484,2.0121,0.0,0.0,0.0,0.0,0.0,0.0,0.0,0.0,0.0,0.0,0.0,0.0,0.0,0.0,0.0,0.0,0.0,0.0,0.0,0.0,1.406,1.4089,1.4973,1.5797,1.6462,1.6874,1.7561,1.8572,2.0282,2.1687,2.2773,2.1192,2.0166,1.9588,1.903,1.8819,1.8796,1.8271,1.8469,1.9032,0.0,0.0,0.0,0.0,0.0,0.0,0.0,0.0,0.0,0.0,0.0,0.0,0.0,0.0,1.4039,1.4007,1.4292,1.4841,1.5731,1.6344,1.6968,1.8019,1.7445,1.7189,1.918,1.8849,1.8637,2.046,2.0482,2.0311,2.0791,2.1966,2.3066,2.3599,2.451,2.5147,2.5147,0.0,0.0,0.0,0.0,0.0,0.0,0.0,0.0,0.0,0.0,0.0,0.0,0.0,0.0,2.52,2.5158,2.5158,2.52,2.5158,2.4946,2.4497,2.4497,2.4497,2.4497,2.4497,2.4497,2.4497,2.4497,2.4454,2.4411,2.4411,2.4358,2.4325,2.4325,2.3777,2.2877,2.1952,2.1069,2.0167,0.0,0.0,0.0,0.0,0.0,0.0,0.0,0.0,0.0,0.0,0.0,0.0,0.0,0.0,0.0,0.0,0.0,0.0,0.0,0.0,1.3701,1.3999,1.4722,1.5524,1.6391,1.7198,1.8113,1.9188,2.0621,2.1594,2.2044,2.1417,2.0655,1.9799,1.9564,1.946,1.9423,1.8835,1.8956,1.9431,1.8295,0.0,0.0,0.0,0.0,0.0,0.0,0.0,0.0,0.0,1.457,1.4471,1.5112,1.4776,1.4233,1.4823,1.4915,1.5028,1.5972,1.7085,1.8092,1.8535,1.8853,1.9365,2.0617,2.0718,2.0952,2.2321,2.2557,2.2548,2.2678,2.3408,2.393,2.3823,2.4728,2.5433,0.0,0.0,0.0,0.0,0.0,0.0,0.0,0.0,0.0,0.0,0.0,0.0,0.0,0.0,0.0,2.5644,2.5369,2.5285,2.5433,2.5285,2.5115,2.4956,2.4956,2.4956,2.4946,2.4828,2.4828,2.4914,2.4625,2.4583,2.4743,2.4583,2.4497,2.4497,2.4497,2.4272,2.3864,2.2931,2.234,2.1898,0.0,0.0,0.0,0.0,0.0,0.0,0.0,0.0,0.0,0.0,0.0,0.0,0.0,0.0,0.0,0.0,0.0,0.0,0.0,1.2604,1.3236,1.3868,1.459,1.5423,1.6408,1.7443,1.8493,1.9586,2.0834,2.145,2.1511,2.1328,2.0727,1.9799,1.9603,1.963,1.9747,1.8976,1.9094,1.9708,1.8558,1.781,0.0,0.0,0.0,0.0,0.0,0.0,0.0,0.0,1.4508,1.4413,1.5328,1.5064,1.4586,1.5419,1.5674,1.5838,1.6463,1.7684,1.8868,1.9296,2.0138,2.1178,2.2495,2.2697,2.2999,2.4478,2.4804,2.4699,2.4391,2.4627,2.4691,0.0,2.5042,2.5686,0.0,0.0,0.0,0.0,0.0,0.0,0.0,0.0,0.0,0.0,0.0,0.0,0.0,0.0,0.0,0.0,2.5591,2.5506,2.5686,2.5506,2.5411,2.5411,2.5411,2.5327,2.52,2.5073,2.5073,2.52,2.4871,2.4828,2.4988,2.4786,2.4658,2.4625,2.4625,2.4572,2.4411,2.3454,2.3096,2.2965,0.0,0.0,0.0,0.0,0.0,0.0,0.0,0.0,0.0,0.0,0.0,0.0,0.0,0.0,0.0,0.0,0.0,0.0,1.2147,1.22,1.2647,1.3641,1.4598,1.5612,1.6663,1.7621,1.8669,1.9786,2.094,2.1498,2.1446,2.0936,2.0373,1.9773,1.9185,1.9237,1.9721,1.8584,1.8754,1.9695,1.8545,1.7797,0.0,0.0,0.0,0.0,0.0,0.0,0.0,0.0,1.4684,1.4887,1.5419,1.5286,1.503,1.5644,1.6576,1.7405,1.7393,1.8128,1.9198,2.0411,2.1065,2.2138,2.4816,2.4607,2.4548,2.7103,2.7248,2.6661,2.5862,2.5681,0.0,2.529,2.562,0.0,0.0,0.0,0.0,0.0,0.0,0.0,0.0,0.0,0.0,0.0,0.0,0.0,0.0,0.0,0.0,0.0,2.5895,2.5895,2.5895,2.5895,2.5895,2.5895,2.5895,2.5644,2.52,2.52,2.52,2.52,2.52,2.52,2.52,2.52,2.5073,2.4903,2.4903,2.4743,2.4401,2.3454,2.3096,2.2965,0.0,0.0,0.0,0.0,0.0,0.0,0.0,0.0,0.0,0.0,0.0,0.0,0.0,0.0,0.0,0.0,0.0,0.0,1.1635,1.2268,1.2904,1.3527,1.4464,1.5456,1.6529,1.7572,1.8438,1.9171,1.9936,2.01,1.9682,2.0027,1.983,1.9185,1.9631,1.9582,1.912,1.8442,1.8368,1.8595,1.7782,1.7452,0.0,0.0,0.0,0.0,0.0,0.0,0.0,0.0,0.0,0.0,1.5235,1.5528,1.5705,1.6532,1.7073,1.7384,1.7273,1.8676,2.0242,2.062,2.263,2.48,2.6039,2.5868,2.6093,2.8571,2.8622,2.82,2.805,2.7937,0.0,2.7066,2.7338,0.0,0.0,0.0,0.0,0.0,0.0,0.0,0.0,0.0,0.0,0.0,0.0,0.0,0.0,0.0,0.0,0.0,2.5895,2.5895,2.5895,2.5895,2.5895,2.5895,2.5895,2.5812,2.5686,2.5559,2.5559,2.5675,2.5327,2.5295,2.5475,2.5285,2.5158,2.5115,2.4946,2.4861,2.4733,2.4262,2.409,2.4046,0.0,0.0,0.0,0.0,0.0,0.0,0.0,0.0,0.0,0.0,0.0,0.0,0.0,0.0,0.0,0.0,0.0,0.0,0.0,0.0,1.2816,1.3463,1.44,1.55,1.6752,1.7657,1.814,1.8231,1.9041,1.9287,1.8992,1.9619,1.9745,1.944,1.9913,1.9826,1.9291,1.8588,1.8266,1.8148,1.7531,1.7329,1.7318,0.0,0.0,0.0,0.0,0.0,0.0,0.0,0.0,0.0,1.4946,1.5267,1.559,1.6894,1.7497,1.7906,1.8569,2.0109,2.1693,2.2392,2.4474,2.667,2.7893,2.7915,2.8149,2.9884,2.9731,2.9312,2.9277,2.9001,0.0,2.8065,0.0,0.0,0.0,0.0,0.0,0.0,0.0,0.0,0.0,0.0,0.0,0.0,0.0,0.0,0.0,0.0,0.0,0.0,2.6426,2.6426,2.6426,2.6063,2.5895,2.5895,2.5895,2.5895,2.5895,2.577,2.578,2.5895,2.5591,2.5559,2.5696,2.5549,2.5422,2.5338,2.5211,2.5115,2.4988,2.4743,2.4658,2.4658,0.0,0.0,0.0,0.0,0.0,0.0,0.0,0.0,0.0,0.0,0.0,0.0,0.0,0.0,0.0,0.0,0.0,0.0,0.0,0.0,1.2626,1.3573,1.4582,1.5774,1.7173,1.7735,1.7748,1.7199,1.8296,1.8865,1.8965,1.9504,1.9835,1.995,1.9977,1.9866,1.9618,1.8666,1.8153,1.7945,1.7444,1.7267,1.7193,1.6586,0.0,0.0,0.0,0.0,0.0,0.0,0.0,0.0,1.4628,1.4756,1.5058,1.6817,1.779,1.8685,2.0457,2.1816,2.3151,2.4909,2.6387,2.7966,3.0051,3.0361,3.0396,3.0919,3.0568,3.0138,2.9885,2.9391,2.8937,0.0,0.0,0.0,0.0,0.0,0.0,0.0,0.0,0.0,0.0,0.0,0.0,0.0,0.0,0.0,0.0,0.0,0.0,2.7296,2.7296,2.7296,2.7296,2.6456,2.6021,0.0,2.5937,2.5895,2.5895,2.5895,2.5895,2.5895,2.5895,2.5895,2.5895,2.5895,2.577,2.5644,2.5612,2.5464,2.52,2.4988,2.4946,2.4903,0.0,0.0,0.0,0.0,0.0,0.0,0.0,0.0,0.0,0.0,0.0,0.0,0.0,0.0,0.0,0.0,0.0,0.0,0.0,0.0,1.3421,1.4467,1.5911,1.6855,1.7199,1.7329,1.7329,1.7199,1.7917,1.8114,1.78,1.8897,1.8928,1.8129,1.9266,1.8859,1.7322,1.721,1.6855,1.6388,1.6218,1.6165,1.6201,1.5994,1.5565,0.0,0.0,0.0,0.0,0.0,0.0,0.0,1.4684,1.5185,1.571,1.6539,1.7534,1.8578,1.9448,2.0897,2.2578,2.4338,2.7013,2.959,3.1003,3.1299,3.1265,3.1259,3.1143,3.1003,3.0972,3.0706,3.0517,0.0,0.0,0.0,0.0,0.0,0.0,0.0,0.0,0.0,0.0,0.0,0.0,0.0,0.0,0.0,0.0,0.0,0.0,2.8159,2.8159,2.8159,2.8159,2.7336,2.6899,0.0,2.6218,2.5895,2.5895,2.5895,2.5895,2.5895,2.5895,2.5895,2.5895,2.5895,2.5853,2.5812,2.5644,2.5559,2.5475,2.5242,2.5158,2.5115,0.0,0.0,0.0,0.0,0.0,0.0,0.0,0.0,0.0,0.0,0.0,0.0,0.0,0.0,0.0,0.0,0.0,0.0,0.0,0.0,1.3773,1.5069,1.6217,1.682,1.682,1.682,1.6827,1.6862,1.7177,1.7363,1.7487,1.8733,1.9034,1.8607,1.9602,1.9113,1.7551,1.7397,1.6763,1.5913,1.5853,1.5858,1.5855,1.5496,1.5185,1.49,1.4667,0.0,0.0,0.0,0.0,0.0,0.0,0.0,1.5118,1.6035,1.6936,1.7952,1.9463,2.1215,2.3205,2.5856,2.8034,2.9822,3.1025,3.1292,3.1372,3.1566,3.1508,3.1434,3.1434,3.1373,0.0,0.0,0.0,0.0,0.0,0.0,0.0,0.0,0.0,0.0,0.0,0.0,0.0,0.0,0.0,0.0,0.0,2.9084,2.9291,2.9291,2.9291,2.9291,2.9291,2.8386,2.7907,2.7907,2.6969,2.6302,2.5895,2.5895,2.5895,2.5895,2.5895,2.5895,2.5895,2.5895,2.5895,2.5906,2.577,2.5728,2.5728,2.5464,2.538,2.538,0.0,0.0,0.0,0.0,0.0,0.0,0.0,0.0,0.0,0.0,0.0,0.0,0.0,0.0,0.0,0.0,0.0,0.0,0.0,1.3039,1.3925,1.5211,1.5899,1.6232,1.6232,1.6264,1.633,1.6494,1.6441,1.6897,1.787,1.8857,1.9418,1.9564,2.0061,1.949,1.813,1.7747,1.684,1.5609,1.5609,1.5609,1.5569,1.5015,1.4828,1.4812,1.4378,1.4252,1.43,1.43,0.0,0.0,0.0,0.0,1.4279,1.5524,1.6251,1.7167,1.9439,2.1602,2.4042,2.7569,2.8787,2.941,3.0621,3.0904,3.1065,3.1658,3.1713,3.1646,3.1646,0.0,0.0,0.0,0.0,0.0,0.0,0.0,0.0,0.0,0.0,0.0,0.0,0.0,0.0,0.0,0.0,0.0,2.9435,3.0152,3.052,3.052,3.052,3.052,3.052,2.9473,2.8993,2.8954,2.7988,2.7051,2.6177,2.6177,2.6063,2.5895,2.5895,2.5895,2.5895,2.5895,2.5895,2.5895,2.5895,2.5895,2.5895,2.5728,2.5654,2.5601,0.0,0.0,0.0,0.0,0.0,0.0,0.0,0.0,0.0,0.0,1.2708,1.2365,1.2131,1.2059,0.0,0.0,0.0,0.0,1.2603,0.0,0.0,1.4277,1.5155,1.5617,1.5617,1.5693,1.5967,1.6494,1.6144,1.7102,1.9239,1.94,1.9278,1.8934,1.9537,1.8553,1.642,1.6371,1.5626,1.4514,1.4514,1.4514,1.4501,1.4417,1.4392,1.4376,1.4311,1.43,1.43,1.43,1.43,0.0,0.0,0.0,1.4406,1.5101,1.5734,1.6493,1.7868,2.0654,2.3947,2.7054,2.8243,2.9002,3.0208,3.0492,3.0655,3.1265,3.1649,3.1853,3.1853,0.0,0.0,0.0,0.0,0.0,0.0,0.0,0.0,0.0,0.0,0.0,0.0,0.0,0.0,0.0,0.0,0.0,3.1235,3.136,3.1447,3.1447,3.1447,3.1447,3.1447,3.0533,3.0088,3.0088,2.9176,2.8231,2.7273,2.7273,2.6764,2.5895,2.5895,2.5895,2.5895,2.5895,2.5895,2.5895,2.5895,2.5895,2.5895,2.5853,2.5864,2.5853,0.0,0.0,0.0,0.0,0.0,0.0,0.0,0.0,0.0,0.0,0.0,1.2849,1.2579,1.2443,0.0,0.0,0.0,0.0,1.2923,1.3351,0.0,0.0,1.4774,1.5026,1.5125,1.513,1.5353,1.5715,1.5546,1.6885,1.9606,1.9606,2.0007,2.0731,2.0338,1.938,1.8031,1.6669,1.5603,1.4778,1.4436,1.4911,1.5698,1.468,1.4924,1.567,1.4653,1.43,1.43,1.43,1.43,1.43,1.43,0.0,0.0,0.0,1.5131,1.6078,1.8303,2.0528,2.2822,2.5534,2.6904,2.7922,2.9116,2.9645,3.0066,3.0676,3.0945,3.1253,0.0,0.0,0.0,0.0,0.0,0.0,0.0,0.0,0.0,0.0,0.0,0.0,0.0,0.0,0.0,0.0,0.0,3.1927,3.1927,3.1927,3.1927,3.1927,3.1927,3.1927,3.1927,3.1458,3.0872,3.0279,2.9909,2.9215,2.835,2.835,2.7452,2.5895,2.5895,2.6021,2.6207,2.5979,2.6021,2.6207,2.5979,2.5895,2.5895,2.5895,2.5895,2.5895,0.0,0.0,0.0,0.0,0.0,0.0,0.0,0.0,0.0,0.0,0.0,0.0,1.2913,0.0,0.0,0.0,0.0,0.0,1.3182,0.0,0.0,0.0,0.0,1.4458,1.4572,1.4623,1.4793,1.5096,1.5123,1.6748,1.9895,1.9895,2.1016,2.2929,2.1562,2.0396,1.9334,1.7394,1.6213,1.562,1.5172,1.5793,1.6905,1.601,1.6512,1.7448,1.5643,1.4979,1.4911,0.0,1.43,1.43,1.43,1.43,0.0,0.0,0.0,1.5525,1.8085,1.9632,2.1097,2.3499,2.5127,2.6454,2.7841,2.86,2.9252,0.0,3.0174,3.0486,0.0,0.0,0.0,0.0,0.0,0.0,0.0,0.0,0.0,0.0,0.0,0.0,0.0,0.0,0.0,0.0,0.0,3.2218,3.2218,3.2218,3.2218,3.2218,3.2218,3.2218,3.2218,3.2036,3.1569,3.0784,3.0784,3.0291,2.9397,2.9397,2.843,2.6682,2.6528,2.6528,2.6652,2.6332,2.6415,2.6652,2.6218,2.6052,2.6052,2.5937,2.5895,2.5895,0.0,0.0,0.0,0.0,0.0,0.0,0.0,0.0,0.0,0.0,0.0,0.0,0.0,0.0,0.0,0.0,0.0,0.0,0.0,0.0,0.0,0.0,0.0,0.0,1.3944,1.4129,1.4526,1.5096,1.5165,1.7,2.0464,2.0464,2.2022,2.4788,2.3011,2.0972,1.8799,1.8092,1.7468,1.6905,1.6864,1.6919,1.7176,1.8805,1.9483,1.932,1.7516,1.6851,0.0,0.0,0.0,1.43,1.43,1.43,1.43,0.0,0.0,0.0,1.5924,1.7163,1.8663,2.0992,2.2917,2.4706,2.6481,2.7379,2.8125,2.9279,2.9556,0.0,0.0,0.0,0.0,0.0,0.0,0.0,0.0,0.0,0.0,0.0,0.0,0.0,0.0,0.0,0.0,0.0,0.0,3.2218,3.2218,3.2218,3.2218,3.2218,3.2218,3.2218,3.2218,3.2182,3.2146,3.2096,3.2096,3.1542,3.0532,3.0532,2.9884,2.88,2.8231,2.7666,2.7144,2.7144,2.7144,2.7103,2.6652,2.6487,2.6404,2.6052,2.5895,2.5895,0.0,0.0,0.0,0.0,0.0,0.0,0.0,0.0,0.0,0.0,0.0,0.0,0.0,1.3438,1.3374,1.3216,1.2766,0.0,0.0,0.0,0.0,0.0,0.0,0.0,0.0,1.4154,1.433,1.4579,1.4612,1.6064,1.8832,1.8832,1.9989,2.2104,2.1833,2.1477,2.088,1.837,1.7407,1.7549,1.7149,1.7909,1.9203,1.8723,1.9714,2.1084,1.8934,0.0,0.0,0.0,0.0,1.492,1.5123,1.4779,1.43,1.43,1.4574,1.5063,1.5888,1.6702,1.7787,1.9809,2.1355,2.2835,2.4638,2.5846,2.6891,2.8098,2.8343,0.0,0.0,0.0,0.0,0.0,0.0,0.0,0.0,0.0,0.0,0.0,0.0,0.0,0.0,0.0,0.0,0.0,0.0,0.0,3.2218,3.2218,3.2218,3.2218,3.2218,3.2218,3.2218,3.2218,3.2218,3.2218,3.2218,3.2009,3.1629,3.1629,3.1182,3.0392,3.0164,2.9369,2.8195,2.747,2.736,2.7615,2.7144,2.694,2.6899,2.6456,2.629,2.6249,0.0,0.0,0.0,0.0,0.0,0.0,0.0,0.0,0.0,1.4,0.0,0.0,0.0,0.0,1.3514,1.3216,1.2749,1.2731,1.3361,0.0,0.0,0.0,0.0,0.0,0.0,1.4189,1.4268,1.43,1.449,1.5634,1.7603,1.7807,1.8832,2.0481,2.0301,2.0785,2.1521,1.8995,1.8004,1.8201,1.818,1.9,2.0261,2.0487,2.1545,2.2685,0.0,0.0,0.0,0.0,0.0,0.0,1.6072,1.5324,1.4497,1.4349,1.4771,1.5309,1.5513,1.6114,1.7082,1.8746,1.9853,2.1111,2.3296,2.4584,2.5672,2.6971,2.738,0.0,0.0,0.0,0.0,0.0,0.0,0.0,0.0,0.0,0.0,0.0,0.0,0.0,0.0,0.0,0.0,0.0,0.0,0.0,3.1585,3.1585,3.1585,3.1585,3.1775,3.1884,3.1884,3.211,3.2218,3.2218,3.2218,3.2218,3.2218,3.2218,3.1973,3.1505,3.1307,3.0469,2.9211,2.8343,2.8115,2.8339,2.7684,2.7441,2.736,2.6899,2.6652,2.6445,0.0,0.0,0.0,0.0,0.0,0.0,0.0,0.0,1.4,1.4,0.0,0.0,0.0,0.0,0.0,1.3242,1.3224,1.3374,1.3771,1.3429,0.0,0.0,0.0,0.0,1.4016,1.4206,1.43,1.43,1.4887,1.5783,1.6959,1.7549,1.8737,2.0328,1.8628,1.8818,2.0369,1.9813,1.9315,1.8934,1.9989,2.0179,2.027,2.4273,2.5113,0.0,2.3486,2.2902,0.0,1.9722,0.0,0.0,1.7056,1.5891,1.4949,1.4491,1.4881,1.5313,0.0,0.0,0.0,1.7738,1.8392,1.9505,2.2427,0.0,2.4381,2.5905,2.6722,0.0,0.0,0.0,0.0,0.0,0.0,0.0,0.0,0.0,0.0,0.0,0.0,0.0,0.0,0.0,0.0,0.0,0.0,3.0405,3.0405,3.0405,3.0405,3.0405,3.0975,3.126,3.126,3.1857,3.2191,3.2191,3.2205,3.2218,3.2218,3.2218,3.2218,3.2169,3.1505,3.0884,3.033,2.9678,2.9419,2.9302,2.8311,2.7921,2.7841,2.74,2.694,2.6528,0.0,0.0,0.0,0.0,0.0,1.4179,1.4586,1.4239,1.3927,0.0,0.0,0.0,1.386,1.3864,1.3971,1.4193,1.3718,1.3533,1.378,1.348,1.345,1.3841,1.4043,1.4141,1.4141,1.4189,1.4252,1.43,1.4414,1.4904,1.5702,1.5865,1.668,1.795,1.7461,1.7516,1.7936,1.7333,1.8214,1.9949,1.9008,2.0338,0.0,0.0,0.0,0.0,0.0,2.475,2.4407,0.0,2.1704,2.0204,0.0,1.6833,1.5636,1.5556,1.5978,1.6315,1.5565,0.0,0.0,0.0,0.0,0.0,0.0,0.0,2.1729,2.3855,0.0,0.0,0.0,0.0,0.0,0.0,0.0,0.0,0.0,0.0,0.0,0.0,0.0,0.0,0.0,0.0,0.0,0.0,3.0405,3.0405,3.0405,3.0405,3.0405,3.0405,3.0568,3.0649,3.0649,3.1246,3.1544,3.1544,3.2001,3.2218,3.2218,3.2218,3.2218,3.2182,3.2009,3.1827,3.1593,3.052,2.9793,2.938,2.9079,2.8736,2.8271,2.7869,2.7626,2.7464,0.0,0.0,0.0,0.0,0.0,1.4778,1.51,1.4822,1.4564,0.0,0.0,0.0,1.455,1.4833,1.5047,1.4972,1.435,1.4011,1.4123,1.3727,1.3611,1.3854,1.399,1.4089,1.4124,1.4173,1.4235,1.43,1.4268,1.4444,1.4819,1.4819,1.5335,1.6227,1.6001,1.6159,1.658,1.5711,1.6778,1.9081,1.9551,0.0,0.0,2.4144,2.5522,0.0,0.0,0.0,2.6144,2.548,2.371,0.0,0.0,1.8429,1.7236,1.6414,1.6921,1.7508,1.628,1.6643,1.7343,1.7237,0.0,0.0,1.9218,1.9864,0.0,0.0,0.0,0.0,0.0,0.0,0.0,0.0,0.0,0.0,0.0,0.0,0.0,0.0,0.0,0.0,0.0,3.0077,0.0,2.9879,2.9845,2.9779,2.9659,2.9659,2.9659,2.9659,2.9889,3.0011,3.0011,3.0622,3.092,3.0934,3.1531,3.1802,3.1816,3.211,3.2218,3.2218,3.2218,3.2218,3.2132,3.1394,3.0558,2.9755,2.9496,2.904,2.8471,2.8243,2.8042,2.7841,0.0,0.0,1.6945,1.6037,1.5732,1.5607,1.5616,1.5558,1.5487,0.0,1.5571,1.567,1.5853,1.6232,1.6271,1.5754,1.5082,1.4663,1.4598,1.4105,1.3804,1.3804,1.3858,1.3927,1.3983,1.4124,1.4206,1.43,1.43,1.43,1.43,1.43,1.4602,1.5077,1.4547,1.4897,1.5847,1.4897,1.5508,1.738,2.0609,2.1871,0.0,0.0,2.7476,2.6938,2.8327,2.8324,2.7642,2.7329,2.5237,0.0,0.0,2.0587,1.9424,1.753,1.8059,1.8925,1.7257,1.713,1.7575,1.809,1.7929,0.0,1.9397,1.9955,2.0555,0.0,0.0,0.0,0.0,0.0,0.0,0.0,0.0,0.0,0.0,0.0,0.0,0.0,0.0,0.0,2.9602,2.9602,2.9477,2.9194,2.9162,2.9035,2.8716,2.8716,2.8716,2.8716,2.9234,2.9506,2.9506,3.0052,3.0378,3.0344,3.0977,3.1254,3.1314,3.1879,3.2187,3.2218,3.2218,3.2218,3.2218,3.2218,3.1482,3.0355,2.9793,2.9197,2.859,2.859,2.8311,2.7962,0.0,1.5796,1.6182,1.6405,1.6023,1.5821,1.625,1.5845,1.5487,1.5487,1.5918,1.6728,1.8087,1.7525,1.699,1.6872,1.5918,1.5108,1.4624,1.4156,1.3871,1.3804,1.3927,1.3964,1.3924,1.3997,1.4095,1.4219,1.4219,1.4252,1.43,1.43,1.4354,1.4463,1.4341,1.4422,1.4694,1.544,1.6512,1.7834,1.9002,2.1434,2.4449,2.5897,2.7508,2.9026,2.9448,2.9798,3.0031,2.9493,2.7425,2.5034,0.0,2.3365,2.1578,2.0687,2.0711,2.0847,2.0184,2.0104,2.0019,1.9185,0.0,0.0,1.8252,1.8683,1.9475,0.0,0.0,0.0,0.0,0.0,0.0,0.0,0.0,0.0,0.0,0.0,0.0,0.0,0.0,0.0,2.956,2.9602,2.9571,2.9509,2.9509,2.9477,2.9415,2.9383,2.9383,2.9383,2.954,2.9596,2.9596,2.9919,3.0091,3.0091,3.0697,3.1075,3.13,3.1691,3.202,3.2218,3.2218,3.2218,3.2218,3.2218,3.174,3.0996,3.0884,3.0165,2.9223,2.9223,2.8882,2.8391,1.5649,1.618,1.671,1.6578,1.6487,1.6533,1.6809,1.6559,1.6454,1.6754,1.7552,1.8192,1.8479,1.8231,1.7813,1.7251,1.6428,1.5683,1.51,1.4559,1.4113,1.3817,1.3861,1.3927,1.396,1.3983,1.4078,1.4203,1.4235,1.4252,1.4252,1.4284,1.4449,1.4751,1.4751,1.4928,1.525,1.5829,1.662,1.7651,2.0039,0.0,2.5184,2.7068,2.8551,2.9654,3.0041,3.0396,3.0543,2.9453,2.8088,0.0,0.0,2.5138,2.3769,0.0,2.2541,2.2286,2.1341,2.1084,2.0977,2.0702,0.0,0.0,0.0,0.0,1.9236,2.0246,0.0,0.0,0.0,0.0,0.0,0.0,0.0,0.0,0.0,0.0,0.0,0.0,0.0,0.0,2.9126,2.9154,2.9207,2.9355,2.9527,2.9602,2.9602,2.9602,2.9602,2.9602,2.9602,2.9602,2.9602,2.9722,2.9812,2.9812,3.0425,3.0752,3.0916,3.1537,3.1964,3.2254,3.2213,3.2277,3.2444,3.2277,3.2009,3.1666,3.1344,3.0658,2.9832,2.9535,2.9223,2.8934,1.5596,1.6564,1.7291,1.6445,1.6884,1.7305,1.7083,1.7154,1.7447,1.8166,1.9159,1.9538,1.8832,1.9041,1.895,1.8257,1.7186,1.6441,1.6166,1.5191,1.4472,1.4145,1.3922,1.391,1.411,1.402,1.4046,1.4157,1.4238,1.4268,1.4219,1.4268,1.4629,1.5199,1.5199,1.5589,1.6263,1.6263,1.6959,1.833,0.0,2.3581,2.449,2.7762,2.8977,2.9141,3.0333,3.0911,3.0909,2.9514,2.8734,2.8211,2.7303,2.6612,0.0,0.0,0.0,0.0,0.0,0.0,0.0,0.0,0.0,2.0927,0.0,0.0,0.0,0.0,0.0,0.0,0.0,0.0,0.0,0.0,0.0,0.0,0.0,0.0,0.0,0.0,0.0,0.0,0.0,2.8432,2.8538,2.8985,2.9047,2.9238,2.9591,2.9605,2.9662,2.9789,2.9789,2.9789,2.9789,2.9741,2.971,2.971,3.0172,3.0449,3.0526,3.1428,3.1985,3.2282,3.2398,3.2588,3.2775,3.2444,3.2314,3.2241,3.1616,3.1009,3.0393,2.9947,2.96,2.9341,1.5205,1.6108,1.6686,1.5693,1.6855,1.7611,1.6705,1.6933,1.7591,1.8675,1.9394,2.0139,2.1028,2.0752,2.0856,2.1721,1.8934,1.7512,1.8453,1.6062,1.4825,1.5296,1.4341,1.4027,1.4515,1.4125,1.3944,1.4016,1.4157,1.4235,1.43,1.43,1.4629,1.5199,1.5199,1.5838,1.6905,1.6905,1.875,0.0,2.2795,2.2309,0.0,2.5301,2.6742,2.7153,3.0235,3.2018,3.2859,0.0,3.0975,2.9935,0.0,2.8332,2.7864,2.6854,0.0,0.0,0.0,0.0,0.0,0.0,2.3754,0.0,0.0,0.0,0.0,0.0,0.0,0.0,0.0,0.0,0.0,0.0,0.0,0.0,0.0,0.0,0.0,0.0,0.0,0.0,0.0,2.7489,2.7505,2.8667,2.7728,2.7845,2.9522,2.9594,2.9869,3.0463,3.0477,3.0477,3.0477,3.0189,3.005,3.005,3.0121,3.0279,3.0544,3.1466,3.2056,3.2316,3.2933,3.3199,3.3199,3.281,3.2632,3.2596,3.2228,3.1666,3.1071,3.1033,3.0317,2.938,1.5329,1.5916,1.6237,1.5366,1.6372,1.71,1.654,1.7717,1.8885,1.9368,2.0231,2.1106,2.1943,2.1511,2.1355,2.1825,0.0,1.9342,0.0,0.0,1.6284,1.5526,1.5029,1.4764,1.473,1.451,1.4288,1.4,1.4127,1.4219,1.4235,1.4284,1.4802,1.5738,1.6078,1.7095,1.856,1.856,1.9429,0.0,0.0,0.0,0.0,2.6058,2.8091,2.8444,2.9859,3.0822,3.1359,0.0,3.0297,0.0,0.0,0.0,0.0,0.0,0.0,0.0,0.0,0.0,0.0,0.0,0.0,0.0,2.1587,0.0,2.0116,0.0,0.0,0.0,0.0,0.0,0.0,0.0,0.0,0.0,0.0,0.0,0.0,0.0,0.0,0.0,0.0,0.0,0.0,0.0,2.6893,2.7461,2.9,2.9392,2.9914,3.0583,3.0598,3.0598,3.0598,3.0462,3.0401,3.0401,3.0401,3.0454,3.059,3.1125,3.1768,3.2444,3.2639,3.305,3.3563,3.2952,3.2704,3.2668,3.2336,3.2023,3.174,3.1344,3.0884,3.0355,1.5787,1.6002,1.6006,1.5348,1.6227,1.7022,1.7023,1.8346,1.9512,1.9969,2.0897,2.1864,2.2779,2.2492,0.0,2.2884,2.2348,2.1342,0.0,0.0,1.7826,1.6728,1.5918,1.5485,1.5454,1.4998,1.4589,1.4239,1.4175,1.4254,1.4465,1.4352,1.4938,1.6127,1.6729,1.8004,1.9714,2.0039,2.065,2.1464,2.2305,2.2659,2.3119,2.682,2.8923,2.9884,2.9884,3.0312,3.0793,3.0261,3.0155,0.0,3.0742,0.0,0.0,0.0,0.0,0.0,2.7265,0.0,0.0,0.0,0.0,0.0,0.0,0.0,0.0,0.0,0.0,0.0,0.0,0.0,0.0,0.0,0.0,2.0591,0.0,0.0,0.0,0.0,0.0,0.0,0.0,0.0,0.0,2.5355,2.5619,2.6498,2.8221,2.8879,2.9551,3.0307,3.051,3.0598,3.0598,3.0598,3.0598,3.0598,3.0598,3.0598,3.0627,3.0958,3.1651,3.2478,3.2606,3.3132,3.3908,3.3269,3.2988,3.2952,3.2624,3.248,3.2408,3.1726,3.1418,3.122,1.6666,1.6403,1.607,1.5649,1.6687,1.7808,1.8534,1.8357,1.8777,2.0463,2.1146,0.0,0.0,0.0,0.0,0.0,0.0,2.3352,2.3861,0.0,1.9107,1.9643,1.699,1.6009,1.7094,1.5479,1.4686,1.4861,1.4293,1.4393,1.5158,1.4574,1.4938,1.6127,1.6729,1.8004,1.9768,2.087,2.3038,2.5697,2.5738,2.6782,2.8166,0.0,2.7929,3.0659,3.0659,0.0,0.0,3.2033,3.1689,0.0,0.0,0.0,0.0,0.0,0.0,0.0,0.0,0.0,0.0,2.5355,0.0,0.0,0.0,0.0,2.2906,0.0,0.0,0.0,0.0,0.0,2.1732,2.1059,0.0,0.0,0.0,0.0,0.0,0.0,0.0,0.0,0.0,0.0,0.0,2.4319,2.3561,2.4282,2.7206,2.7935,2.8677,2.961,3.0248,3.0598,3.0598,3.0598,3.0598,3.0598,3.0598,3.0598,3.0627,3.1205,3.1857,3.2556,3.318,3.3819,3.4346,3.3942,3.377,3.3736,3.3388,3.3269,3.3164,3.2444,3.1996,3.1723,1.7354,1.7097,1.682,1.6673,1.7357,1.8243,1.9154,1.9853,2.0926,0.0,2.3119,0.0,0.0,2.6595,2.6765,0.0,0.0,2.5649,2.4739,2.2844,0.0,2.1524,1.985,1.8934,0.0,1.7641,1.6665,1.6027,1.555,1.5483,1.5793,1.5589,1.5928,1.6742,1.7739,1.9157,2.0884,0.0,0.0,0.0,0.0,2.6972,2.8519,0.0,0.0,2.9905,2.9905,3.0644,0.0,3.1734,3.1521,3.1297,3.1782,3.1252,3.051,3.0737,3.0722,0.0,0.0,0.0,3.0754,2.7341,0.0,0.0,0.0,0.0,0.0,0.0,0.0,0.0,0.0,0.0,2.2192,2.1399,2.145,2.1183,0.0,0.0,0.0,0.0,0.0,0.0,0.0,0.0,0.0,2.3309,2.3075,2.3995,0.0,2.7489,2.8497,2.9566,3.0075,3.0412,3.0598,3.0598,3.0598,3.0598,3.0598,3.0598,3.0612,3.083,3.1482,3.2495,3.2745,3.3441,3.438,3.3991,3.3805,3.377,3.3409,3.3304,3.3269,3.3037,3.2881,3.2712,1.8102,1.807,1.7956,1.7582,1.8292,1.9262,2.0255,2.1506,0.0,0.0,2.5064,0.0,2.8531,0.0,2.8059,0.0,2.836,2.7419,2.5725,2.487,0.0,2.3055,2.2154,0.0,2.0803,1.9578,1.8419,1.7317,1.6625,1.6324,1.643,1.6195,1.643,1.7041,1.8255,1.9654,2.1209,2.3052,2.4313,0.0,0.0,2.7886,0.0,0.0,2.9515,2.9889,0.0,3.0778,3.1537,3.1908,3.1774,3.1625,3.2372,3.1963,3.1219,3.1416,3.146,3.129,3.0742,3.1296,0.0,2.8637,2.7719,0.0,2.3805,0.0,0.0,0.0,0.0,0.0,0.0,0.0,2.3035,2.2736,2.2236,2.1489,0.0,2.0162,0.0,0.0,0.0,0.0,0.0,0.0,2.1031,2.2271,2.247,2.3458,0.0,0.0,2.807,2.9319,2.9946,3.0494,3.1043,3.0925,3.0836,3.0836,3.0687,3.0598,3.0598,3.0598,3.1293,3.2481,3.2481,3.3206,3.438,3.4128,3.4025,3.3991,3.377,3.3701,3.3667,3.3409,3.3304,3.3234,1.8882,1.9316,1.9492,1.8502,1.9475,0.0,0.0,0.0,2.4833,0.0,2.6965,2.7576,2.9428,2.9038,2.8878,2.9442,2.9469,2.8746,2.7078,2.6921,0.0,0.0,2.4004,2.3466,2.2883,2.1255,1.9888,1.8771,1.7484,1.6917,1.7027,1.6471,1.6512,1.7095,1.8269,1.9464,2.0772,2.3689,2.567,2.705,2.8809,2.9504,2.9628,3.0299,3.0554,3.0629,3.1277,3.1879,3.2425,3.2551,3.2523,3.2425,3.2551,3.2578,3.2454,3.1847,3.2233,3.2562,3.112,3.128,3.1374,2.9297,0.0,0.0,0.0,0.0,2.746,0.0,0.0,0.0,0.0,0.0,0.0,2.4796,2.3183,2.16,0.0,0.0,0.0,0.0,0.0,0.0,0.0,2.0049,2.027,2.1297,2.1714,2.2622,0.0,0.0,2.7415,2.8849,2.9828,3.0833,3.1892,3.1495,3.1307,3.1278,3.0807,3.0598,3.0598,3.0598,3.1293,3.2481,3.2481,3.3206,3.4414,3.4414,3.4414,3.4414,3.4414,3.4414,3.4312,3.3632,3.3339,3.3339,1.957,2.0378,2.1256,0.0,2.1025,2.1389,0.0,0.0,0.0,0.0,2.8957,3.0061,3.1289,3.1748,3.2027,3.2193,3.1827,0.0,0.0,0.0,0.0,2.8875,2.7957,2.7137,2.6495,2.363,2.1828,2.114,1.876,1.7631,1.7671,1.7522,1.7522,1.7712,1.8459,1.9938,2.1918,2.3125,2.5423,2.8298,2.9147,2.9797,0.0,0.0,3.1233,3.1277,3.1422,3.1879,3.2425,3.2425,3.2425,3.2425,3.2425,3.2453,3.2422,3.2252,3.2412,3.2625,3.238,3.2545,3.2525,3.145,3.045,2.9352,0.0,0.0,0.0,0.0,0.0,0.0,0.0,0.0,0.0,2.3717,2.2123,2.1015,0.0,0.0,0.0,2.1488,0.0,0.0,0.0,2.0319,2.0667,2.0931,2.1534,0.0,0.0,0.0,0.0,2.8844,2.9907,3.0926,3.1892,3.1495,3.1307,3.1278,3.0807,3.0598,3.0598,3.0598,3.1293,3.2481,3.2481,3.3206,3.4414,3.4414,3.4414,3.4414,3.4414,3.4414,3.438,3.4196,3.4128,3.4128,2.0647,2.1874,0.0,2.3849,0.0,0.0,2.5683,2.6229,0.0,2.947,3.0432,0.0,3.2129,3.28,3.3178,3.3178,3.2939,0.0,3.2035,0.0,0.0,3.0588,3.029,2.9744,2.8835,2.6264,0.0,2.2823,0.0,1.927,1.8411,1.8411,1.8333,1.8183,1.8783,2.0108,2.2001,2.4212,2.6637,2.9139,3.0009,3.0599,0.0,3.1652,3.1879,3.1879,3.1879,3.2104,3.2398,3.2398,3.2398,3.2398,3.2398,3.2425,3.2496,3.2496,3.2551,3.2621,3.2746,3.2881,3.2911,3.2546,3.1944,3.1155,3.009,3.0145,3.0207,0.0,0.0,0.0,0.0,0.0,0.0,2.2896,0.0,0.0,0.0,0.0,0.0,0.0,2.1031,0.0,0.0,0.0,2.0225,1.9909,0.0,0.0,0.0,0.0,0.0,2.8067,2.9685,3.1042,3.2044,3.1939,3.1781,3.1552,3.1131,3.0807,3.0598,3.0598,3.1293,3.2481,3.2481,3.3206,3.4414,3.4414,3.4414,3.4414,3.4414,3.4414,3.4414,3.4414,3.4414,3.4414,2.2054,2.3573,0.0,0.0,0.0,0.0,0.0,2.8502,0.0,3.1367,0.0,3.207,3.2605,3.3173,3.3506,3.3506,0.0,3.3087,3.2108,3.2965,3.2828,3.119,3.19,3.174,3.0504,2.8722,2.6612,0.0,0.0,2.0927,1.9101,1.9101,1.8898,1.8586,1.9145,2.0218,0.0,2.5983,2.8461,2.974,3.1009,3.1597,3.1816,3.2326,3.2582,3.2675,3.2675,3.2552,3.2398,3.2398,3.2398,3.2398,3.2398,3.248,3.2578,3.2578,3.2578,3.2578,3.2594,3.2746,3.287,3.2924,3.3096,3.2966,3.1735,3.1467,3.1467,3.1467,3.0488,3.0346,0.0,0.0,0.0,0.0,0.0,0.0,0.0,0.0,0.0,0.0,0.0,0.0,0.0,0.0,0.0,0.0,0.0,0.0,0.0,0.0,0.0,2.7188,2.9397,0.0,3.2291,0.0,3.2394,3.1992,3.1581,3.1131,3.0687,3.0687,3.134,3.2481,3.2481,3.3206,3.4414,3.4414,3.4414,3.4414,3.4414,3.4414,3.4414,3.4414,3.4414,3.4414,2.3977,0.0,0.0,0.0,0.0,2.946,3.0629,3.0888,3.1264,3.2117,3.3721,3.4548,3.4026,3.464,3.5115,3.5115,3.5115,0.0,0.0,0.0,0.0,3.4019,3.4296,3.3848,3.2524,2.9834,2.7373,0.0,0.0,2.0511,1.9101,1.9101,1.9064,1.9007,1.9104,2.074,2.3664,2.6897,0.0,3.0483,3.1225,3.2127,3.3087,3.32,3.3583,3.4135,3.4135,3.3396,3.2398,3.2398,3.2398,3.2398,3.2398,3.2425,3.2425,3.2425,3.2425,3.2453,3.2578,3.2621,3.2703,3.3005,3.3096,3.3087,3.2966,3.2929,3.2929,3.2929,3.274,3.2376,3.1697,0.0,0.0,0.0,0.0,0.0,0.0,0.0,0.0,0.0,0.0,0.0,0.0,0.0,0.0,0.0,0.0,0.0,0.0,0.0,0.0,0.0,2.9454,0.0,0.0,0.0,3.2559,3.2477,3.202,3.1581,3.1161,3.1161,3.1645,3.2481,3.2481,3.3206,3.4414,3.4414,3.4414,3.4414,3.4414,3.4414,3.4414,3.4414,3.4414,3.4414,2.6557,0.0,0.0,0.0,0.0,0.0,0.0,3.314,0.0,3.302,3.3834,3.4316,3.392,3.4862,3.5504,3.5504,3.5504,3.5504,3.5504,3.5621,3.5569,3.522,3.5138,3.479,3.415,3.1792,2.9407,2.7003,0.0,2.2239,2.0239,1.9876,1.9603,1.9461,2.0503,2.2401,0.0,0.0,0.0,3.1582,3.2222,3.3064,3.3981,3.3981,3.4197,3.4505,3.4505,3.4073,3.3503,3.3503,3.3229,3.2921,3.2921,3.2675,3.2398,3.2398,3.2398,3.2425,3.248,3.2551,3.2676,3.2951,3.3058,3.3139,3.3282,3.3309,3.3309,3.3309,3.3309,3.2866,3.1451,2.9509,0.0,0.0,0.0,0.0,0.0,0.0,0.0,0.0,0.0,0.0,0.0,0.0,0.0,0.0,0.0,0.0,0.0,0.0,0.0,0.0,0.0,0.0,0.0,0.0,0.0,3.2586,3.2367,3.2048,3.161,3.161,3.208,3.2864,3.2864,3.3451,3.4414,3.4414,3.4414,3.4414,3.4414,3.4414,3.4414,3.4414,3.4414,3.4414,0.0,2.9535,0.0,0.0,3.1824,0.0,3.3425,3.4637,3.513,3.4053,3.3918,3.3918,3.3918,3.4876,3.5504,3.5504,3.5504,3.5504,3.5554,3.5686,3.5784,3.5816,3.5598,3.5416,3.5278,3.3525,3.1305,0.0,0.0,0.0,0.0,2.0965,2.062,0.0,0.0,0.0,0.0,0.0,3.0997,3.2875,3.3413,3.406,3.472,3.472,3.4813,3.4936,3.4936,3.4936,3.4936,3.4936,3.4337,3.3629,3.3629,3.326,3.2844,3.2844,3.2736,3.2613,3.2613,3.2604,3.2621,3.2843,3.2978,3.3096,3.3256,3.3309,3.3309,3.3309,3.3309,3.2866,3.1451,3.0409,0.0,0.0,0.0,0.0,0.0,0.0,0.0,0.0,0.0,0.0,0.0,0.0,0.0,0.0,0.0,0.0,2.1221,2.2837,0.0,0.0,0.0,3.0363,3.1035,0.0,3.3118,0.0,3.2738,3.2492,3.2048,3.2201,3.2656,3.3347,3.3388,3.378,3.4414,3.4414,3.4414,3.4414,3.4414,3.4414,3.4414,3.4414,3.4414,3.4414,0.0,0.0,0.0,0.0,0.0,0.0,3.3484,3.4637,3.5459,3.5325,3.531,3.531,3.531,3.5429,3.5504,3.5504,3.5504,3.5554,3.5655,3.5863,3.6037,3.6133,3.629,3.6076,3.5491,3.406,3.1997,0.0,0.0,2.482,0.0,2.2151,0.0,0.0,0.0,0.0,0.0,3.0612,3.241,3.4305,3.4366,3.4813,3.5429,3.5429,3.5768,3.6307,3.6307,3.6307,3.6307,3.6307,3.5475,3.4412,3.4412,3.4351,3.4305,3.4305,3.3814,3.3306,3.3306,3.2859,3.2496,3.2816,3.2912,3.2978,3.3229,3.3309,3.3309,3.3309,3.3309,3.2866,3.1451,3.1634,3.1121,0.0,0.0,0.0,0.0,0.0,2.5274,2.6228,0.0,0.0,0.0,0.0,0.0,0.0,0.0,0.0,2.2645,2.306,2.4185,2.621,0.0,2.9826,3.056,3.2384,3.3282,3.324,3.324,3.2985,3.2563,3.3212,3.3635,3.3834,3.4035,3.4239,3.4414,3.4414,3.4414,3.4414,3.4414,3.4414,3.4414,3.4414,3.4414,3.4414,0.0,0.0,0.0,0.0,0.0,0.0,0.0,3.516,3.5504,3.5504,3.5504,3.5504,3.5504,3.5504,3.5522,3.5621,3.5621,3.5671,3.5863,3.6022,3.6148,3.6196,3.6383,3.6368,3.6122,3.5137,3.3521,0.0,0.0,2.6995,2.4754,2.4302,0.0,0.0,0.0,2.9058,3.1259,3.2198,3.3552,3.5106,3.5106,3.5506,3.6091,3.6091,3.6261,3.6492,3.6492,3.6492,3.6492,3.6492,3.5891,3.5106,3.5106,3.4828,3.4505,3.4505,3.4305,3.4073,3.4073,3.3537,3.3069,3.3422,3.3209,3.2978,3.3229,3.3309,3.3309,3.3309,3.3309,3.3135,3.2566,3.1665,3.0805,0.0,0.0,0.0,0.0,0.0,0.0,2.6636,0.0,2.2983,0.0,0.0,0.0,0.0,0.0,0.0,0.0,0.0,0.0,2.5767,0.0,2.992,3.0488,3.2529,3.345,3.3309,3.3309,3.3214,3.3027,3.3744,3.4416,3.5016,3.5338,3.556,3.561,3.5787,3.5835,3.5835,3.5835,3.561,3.5285,3.5139,3.4872,3.4563,3.3739,0.0,3.3455,0.0,3.4397,3.4412,3.537,3.5522,3.5554,3.5554,3.5619,3.5619,3.5587,3.5554,3.5636,3.5752,3.5799,3.5863,3.6053,3.6148,3.6242,3.6274,3.6414,0.0,3.6492,3.583,3.4675,3.3013,3.1182,0.0,2.7565,0.0,0.0,0.0,2.9981,3.1305,3.3044,3.3721,3.4706,3.5814,3.5845,3.6122,3.6492,3.6538,3.6554,3.6554,3.6523,3.6523,3.6554,3.6523,3.6184,3.5784,3.5784,3.5491,3.5106,3.5106,3.4951,3.4797,3.4797,3.4318,3.3836,3.4123,3.372,3.3313,3.354,3.3435,3.3309,3.3309,3.3309,3.3361,3.3503,3.2044,3.0885,3.1094,0.0,0.0,0.0,0.0,0.0,0.0,2.4671,2.3035,2.2326,0.0,0.0,0.0,0.0,0.0,0.0,0.0,0.0,0.0,0.0,0.0,0.0,3.2899,3.372,3.3529,3.345,3.3509,3.3731,3.4537,3.5427,3.6265,3.649,3.6554,3.6523,3.6722,3.6797,3.6797,3.6797,3.643,3.5881,3.5738,3.5415,3.5034,3.4369,3.4488,3.4698,3.537,3.5489,3.5489,3.5504,3.5621,3.5688,3.5688,3.5863,3.5926,3.572,3.5688,3.5784,3.5973,3.6005,3.6053,3.6179,3.6196,3.6274,0.0,0.0,3.6492,3.6492,3.583,3.5167,3.4474,0.0,0.0,3.034,0.0,3.0074,3.1382,3.2044,3.3165,3.452,3.5198,3.5891,3.6507,3.6616,3.66,3.6523,3.6662,3.6693,3.6693,3.6554,3.6585,3.6693,3.6538,3.6492,3.6476,3.6476,3.6476,3.6476,3.6476,3.5999,3.5506,3.5506,3.5087,3.4736,3.4865,3.4476,3.4125,3.4261,3.3767,3.3309,3.3309,3.3309,3.345,3.4,3.3093,3.196,3.1066,0.0,0.0,0.0,0.0,0.0,2.674,2.4449,2.2629,2.1965,0.0,0.0,0.0,0.0,0.0,0.0,0.0,0.0,2.7997,3.0081,0.0,3.2263,3.3494,3.4101,3.4101,3.3822,3.4036,3.4729,3.5871,3.6796,3.7544,3.7235,3.698,3.6813,3.6797,3.6797,3.6797,3.6797,3.643,3.5913,3.5913,3.5881,3.5849,3.513,3.5175,3.5267,3.5576,3.5653,3.5686,3.5829,3.5878,3.5894,3.5894,3.5973,3.6005,3.6038,3.5958,3.5958,0.0,3.6148,3.6211,0.0,3.6383,3.6414,3.6492,3.6492,3.6492,3.6492,3.6276,3.583,3.5198,0.0,0.0,0.0,3.2369,3.3042,3.4357,3.4705,3.534,3.621,3.6427,3.6645,3.6847,3.6908,3.6877,3.6847,3.6908,3.6908,3.6908,3.6847,3.677,3.6693,3.6662,3.6631,3.6631,3.6631,3.6631,3.6662,3.6816,3.6691,3.652,3.652,3.6053,3.5613,3.5743,3.4936,3.414,3.4261,3.3783,3.3309,3.3309,3.3309,3.3346,3.3529,3.3127,3.2506,3.1713,3.1352,0.0,0.0,0.0,0.0,0.0,2.5473,2.4527,0.0,2.4168,0.0,0.0,0.0,0.0,0.0,0.0,0.0,0.0,3.0104,0.0,3.2302,3.3664,3.4275,3.4117,3.4526,3.5356,3.6475,3.686,3.7428,3.816,3.8214,3.8226,3.8181,3.8423,3.8507,3.8507,3.8507,3.8108,3.7515,3.7427,3.7115,3.6692,3.5504,3.5733,3.5847,3.572,3.5959,3.6117,3.6037,3.6037,3.6068,3.6068,3.6132,3.6226,3.6305,3.6226,0.0,3.632,3.6305,3.6383,3.6492,3.6492,3.6492,3.6492,3.6492,3.6492,3.6492,0.0,0.0,3.5891,3.549,3.5088,3.4641,3.4847,3.5386,3.6194,3.633,3.6609,3.7015,3.7015,3.7015,3.6999,3.7044,3.7044,3.7015,3.706,3.7075,3.7075,3.703,3.6953,3.6861,3.6816,3.68,3.6831,3.6861,3.6892,3.6892,3.6969,3.7015,3.7015,3.7015,3.6747,3.6463,3.6536,3.5776,3.4896,3.4643,3.4277,3.3946,3.388,3.3841,3.3917,3.4143,3.3689,3.3121,3.256,3.1973,3.0981,2.9234,0.0,0.0,0.0,0.0,0.0,0.0,2.591,0.0,0.0,0.0,0.0,0.0,0.0,0.0,2.8887,3.1205,0.0,3.3261,3.4462,3.498,3.4823,3.5701,3.6603,3.7481,3.7648,3.8093,3.8727,3.8777,3.886,3.8996,3.9202,3.9299,3.9299,3.9299,3.8898,3.8294,3.821,3.7908,3.7531,3.5651,3.6196,0.0,0.0,3.643,0.0,3.6179,3.6179,3.6211,3.6211,3.6383,3.6492,3.6492,3.6492,3.6492,3.6492,0.0,0.0,0.0,3.6492,3.6492,3.6492,3.6492,3.6492,3.6492,3.6492,3.6492,3.6523,3.6631,3.6723,3.6723,3.6938,3.6999,3.6999,3.7045,3.703,3.703,3.703,3.703,3.7045,3.718,3.715,3.706,3.7164,3.7224,3.7194,3.709,3.7105,3.7194,3.706,3.6999,3.703,3.7164,3.7224,3.7194,3.706,3.703,3.703,3.703,3.7135,3.7224,3.7224,3.6839,3.6229,3.5378,3.5211,3.5154,3.4928,3.4875,3.5024,3.5459,3.4678,3.3823,3.3448,3.2475,3.1199,2.9503,0.0,0.0,0.0,0.0,0.0,0.0,2.7009,2.8042,0.0,0.0,0.0,0.0,0.0,2.9582,3.1548,3.3027,3.417,3.4965,3.5661,3.6059,3.6174,3.7242,3.7793,3.7919,3.8279,3.8755,3.9272,3.8969,3.9013,3.9299,3.9299,3.9299,3.9299,3.9299,3.8925,3.8379,3.8379,3.8379,3.8322,0.0,0.0,3.7499,3.7454,3.7249,3.7057,3.7072,3.6708,3.6414,3.6414,3.646,3.6492,3.6492,3.6492,3.6492,3.6492,3.6492,3.6492,3.6492,3.6492,3.6492,3.6492,3.6492,3.6492,3.6492,3.6492,3.6554,3.6662,3.6693,3.6785,3.6938,3.7089,3.7134,3.718,3.7315,3.7391,3.7391,3.7391,3.7391,3.7391,3.7421,3.7405,3.7391,3.7421,3.7435,3.7435,3.7391,3.73,3.7194,3.7164,3.7134,3.7164,3.7194,3.73,3.7435,3.7391,3.7391,3.7391,3.7391,3.7405,3.7435,3.7435,3.7259,3.6883,3.6108,3.6306,3.6439,3.5827,3.5718,3.556,3.5074,3.508,3.4767,3.3537,3.3427,3.2485,2.9551,2.9409,0.0,0.0,2.8602,2.9421,2.921,3.0195,3.0569,0.0,0.0,0.0,0.0,3.1156,3.1653,3.1598,3.3027,3.4419,3.5727,3.5909,3.6572,3.7698,3.7952,3.8372,3.8954,3.9055,3.9164,3.9299,3.9218,3.9245,3.9299,3.9299,3.9299,3.9299,3.9299,3.9202,3.905,3.905,3.905,3.905,3.7793,3.8064,3.8246,3.8032,3.7806,3.7605,3.7431,3.7156,3.6953,3.6953,3.7215,3.7415,3.7415,3.7415,3.7415,3.7415,3.6846,3.6492,3.6492,3.6492,3.6492,3.6492,3.6492,3.6492,3.6492,3.6554,3.6662,3.6831,3.6907,3.6983,3.7105,3.727,3.7329,3.7329,3.7435,3.751,3.751,3.751,3.751,3.751,3.751,3.751,3.751,3.751,3.751,3.751,3.751,3.7435,3.7329,3.7329,3.7329,3.7329,3.7329,3.7405,3.751,3.751,3.751,3.751,3.751,3.751,3.7553,3.7815,3.8007,3.804,3.7546,3.7703,3.7776,3.7293,3.6935,3.654,3.6118,3.5693,3.5032,3.385,3.3667,3.2769,3.0227,3.0119,0.0,2.935,3.0229,3.1109,3.1635,3.2502,3.2681,3.1844,0.0,0.0,3.2042,3.3367,3.3684,3.263,3.4038,3.5181,3.5992,3.6671,3.7582,3.8692,3.8692,3.8907,3.9299,3.9299,3.9299,3.9299,3.9299,3.9299,3.9299,3.9299,3.9299,3.9299,3.9299,3.9299,3.9299,3.9299,3.9299,3.9299,3.8149,3.8652,3.8908,3.8398,3.8374,3.827,3.778,3.7654,3.7619,3.7631,3.8154,3.8508,3.8508,3.8591,3.8591,3.8508,3.7541,3.6878,3.6645,3.6553,3.6492,3.6492,3.6492,3.6523,3.6523,3.6662,3.6831,3.703,3.7134,3.7224,3.7254,3.7435,3.751,3.751,3.751,3.751,3.751,3.751,3.751,3.751,3.751,3.751,3.751,3.751,3.7553,3.7612,3.7539,3.7553,3.7612,3.7539,3.751,3.751,3.751,3.751,3.751,3.7612,3.7612,3.7612,3.7539,3.7553,3.7756,3.8311,3.8876,3.9278,3.9101,3.9139,3.9129,3.8814,3.8272,3.7771,3.7547,3.6443,3.5214,3.4268,3.3621,3.2692,3.1063,0.0,3.1034,3.1514,3.1609,3.2127,3.3376,3.4194,3.4427,3.3921,3.5045,3.5262,0.0,3.5365,3.5525,3.4345,3.545,3.6157,3.634,3.7682,3.8676,3.9299,3.9299,3.9299,3.9299,3.9299,3.9299,3.9299,3.9299,3.9299,3.9299,3.9299,3.9299,3.9299,3.9299,3.9299,3.9299,3.9299,3.9299,3.9299,3.9705,3.985,3.9876,3.9782,3.9391,3.9035,3.9001,3.8591,3.8263,3.8342,3.8446,3.8508,3.8508,3.9012,3.9124,3.8541,3.8825,3.856,3.7416,3.6799,3.6492,3.6492,3.6492,3.6554,3.6662,3.6877,3.7014,3.7164,3.7194,3.73,3.7435,3.748,3.751,3.751,3.751,3.751,3.751,3.751,3.751,3.751,3.751,3.751,3.751,3.751,3.7786,3.8112,3.7655,3.7786,3.8112,3.7655,3.751,3.751,3.751,3.751,3.7583,3.8026,3.8197,3.8084,3.7626,3.7828,3.8339,3.892,3.9463,3.9868,3.9842,4.0214,4.0403,3.9681,3.9439,3.8974,3.7737,3.7305,3.6494,3.4441,3.4071,3.3282,3.1185,0.0,3.2755,3.2301,3.389,3.5145,3.5353,3.5315,3.5469,3.5984,3.5431,3.5215,3.557,3.6442,3.6807,3.6593,3.6477,3.6876,3.7864,3.8692,3.9199,3.9299,3.9299,3.9299,3.9299,3.9299,3.9299,3.9299,3.9299,3.9299,3.9299,3.9299,3.9299,3.9299,3.9299,3.9299,3.9299,3.9299,3.9299,3.9299,4.1119,4.0654,4.035,4.1162,4.0843,4.0471,4.0454,4.0224,4.008,4.0119,4.0436,4.0658,4.0658,4.0928,4.0991,4.069,4.0624,4.0319,3.9706,3.8371,3.7584,3.7584,3.7665,3.7855,3.8091,3.82,3.8121,3.7897,3.8274,3.8115,3.7526,3.8253,3.8381,3.8049,3.8412,3.857,3.857,3.857,3.857,3.8601,3.8978,3.9127,3.914,3.946,3.9744,3.9926,3.9675,3.9316,3.8845,3.8618,3.8059,3.751,3.751,3.7714,3.7985,3.8238,3.8546,3.8728,3.8467,3.8794,3.9289,3.9568,4.007,4.0483,4.0483,4.071,4.0791,4.0429,3.9991,3.9491,3.8801,3.768,3.6667,3.6146,3.5067,0.0,0.0,3.3841,3.4142,3.4213,3.5161,3.5968,3.6391,3.6326,3.6387,3.6733,3.6319,3.6342,3.7047,3.7446,3.7932,3.8601,3.8024,3.8194,3.9115,3.9239,3.9299,3.9299,3.9299,3.9299,3.9299,3.9299,3.9299,3.9299,3.9299,3.9299,3.9299,3.9299,3.9299,3.9299,3.9299,3.9299,3.9299,3.9299,3.9299,3.9299,4.2066,4.1399,4.0976,4.2083,4.1999,4.1728,4.1654,4.1694,4.1699,4.174,4.218,4.252,4.252,4.2645,4.2676,4.252,4.2203,4.1985,4.1803,4.0388,3.9404,3.9012,3.9076,3.9187,3.9298,3.9314,3.9125,3.8744,3.925,3.8965,3.797,3.9013,3.9234,3.876,3.9281,3.9596,3.9736,3.9736,3.9812,3.9996,4.0491,4.0697,4.0756,4.1213,4.1494,4.1577,4.1438,4.0849,4.0029,3.9723,3.8978,3.8126,3.7966,3.8185,3.853,3.8668,3.9102,3.9558,3.9428,3.9688,4.0028,4.017,4.0549,4.0912,4.0912,4.0912,4.0912,4.0912,4.0411,3.9905,3.9733,3.8289,3.7262,3.7646,0.0,0.0,0.0,3.5544,3.5495,3.6248,3.6494,3.6865,3.7481,3.7514,3.7514,3.7514,3.7514,3.7777,3.8357,3.8567,3.9161,4.0277,3.9573,3.9446,4.002,3.9625,3.9432,3.9432,3.9352,3.9299,3.9299,3.9299,3.9299,3.9299,3.9299,3.9299,3.9299,3.9299,3.9299,3.9299,3.9299,3.9299,3.9299,3.9299,3.9299,3.9299,4.2269,4.2202,4.2151,4.2269,4.2252,4.2284,4.2327,4.2332,4.2344,4.2421,4.2488,4.252,4.252,4.3045,4.3166,4.2552,4.3194,4.3357,4.2735,4.2684,4.2018,4.0593,4.0248,3.9842,3.9314,3.9409,3.9487,3.9424,3.9471,3.9455,3.9345,3.9455,3.9471,3.9424,3.9471,3.9859,4.0418,4.0418,4.074,4.1269,4.1326,4.1326,4.1354,4.1382,4.1759,4.2156,4.1605,4.1698,4.189,4.0646,4.0161,3.9957,3.9297,3.9098,3.9242,3.9723,4.0311,4.0638,4.0095,3.9978,4.0128,4.0686,4.0871,4.0912,4.0912,4.0912,4.0912,4.0912,4.086,4.0584,3.9836,3.9669,3.92,3.7906,0.0,0.0,3.6709,3.679,3.7093,3.7848,3.8582,3.9076,3.9108,3.9147,3.9147,3.9147,3.9147,3.9164,3.9217,3.9919,4.0674,4.1455,4.0709,4.03,4.0351,4.002,3.9849,3.9849,3.9484,3.9299,3.9299,3.9299,3.9299,3.9299,3.9299,3.9299,3.9299,3.9299,3.9299,3.9299,3.9299,3.9299,3.9299,3.9299,3.9299,3.9299,4.3548,4.3217,4.298,4.3633,4.3735,4.3736,4.3754,4.3759,4.3774,4.3794,4.3798,4.3798,4.3798,4.4018,4.4105,4.3927,4.4248,4.4361,4.4186,4.4214,4.3643,4.2377,4.2182,4.2062,4.191,4.1941,4.1789,4.1363,4.1789,4.1545,4.0681,4.1578,4.1773,4.1395,4.1806,4.2122,4.2361,4.2361,4.2479,4.2742,4.316,4.3317,4.3373,4.3749,4.4036,4.4186,4.3966,4.3498,4.2905,4.2385,4.1654,4.0934,4.0652,4.0832,4.1148,4.1221,4.1137,4.0959,4.0734,4.0686,4.0752,4.0959,4.1059,4.1088,4.1088,4.1059,4.1029,4.1065,4.1035,4.0943,4.0666,4.0301,4.0016,3.9996,0.0,3.8423,3.8996,3.8705,3.8532,3.8813,3.9108,3.9284,3.9284,3.9284,3.9284,3.9284,3.9284,3.9533,4.0007,4.0762,4.1306,4.1604,4.13,4.103,4.0772,4.041,4.0121,3.9901,3.9746,3.9537,3.9299,3.9563,3.9668,3.9677,3.9901,3.9986,3.9986,3.9986,3.985,3.9668,3.9668,3.9511,3.9325,3.959,3.9668,3.9668,4.4395,4.4028,4.3792,4.4496,4.4615,4.4615,4.4615,4.4615,4.4615,4.4615,4.4626,4.4654,4.4654,4.4709,4.4748,4.4858,4.4913,4.4951,4.5059,4.5086,4.4669,4.3651,4.3634,4.3617,4.3512,4.3512,4.3264,4.2825,4.3264,4.2999,4.2095,4.3048,4.323,4.2812,4.328,4.363,4.3823,4.3823,4.3939,4.414,4.4614,4.4797,4.4824,4.5247,4.5397,4.5397,4.545,4.486,4.4053,4.385,4.3212,4.2399,4.2162,4.2351,4.2689,4.2541,4.2029,4.1528,4.1528,4.136,4.1169,4.1146,4.1175,4.1209,4.1209,4.1157,4.1129,4.1186,4.1157,4.1169,4.1186,4.0814,4.0707,4.1293,4.0346,3.9851,4.0727,4.0165,3.9761,4.0007,4.0003,4.0003,4.0003,4.0003,4.0003,4.0003,4.0003,4.027,4.0836,4.1323,4.1604,4.1604,4.1604,4.1453,4.1186,4.0795,4.0483,4.0246,4.0121,3.9918,3.9644,3.9944,4.007,4.007,4.0294,4.04,4.04,4.04,4.0245,4.007,4.007,3.9893,3.9687,3.9969,4.007,4.007,4.4615,4.4615,4.4615,4.4615,4.4615,4.4615,4.4615,4.4615,4.4615,4.4615,4.4709,4.4803,4.4803,4.4913,4.5005,4.5005,4.5123,4.5203,4.5203,4.5344,4.5059,4.4321,4.4435,4.4202,4.3542,4.3512,4.3512,4.3512,4.3512,4.3512,4.3512,4.3512,4.3512,4.3512,4.3512,4.3881,4.4502,4.4502,4.4852,4.5397,4.5397,4.5397,4.5397,4.5397,4.5397,4.5423,4.5554,4.5607,4.5511,4.4908,4.4714,4.4575,4.3851,4.3607,4.3607,4.3607,4.3043,4.241,4.2392,4.1905,4.138,4.1232,4.1209,4.1192,4.1192,4.1209,4.1209,4.1192,4.1209,4.1209,4.1192,4.1318,4.1403,4.1403,4.0907,4.0766,4.1499,4.0955,4.0783,4.1516,4.1604,4.1604,4.1604,4.1604,4.1604,4.1604,4.1604,4.1604,4.1604,4.1604,4.1604,4.1604,4.1604,4.1604,4.1604,4.1186,4.1001,4.1001,4.0611,4.04,4.04,4.04,4.04,4.04,4.04,4.04,4.04,4.04,4.04,4.04,4.04,4.04,4.04,4.04,4.04,4.04,4.4615,4.4615,4.4615,4.4615,4.4615,4.4615,4.4615,4.4615,4.4626,4.4737,4.4793,4.4831,4.494,4.4995,4.5032,4.514,4.5194,4.5247,4.5327,4.5371,4.5318,4.5086,4.5113,4.5042,4.4835,4.4818,4.4818,4.4818,4.4818,4.4818,4.4818,4.4818,4.4818,4.4818,4.4818,4.4944,4.514,4.514,4.522,4.5397,4.5397,4.5397,4.5397,4.5397,4.545,4.5554,4.5581,4.5641,4.5709,4.5534,4.5473,4.5438,4.5212,4.4801,4.4366,4.4366,4.3857,4.3214,4.269,4.2468,4.2216,4.1503,4.1408,4.1475,4.1475,4.1408,4.1363,4.1453,4.1408,4.1363,4.1453,4.1498,4.1538,4.1538,4.1389,4.1341,4.1569,4.1411,4.1358,4.1569,4.1604,4.1604,4.1604,4.1604,4.1604,4.1604,4.1604,4.1604,4.1604,4.1604,4.1604,4.1604,4.1604,4.1604,4.1604,4.1475,4.1295,4.1001,4.0866,4.0659,4.04,4.0683,4.0819,4.0843,4.1117,4.1232,4.1232,4.1232,4.1094,4.0819,4.0819,4.0635,4.0424,4.0724,4.0819,4.0819,4.4615,4.4615,4.4615,4.4615,4.4615,4.4615,4.4615,4.4654,4.4709,4.4776,4.4886,4.4978,4.5059,4.5113,4.5194,4.5274,4.5274,4.53,4.5397,4.5397,4.5397,4.5397,4.5397,4.5397,4.5397,4.5397,4.5397,4.5397,4.5397,4.5397,4.5397,4.5397,4.5397,4.5397,4.5397,4.5423,4.5476,4.5476,4.5502,4.5554,4.5554,4.5554,4.5554,4.5554,4.5607,4.5684,4.5744,4.5795,4.5871,4.5947,4.5947,4.5947,4.5947,4.5658,4.5299,4.5299,4.4806,4.4154,4.3722,4.3419,4.3038,4.2158,4.1783,4.1604,4.1604,4.1538,4.1493,4.1582,4.1538,4.1515,4.1582,4.1604,4.1604,4.1604,4.1604,4.1604,4.1604,4.1604,4.1604,4.1604,4.1604,4.1604,4.1604,4.1604,4.1604,4.1604,4.1604,4.1604,4.1604,4.1604,4.1604,4.1604,4.1604,4.1604,4.1604,4.1604,4.1475,4.1249,4.1249,4.1117,4.0873,4.114,4.1249,4.1249,4.1475,4.1604,4.1604,4.1604,4.1453,4.1249,4.1249,4.1094,4.0896,4.114,4.1249,4.1249,4.4626,4.4626,4.4626,4.4626,4.4626,4.4626,4.4626,4.4737,4.4831,4.4831,4.5059,4.5203,4.522,4.5344,4.5397,4.5397,4.5397,4.5397,4.5397,4.5397,4.5397,4.5397,4.5397,4.5397,4.5397,4.5397,4.5397,4.5397,4.5397,4.5397,4.5423,4.5423,4.5423,4.5423,4.5423,4.5502,4.5632,4.5632,4.5693,4.5812,4.5882,4.5899,4.5899,4.5899,4.5899,4.5951,4.5982,4.5998,4.6023,4.6147,4.6196,4.6196,4.6196,4.6196,4.6196,4.6196,4.5705,4.5185,4.5115,4.4571,4.3834,4.3079,4.2306,4.1692,4.1622,4.1604,4.1604,4.1604,4.1604,4.1604,4.1604,4.1604,4.1604,4.1604,4.1604,4.1604,4.1604,4.1604,4.1604,4.1604,4.1604,4.1604,4.1604,4.1604,4.1604,4.1604,4.1604,4.1604,4.1604,4.1604,4.1604,4.1604,4.1604,4.1604,4.1604,4.1604,4.1604,4.1604,4.1604,4.1604,4.1604,4.1604,4.1604,4.1604,4.1604,4.1604,4.1604,4.1604,4.1604,4.1604,4.1604,4.1604,4.1604,4.1604,4.1604,4.1604,4.4765,4.4831,4.4896,4.4896,4.4896,4.4896,4.4896,4.4923,4.4978,4.5113,4.515,4.5247,4.5344,4.5371,4.5397,4.5397,4.5397,4.5397,4.5397,4.5397,4.5397,4.5397,4.5397,4.5397,4.5397,4.5397,4.5397,4.5397,4.5397,4.545,4.5554,4.5554,4.5615,4.5718,4.5718,4.5718,4.5761,4.5761,4.577,4.5847,4.6499,4.6726,4.6726,4.6726,4.6803,4.6811,4.6225,4.6073,4.6147,4.6196,4.6196,4.6196,4.6196,4.6196,4.6196,4.6196,4.6091,4.5828,4.5273,4.4975,4.4659,4.3851,4.3096,4.2377,4.1745,4.1604,4.1604,4.1604,4.1604,4.1604,4.1604,4.1604,4.1604,4.1604,4.1604,4.1604,4.1604,4.1604,4.1604,4.1604,4.1604,4.1604,4.1604,4.1604,4.1604,4.1604,4.1604,4.1604,4.1604,4.1604,4.1604,4.1604,4.1604,4.1604,4.1604,4.1604,4.1604,4.1604,4.1604,4.1604,4.1604,4.1604,4.1604,4.1604,4.1604,4.1604,4.1604,4.1604,4.1604,4.1604,4.1604,4.1604,4.1604,4.1604,4.1604,4.1604,4.4886,4.4951,4.5005,4.5005,4.5005,4.5005,4.5005,4.5059,4.5113,4.5177,4.5247,4.53,4.5397,4.5397,4.5397,4.5397,4.5397,4.5397,4.5397,4.5397,4.5397,4.5397,4.5759,4.5966,4.5966,4.631,4.6165,4.5502,4.5502,4.5563,4.571,4.571,4.5718,4.5795,4.5795,4.6055,4.648,4.648,4.6715,4.7116,4.7561,4.7718,4.7718,4.7718,4.7744,4.7769,4.734,4.7006,4.6783,4.6783,4.6512,4.6196,4.6196,4.6196,4.6196,4.6196,4.6196,4.6109,4.5723,4.5617,4.5449,4.4676,4.4185,4.3605,4.2447,4.1885,4.1604,4.1604,4.1604,4.1604,4.1604,4.1604,4.1604,4.1604,4.1604,4.1604,4.1604,4.1604,4.1604,4.1604,4.1604,4.1604,4.1604,4.1604,4.1604,4.1604,4.1604,4.1604,4.1604,4.1604,4.1604,4.1604,4.1604,4.1604,4.1604,4.1604,4.1604,4.1604,4.1604,4.1604,4.1604,4.1604,4.1604,4.1604,4.1604,4.1604,4.1604,4.1604,4.1604,4.1604,4.1604,4.1604,4.1604,4.1604,4.1604,4.1604,4.5005,4.5059,4.5059,4.5059,4.5059,4.5059,4.5059,4.5167,4.523,4.523,4.5327,4.5397,4.5397,4.5397,4.5397,4.5397,4.5397,4.5397,4.5397,4.5518,4.5604,4.5604,4.6345,4.6803,4.6803,4.7407,4.7151,4.5987,4.5987,4.6066,4.6247,4.6247,4.6247,4.6255,4.6255,4.6698,4.742,4.742,4.7839,4.8512,4.8661,4.8731,4.8731,4.8731,4.8731,4.8696,4.8548,4.8117,4.759,4.759,4.7151,4.6565,4.6442,4.6407,4.6372,4.6249,4.6196,4.6196,4.6196,4.6196,4.6056,4.5449,4.5185,4.4764,4.3483,4.2482,4.1815,4.1815,4.171,4.1604,4.1604,4.1604,4.1604,4.1604,4.1604,4.1604,4.1604,4.1604,4.1604,4.1604,4.1604,4.1604,4.1604,4.1604,4.1604,4.1604,4.1604,4.1604,4.1604,4.1604,4.1604,4.1604,4.1604,4.1604,4.1604,4.1604,4.1604,4.1604,4.1604,4.1604,4.1604,4.1604,4.1604,4.1604,4.1604,4.1604,4.1604,4.1604,4.1604,4.1604,4.1604,4.1604,4.1604,4.1604,4.1604,4.1604,4.515,4.5274,4.5344,4.5344,4.5344,4.5344,4.5344,4.5371,4.5371,4.5371,4.5397,4.5397,4.5397,4.5397,4.5397,4.5397,4.5397,4.5397,4.5397,4.6035,4.6458,4.6458,4.7165,4.7534,4.7534,4.7638,4.7651,4.7573,4.7573,4.7707,4.7972,4.7972,4.8024,4.8128,4.8128,4.8223,4.8311,4.8311,4.839,4.8548,4.9258,4.9521,4.9521,4.9521,4.9521,4.9434,4.8766,4.8425,4.8337,4.8337,4.8267,4.8074,4.7432,4.7239,4.7099,4.6407,4.6196,4.6196,4.6196,4.6196,4.6179,4.6074,4.5565,4.5045,4.4834,4.3676,4.2658,4.2658,4.2078,4.1604,4.1604,4.1604,4.1604,4.1604,4.1604,4.1604,4.1604,4.1604,4.1604,4.1604,4.1604,4.1604,4.1604,4.1604,4.1604,4.1604,4.1604,4.1604,4.1604,4.1604,4.1604,4.1604,4.1604,4.1604,4.1604,4.1604,4.1604,4.1604,4.1604,4.1604,4.1604,4.1604,4.1604,4.1604,4.1604,4.1604,4.1604,4.1604,4.1604,4.1604,4.1604,4.1604,4.1604,4.1604,4.1604,4.1604,4.53,4.5371,4.5397,4.5397,4.5397,4.5397,4.5397,4.5397,4.5397,4.5397,4.5397,4.5397,4.5397,4.5793,4.6069,4.6069,4.6448,4.6672,4.6672,4.7017,4.7207,4.7207,4.7913,4.831,4.831,4.8741,4.9089,4.9305,4.8437,4.8127,4.8312,4.8391,4.8443,4.8495,4.8495,4.8766,4.917,4.917,4.9434,4.9872,5.0224,5.0364,5.0364,5.0364,5.0364,5.0311,4.9978,4.9556,4.917,4.917,4.8872,4.8442,4.8152,4.7748,4.7327,4.6976,4.6547,4.6196,4.6196,4.6196,4.6196,4.6196,4.5951,4.5705,4.5705,4.4887,4.3957,4.3518,4.2798,4.2271,4.2271,4.1903,4.1604,4.1604,4.1604,4.1604,4.1604,4.1604,4.1604,4.1604,4.1604,4.1604,4.1604,4.1604,4.1604,4.1604,4.1604,4.1604,4.1604,4.1604,4.1604,4.1604,4.1604,4.1604,4.1604,4.1604,4.1604,4.1604,4.1604,4.1604,4.1604,4.1604,4.1604,4.1604,4.1604,4.1604,4.1604,4.1604,4.1604,4.1604,4.1604,4.167,4.1762,4.1762,4.1849,4.1956]}]]